     2              OBSERVATION DATA    G (GPS)             RINEX VERSION / TYPE
TRRINEXO V2.3.1 LH UCLA / SCEC 08-FEB-94 15:50              PGM / RUN BY / DATE
                                                            COMMENT
PROJECT NAME: NORTHRIDGE EARTHQUAKE                         COMMENT
ARCHIVED BY: SOUTHERN CALIFORNIA EARTHQUAKE CENTER (SCEC)   COMMENT
ANTENNA DELTA H: DIRECT HEIGHT TO PRE-AMP BASE (DHPAB)      COMMENT
ANTENNA SPECIFICATION: L1 = DHPAB + .0692                   COMMENT
NOTE:                                                       COMMENT
PROBLEM: NONE                                               COMMENT
FOR FURTHER INFORMATION CONTACT: DAVE JACKSON               COMMENT
UCLA / GEOLOGY BLDG., 595 CIRCLE DR E. RM 3806              COMMENT
BIT 2 OF LLI (+4) FLAGS DATA COLLECTED UNDER "AS" CONDITION COMMENT
MEAS ANT HT=0.9795 m (SLANT HT OUT EDGE, TOP GROUND PLANE)  COMMENT
CHATSWORTH RE62 1933 REFERENCE MARK NO 1                    MARKER NAME
D. POTTER UCLA                                              OBSERVER / AGENCY
930 TRIMBLE 4000 SST 4.81                                   REC # / TYPE / VERS
0 TRIMBLE 4000 SST                                          ANT # / TYPE
 -2529753.0000 -4632035.0000  3570415.0000                  APPROX POSITION XYZ
        0.8864        0.0000        0.0000                  ANTENNA: DELTA H/E/N
     1     2                                                WAVELENGTH FACT L1/2
     3    C1    L1    L2                                    # / TYPES OF OBSERV
    30                                                      INTERVAL
  1994     1    20    16    58    0.000000                  TIME OF FIRST OBS
                                                            END OF HEADER
 94  1 20 16 58  0.0000000  0  5  1 25 15 21 31
  21739454.844          -0.27317
  21487722.250          -0.21017
  21766710.500          -0.58217
  22361083.859          -0.30116
  24413781.000          -0.83813
 94  1 20 16 58 30.0000000  0  5  1 25 15 21 31
  21743228.258       19832.696 7        -0.26819
  21468012.023     -103571.109 7        -0.46019
  21745603.914     -110930.113 7        -0.03017
  22364052.977       15604.865 6        -0.43216
  24419713.727       31151.396 3        -0.17113
 94  1 20 16 59  0.0000000  0  5  1 25 15 21 31
  21747030.453       39802.504 7     15560.601 9
  21448383.305     -206732.246 7    -80385.740 9
  21724570.234     -221455.362 7    -86123.580 7
  22367056.344       31409.807 6     12315.072 6
  24425655.625       62386.397 4     24338.730 2
 94  1 20 16 59 30.0000000  0  5  1 25 15 21 31
  21750859.688       59939.733 7     31251.922 9
  21428841.156     -309435.371 7   -160414.116 8
  21703615.758     -331550.658 7   -171912.112 7
  22370106.547       47421.222 6     24791.454 6
  24431619.039       93730.082 4     48762.310 1
 94  1 20 17  0  0.0000000  0  6  1 25 15 21 31 14
  21754723.070       80242.202 7     47072.006 8
  21409389.453     -411655.390 7   -240066.063 8
  21682747.734     -441214.446 7   -257364.407 7
  22373190.086       63620.911 6     37414.535 6
  24437604.148      125164.426 4     73256.509 2
  24963210.648          -0.17713
 94  1 20 17  0 30.0000000  0  6  1 25 15 21 31 14
  21758617.992      100705.283 7     63017.236 9
  21390025.617     -513406.844 7   -319352.877 8
  21661964.508     -550445.806 7   -342479.737 7
  22376306.164       80019.790 6     50192.828 6
  24443596.164      156655.489 4     97794.924 2
  24938963.664     -127425.573 3        -0.03112
 94  1 20 17  1  0.0000000  0  6  1 25 15 21 31 14
  21762540.375      121327.814 7     79086.706 9
  21370743.602     -614720.003 7   -398298.170 8
  21641261.375     -659241.501 7   -427255.596 7
  22379467.406       96609.377 6     63119.738 6
  24449595.688      188173.221 4    122354.115 2
  24914703.578     -254934.406 3    -99357.595 2
 94  1 20 17  1 30.0000000  0  6  1 25 15 21 31 14
  21766491.547      142084.711 7     95260.880 9
  21351547.055     -715600.805 7   -476906.554 8
  21620643.578     -767604.756 7   -511694.482 7
  22382659.148      113388.199 6     76194.096 6
  24455592.617      219707.798 4    146926.456 2
  24890409.953     -382543.064 3   -198792.872 2
 94  1 20 17  2  0.0000000  0  6  1 25 15 21 31 14
  21770466.320      162972.950 7    111537.395 9
  21332429.953     -816062.555 7   -555188.415 8
  21600104.695     -875521.320 7   -595785.295 7
  22385894.063      130386.742 6     89439.659 6
  24461598.172      251274.504 4    171523.817 2
  24866118.117     -510238.271 3   -298295.632 2
 94  1 20 17  2 30.0000000  0  6  1 25 15 21 31 14
  21774467.938      183996.342 7    127919.223 9
  21313392.625     -916112.076 7   -633149.056 8
  21579653.914     -982987.096 7   -679524.847 7
  22389170.867      147617.786 6    102866.391 6
  24467614.500      282889.093 4    196158.489 1
  24841803.586     -638015.319 3   -397862.131 3
 94  1 20 17  3  0.0000000  0  6  1 25 15 21 31 14
  21778490.859      205141.573 7    144395.992 9
  21294439.539    -1015721.191 7   -710766.526 8
  21559287.625    -1090001.046 7   -762912.336 7
  22392495.094      165063.906 6    116460.712 6
  24473643.281      314574.261 4    220848.150 3
  24817463.492     -765883.372 3   -497499.574 1
 94  1 20 17  3 30.0000000  0  6  1 25 15 21 31 14
  21782539.469      226406.738 7    160966.212 9
  21275571.180    -1114865.599 7   -788021.886 9
  21539011.609    -1196558.501 7   -845944.104 7
  22395851.609      182724.758 6    130222.357 6
  24479690.109      346348.441 4    245607.150 2
  24793122.156     -893837.537 3   -597204.103 2
 94  1 20 17  4  0.0000000  0  6  1 25 15 21 31 14
  21786607.664      247793.434 7    177631.132 8
  21256789.133    -1213559.711 7   -864926.368 9
  21518822.031    -1302673.202 7   -928630.872 7
  22399251.344      200573.615 6    144130.506 6
  24485751.344      378180.284 4    270411.091 4
  24768758.555    -1021887.129 3   -696982.961 2
 94  1 20 17  4 30.0000000  0  6  1 25 15 21 31 14
  21790700.977      269310.482 7    194397.619 8
  21238098.023    -1311778.508 7   -941460.467 9
  21498715.453    -1408331.960 7  -1010962.369 7
  22402687.180      218614.694 6    158188.431 6
  24491819.625      410067.516 4    295258.200 2
  24744370.898    -1150028.952 3   -796833.703 2
 94  1 20 17  5  0.0000000  0  6  1 25 15 21 31 14
  21794819.570      290947.617 7    211257.695 8
  21219499.148    -1409522.744 7  -1017624.785 9
  21478697.375    -1513522.962 7  -1092929.379 7
  22406156.453      236861.984 6    172407.038 6
  24497892.742      442006.710 4    320145.784 4
  24719964.313    -1278241.166 3   -896739.294 4
 94  1 20 17  5 30.0000000  0  6  1 25 15 21 31 14
  21798959.961      312702.600 7    228209.595 8
  21200983.383    -1506835.933 7  -1093453.208 9
  21458764.352    -1618255.380 7  -1174539.042 7
  22409668.453      255326.548 6    186794.948 6
  24503975.430      473965.384 3    345048.557 4
  24695562.523    -1406523.436 3   -996699.430 3
 94  1 20 17  6  0.0000000  0  6  1 25 15 21 31 14
  21803123.289      334584.693 7    245260.546 8
  21182547.500    -1603714.517 7  -1168942.996 9
  21438927.367    -1722505.280 7  -1255772.726 7
  22413229.141      274044.942 6    201380.651 6
  24510062.797      505949.397 3    369971.076 3
  24671142.164    -1534859.196 3  -1096701.292 1
 94  1 20 17  6 30.0000000  0  6  1 25 15 21 31 14
  21807308.313      356568.896 7    262391.061 8
  21164188.344    -1700180.437 7  -1244111.223 9
  21419181.695    -1826283.581 7  -1336638.930 7
  22416840.133      293011.888 6    216160.042 6
  24516153.875      537951.117 3    394907.382 4
  24646701.734    -1663272.638 3  -1196763.701 1
 94  1 20 17  7  0.0000000  0  6  1 25 15 21 31 14
  21811510.258      378660.513 7    279605.280 8
  21145912.805    -1796219.465 7  -1318946.810 9
  21399524.602    -1929584.595 7  -1417133.220 7
  22420500.016      312231.559 6    231136.339 6
  24522248.195      569985.054 3    419868.798 4
  24622254.031    -1791754.890 3  -1296879.703 2
 94  1 20 17  7 30.0000000  0  6  1 25 15 21 31 14
  21815742.180      400898.991 7    296933.932 8
  21127730.352    -1891782.022 7  -1393411.117 9
  21379958.836    -2032383.515 7  -1497236.266 7
  22424205.992      331704.904 6    246310.328 6
  24528352.758      602067.257 3    444867.818 2
  24597791.031    -1920293.647 3  -1397039.734 2
 94  1 20 17  8  0.0000000  0  6  1 25 15 21 31 14
  21819997.789      423256.201 7    314355.100 8
  21109636.211    -1986855.932 7  -1467494.664 9
  21360490.641    -2134699.673 7  -1576963.140 7
  22427949.695      351389.933 6    261649.248 6
  24534464.617      634181.284 3    469891.633 3
  24573320.930    -2048910.685 3  -1497260.811 2
 94  1 20 17  8 30.0000000  0  6  1 25 15 21 31 14
  21824276.656      445741.607 7    331876.167 8
  21091640.578    -2081417.036 7  -1541178.616 9
  21341113.914    -2236534.532 7  -1656314.973 8
  22431732.938      371277.442 6    277145.953 6
  24540585.031      666330.373 3    494942.773 3
  24548835.617    -2177597.059 3  -1597535.855 2
 94  1 20 17  9  0.0000000  0  6  1 25 15 21 31 14
  21828583.234      468377.586 7    349514.571 8
  21073749.375    -2175449.291 7  -1614450.471 9
  21321826.266    -2337878.413 7  -1735284.212 8
  22435560.063      391370.079 6    292802.506 6
  24546709.375      698509.954 3    520017.674 3
  24524330.516    -2306341.351 3  -1697856.074 2
 94  1 20 17  9 30.0000000  0  6  1 25 15 21 31 14
  21832920.453      491162.303 7    367268.862 8
  21055951.719    -2268978.553 7  -1687330.396 9
  21302631.414    -2438742.141 7  -1813879.320 8
  22439418.125      411657.873 6    308611.133 6
  24552833.031      730696.962 3    545098.333 3
  24499814.602    -2435163.448 3  -1798236.897 1
 94  1 20 17 10  0.0000000  0  6  1 25 15 21 31 14
  21837281.641      514092.398 7    385136.427 8
  21038244.109    -2362021.755 7  -1759831.575 9
  21283529.258    -2539128.570 7  -1892102.506 8
  22443320.039      432157.878 6    324585.092 6
  24558962.727      762895.285 3    570187.844 2
  24475286.641    -2564068.170 4  -1898682.115 2
 94  1 20 17 10 30.0000000  0  6  1 25 15 21 31 14
  21841675.867      537179.011 7    403125.960 8
  21020628.258    -2454589.557 7  -1831962.321 9
  21264523.648    -2639027.196 7  -1969945.591 8
  22447265.797      452887.890 6    340738.289 6
  24565092.352      795112.464 3    595292.031 2
  24450744.016    -2693046.216 4  -1999184.461 2
 94  1 20 17 11  0.0000000  0  6  1 25 15 21 31 14
  21846096.227      560405.140 7    421224.211 8
  21003103.102    -2546696.599 7  -1903734.026 9
  21245602.047    -2738441.140 7  -2047410.994 8
  22451250.672      473835.635 6    357061.151 6
  24571219.555      827338.383 3    620403.025 2
  24426187.953    -2822102.814 3  -2099748.003 3
 94  1 20 17 11 30.0000000  0  6  1 25 15 21 31 14
  21850539.063      583748.039 7    439413.456 8
  20985667.047    -2638335.811 7  -1975141.194 9
  21226777.648    -2837365.602 7  -2124494.980 8
  22455277.000      495010.610 6    373561.071 6
  24577354.164      859579.415 3    645525.835 1
  24401617.594    -2951219.868 4  -2200358.675 4
 94  1 20 17 12  0.0000000  0  6  1 25 15 21 31 14
  21855000.039      607192.489 7    457681.802 7
  20968316.391    -2729498.574 7  -2046177.109 8
  21208051.000    -2935781.097 7  -2201182.383 7
  22459358.328      516427.894 6    390249.801 5
  24583498.789      891846.954 4    670669.270 1
  24377038.867    -3080368.809 4  -2300994.171 3
 94  1 20 17 12 29.9990000  0  6  1 25 15 21 31 14
  21859476.464      630716.669 7    476012.295 8
  20951056.792    -2820197.707 7  -2116851.747 9
  21189421.081    -3033690.632 7  -2277475.517 8
  22463474.636      538066.817 6    407111.246 6
  24589644.425      924116.613 3    695814.350 1
  24352454.675    -3209542.128 4  -2401648.632 3
 94  1 20 17 12 59.9990000  0  6  1 25 15 21 31 14
  21863969.542      654322.275 7    494406.236 8
  20933890.495    -2910417.755 7  -2187153.075 9
  21170881.159    -3131090.051 7  -2353371.159 8
  22467633.112      559927.779 6    424145.696 6
  24595781.870      956391.030 3    720963.152 2
  24327866.550    -3338741.192 4  -2502323.210 4
 94  1 20 17 13 29.9990000  0  6  1 25 15 21 31 14
  21868475.839      678006.027 7    512861.062 8
  20916810.354    -3000161.361 7  -2257083.152 9
  21152447.964    -3227975.884 7  -2428866.605 8
  22471834.894      582016.050 6    441357.270 6
  24601925.011      988662.663 4    746109.781 1
  24303279.659    -3467977.248 4  -2603026.581 2
 94  1 20 17 13 59.9990000  0  6  1 25 15 21 31 14
  21873001.706      701790.150 7    531394.097 8
  20899826.456    -3089414.164 7  -2326630.787 9
  21134109.698    -3324338.045 7  -2503953.997 8
  22476080.855      604328.271 6    458743.351 6
  24608063.276     1020937.790 4    771259.135 1
  24278679.042    -3597252.263 4  -2703760.309 1
 94  1 20 17 14 29.9990000  0  6  1 25 15 21 31 14
  21877548.151      725684.691 7    550013.173 8
  20882940.659    -3178158.768 7  -2395782.413 9
  21115870.081    -3420183.082 7  -2578638.434 8
  22480372.433      626859.428 6    476300.037 6
  24614209.573     1053214.395 4    796409.651 2
  24254067.159    -3726590.254 4  -2804543.112 3
 94  1 20 17 14 59.9990000  0  6  1 25 15 21 31 14
  21882119.198      749707.017 7    568731.827 8
  20866153.644    -3266364.185 7  -2464513.901 9
  21097735.995    -3515493.773 7  -2652906.503 8
  22484708.245      649627.761 6    494041.522 6
  24620350.636     1085507.271 3    821572.799 1
  24229440.761    -3855998.202 4  -2905380.434 4
 94  1 20 17 15 29.9990000  0  6  1 25 15 21 31 14
  21886714.089      773847.685 7    587542.692 8
  20849469.815    -3354047.318 7  -2532838.412 9
  21079696.073    -3610282.672 7  -2726767.976 8
  22489081.753      672624.300 6    511960.840 6
  24626497.776     1117801.017 3    846736.645 2
  24204801.347    -3985487.799 4  -3006281.383 4
 94  1 20 17 15 59.9990000  0  6  1 25 15 21 31 14
  21891333.800      798122.791 7    606458.304 8
  20832884.409    -3441200.973 7  -2600750.337 9
  21061759.206    -3704544.518 7  -2800218.753 8
  22493496.604      695839.815 6    530050.788 6
  24632649.425     1150102.465 3    871906.501 1
  24180148.808    -4115041.051 4  -3107231.926 2
 94  1 20 17 16 29.9990000  0  6  1 25 15 21 31 14
  21895976.690      822530.759 7    625477.448 8
  20816399.479    -3527826.721 7  -2668250.905 9
  21043924.136    -3798275.427 7  -2873255.826 8
  22497960.479      719282.054 6    548317.404 6
  24638792.636     1182403.181 3    897075.810 2
  24155484.214    -4244655.691 4  -3208230.298 3
 94  1 20 17 16 59.9990000  0  6  1 25 15 21 31 14
  21900648.698      847069.759 7    644598.704 8
  20800017.628    -3613932.063 7  -2735345.959 9
  21026187.214    -3891468.217 7  -2945873.583 8
  22502461.878      742953.040 6    566762.256 6
  24644935.151     1214705.570 3    922246.366 3
  24130811.003    -4374302.667 5  -3309253.872 3
 94  1 20 17 17 29.9990000  0  6  1 25 15 21 31 14
  21905340.183      871729.184 7    663813.805 8
  20783721.870    -3699542.676 7  -2802055.514 9
  21008559.175    -3984127.109 7  -3018075.320 8
  22507012.831      766847.797 6    585381.479 6
  24651081.886     1247007.416 3    947416.540 2
  24106140.815    -4503963.141 4  -3410287.955 3
 94  1 20 17 17 59.9990000  0  6  1 25 15 21 31 14
  21910053.136      896494.275 7    683111.239 8
  20767527.019    -3784664.889 7  -2868384.495 9
  20991023.409    -4076257.749 7  -3089865.427 8
  22511599.456      790968.223 6    604176.557 6
  24657226.144     1279288.747 3    972570.716 2
  24081460.058    -4633652.945 5  -3511344.880 4
 94  1 20 17 18 29.9990000  0  6  1 25 15 21 31 14
  21914783.042      921347.101 7    702477.030 8
  20751418.604    -3869297.973 7  -2934332.335 9
  20973595.644    -4167859.941 7  -3161243.752 8
  22516238.550      815333.317 6    623162.285 6
  24663365.581     1311548.617 3    997708.170 3
  24056773.808    -4763381.171 5  -3612431.781 3
 94  1 20 17 18 59.9990000  0  6  1 25 15 21 31 14
  21919530.136      946301.488 7    721921.970 8
  20735410.847    -3953438.058 7  -2999896.022 9
  20956263.972    -4258919.277 7  -3232199.077 8
  22520929.331      839953.628 6    642346.882 6
  24669502.433     1343789.537 3   1022830.834 4
  24032080.183    -4893135.991 5  -3713539.383 4
 94  1 20 17 19 29.9990000  0  5  1 25 15 21 14
  21924296.831      971349.719 7
  20719490.620    -4037081.797 7  -3065072.949 9
  20939041.331    -4349442.488 7  -3302736.645 8
  22525652.894      864812.647 6
  24007381.542    -5022949.824 5  -3814692.981 3
 94  1 20 17 19 59.9990000  0  5  1 25 15 21 14
  21929084.440      996503.292 7
  20703675.761    -4120206.228 7  -3129845.214 9
  20921914.565    -4439422.624 7  -3372851.035 8
  22530432.870      889918.036 6
  23982663.948    -5152829.011 5  -3915897.472 2
 94  1 20 17 20 29.9990000  0  5  1 25 15 21 14
  21933889.573     1021757.607 7
  20687952.690    -4202811.656 7  -3194213.072 9
  20904900.597    -4528857.064 7  -3442540.208 8
  22535251.354      915254.734 6
  23957939.519    -5282757.127 5  -4017140.125 3
 94  1 20 17 20 59.9990000  0  5  1 25 15 21 14
  21938712.909     1047104.924 7    800469.952 8
  20672336.300    -4284891.345 7  -3258171.255 9
  20887983.042    -4617740.498 7  -3511800.028 8
  22540115.526      940804.257 6    720931.534 6
  23933211.956    -5412719.026 5  -4118409.098 4
 94  1 20 17 21 29.9990000  0  5  1 25 15 21 14
  21943551.604     1072529.855 7    820281.547 8
  20656817.464    -4366437.006 7  -3321713.320 9
  20871175.714    -4706079.924 7  -3580635.945 8
  22545016.761      966556.455 6    740998.110 6
  23908469.323    -5542717.273 5  -4219706.366 4
 94  1 20 17 21 59.9990000  0  5  1 25 15 21 14
  21948404.776     1098022.120 7    840145.611 8
  20641400.339    -4447454.291 7  -3384843.665 9
  20854468.159    -4793873.216 7  -3649046.304 8
  22549955.409      992519.618 6    761229.079 6
  23883727.144    -5672735.162 5  -4321018.962 3
 94  1 20 17 22 29.9990000  0  5  1 25 15 21 14
  21953265.972     1123581.560 7    860062.026 7
  20626090.089    -4527924.476 7  -3447547.700 9
  20837865.628    -4881105.817 7  -3717019.760 8
  22554937.636     1018691.673 6    781622.814 5
  23858987.854    -5802753.372 5  -4422331.831 5
 94  1 20 17 22 59.9990000  0  5  1 25 15 21 14
  21958143.753     1149206.666 7    880029.612 7
  20610876.511    -4607852.379 7  -3509829.177 9
  20821376.237    -4967786.464 7  -3784563.133 8
  22559955.097     1045072.587 6    802179.309 5
  23834241.034    -5932800.596 5  -4523667.264 3
 94  1 20 17 23 29.9990000  0  5  1 25 15 21 14
  21963037.073     1174930.252 7    900073.923 7
  20595775.081    -4687224.487 7  -3571677.569 9
  20804983.589    -5053899.602 7  -3851664.282 8
  22565020.995     1071690.043 6    822920.120 5
  23809486.784    -6062873.972 5  -4625023.097 4
 94  1 20 17 23 59.9990000  0  5  1 25 15 21 14
  21967950.136     1200740.216 7    920185.544 7
  20580771.440    -4766069.086 7  -3633114.908 9
  20788705.026    -5139458.352 7  -3918333.440 8
  22570129.901     1098536.546 6    843839.416 5
  23784727.073    -6192987.773 5  -4726410.458 4
 94  1 20 17 24 29.9990000  0  5  1 25 15 21 14
  21972883.198     1226661.951 7    940384.255 7
  20565865.440    -4844389.025 7  -3694143.430 9
  20772531.987    -5224454.977 7  -3984564.579 8
  22575283.550     1125622.001 6    864944.905 5
  23759960.753    -6323145.558 5  -4827832.043 4
 94  1 20 17 24 59.9990000  0  5  1 25 15 21 14
  21977835.034     1252691.242 7    960666.777 7
  20551058.183    -4922210.686 7  -3754783.676 9
  20756459.378    -5308900.861 7  -4050366.568 8
  22580484.081     1152948.342 6    886238.087 5
  23735178.425    -6453370.372 5  -4929305.870 5
 94  1 20 17 25 29.9990000  0  5  1 25 15 21 14
  21982811.956     1278841.859 7    981043.840 7
  20536345.745    -4999531.116 7  -3815033.354 9
  20740497.815    -5392779.155 7  -4115726.280 8
  22585735.722     1180531.823 6    907731.638 5
  23710391.792    -6583631.180 5  -5030807.777 4
 94  1 20 17 25 59.9990000  0  5  1 25 15 21 14
  21987811.683     1305116.672 7   1001517.682 7
  20521727.565    -5076342.077 7  -3874886.057 9
  20724649.933    -5476078.842 7  -4180635.133 8
  22591030.753     1208373.250 6    929426.183 5
  23685598.901    -6713910.931 5  -5132324.419 4
 94  1 20 17 26 29.9990000  0  5  1 25 15 21 14
  21992830.651     1331491.820 7   1022069.690 7
  20507206.956    -5152637.362 7  -3934336.920 9
  20708908.362    -5558809.633 7  -4245100.694 8
  22596379.659     1236456.744 6    951309.350 5
  23660800.276    -6844221.454 5  -5233865.061 4
 94  1 20 17 26 59.9990000  0  5  1 25 15 21 14
  21997863.464     1357931.233 7   1042671.791 7
  20492789.339    -5228406.408 7  -3993377.738 9
  20693270.003    -5640980.478 7  -4309129.932 8
  22601760.284     1264765.213 6    973367.819 5
  23635999.081    -6974562.385 5  -5335429.381 5
 94  1 20 17 27 29.9990000  0  5  1 25 15 21 14
  22002906.401     1384440.632 7   1063328.407 7
  20478477.128    -5303622.710 7  -4051987.843 9
  20677740.597    -5722575.807 7  -4372710.712 8
  22607194.183     1293303.113 6    995605.066 5
  23611195.261    -7104909.827 5  -5436998.783 5
 94  1 20 17 27 59.9990000  0  5  1 25 15 21 14
  22007960.065     1410999.889 7   1084023.875 7
  20464276.073    -5378265.981 7  -4110151.435 9
  20662321.964    -5803594.658 7  -4435842.287 8
  22612668.058     1322053.857 6   1018008.159 5
  23586383.136    -7235279.829 5  -5538585.783 5
 94  1 20 17 28 29.9990000  0  5  1 25 15 21 14
  22013026.206     1437613.617 7   1104761.795 7
  20450183.448    -5452319.153 7  -4167855.205 9
  20647016.378    -5884028.932 7  -4498518.348 8
  22618178.792     1351032.634 6   1040588.950 5
  23561570.253    -7365672.588 5  -5640190.493 5
 94  1 20 17 28 59.9990000  0  5  1 25 15 21 14
  22018104.386     1464294.277 7   1125551.873 7
  20436199.214    -5525802.357 7  -4225114.845 9
  20631821.784    -5963887.226 7  -4560745.596 8
  22623732.831     1380228.051 5   1063338.548 5
  23536753.722    -7496100.871 5  -5741822.881 5
 94  1 20 17 29 29.9980000  0  5  1 25 15 21 14
  22023196.506     1491064.137 7   1146411.452 7
  20422323.248    -5598714.322 7  -4281929.361 9
  20616738.162    -6043155.614 7  -4622513.172 8
  22629336.373     1409651.989 5   1086266.196 5
  23511929.475    -7626553.458 5  -5843474.205 5
 94  1 20 17 29 59.9980000  0  6  1 25 15 21 29 14
  22028307.107     1517924.374 7   1167341.441 7
  20408553.654    -5671068.914 7  -4338309.559 9
  20601767.404    -6121839.142 7  -4683825.020 8
  22634978.014     1439307.687 5   1109374.449 5
  24349768.146          -0.07314
  23487100.318    -7757032.113 5  -5945145.843 5
 94  1 20 17 30 29.9980000  0  6  1 25 15 21 29 14
  22033439.561     1544894.655 7   1188357.186 7
  20394886.803    -5742890.063 7  -4394274.101 9
  20586906.654    -6199934.527 7  -4744678.574 8
  22640663.303     1469204.049 5   1132670.243 5
  24326363.873     -122952.129 3        -0.41313
  23462268.162    -7887512.203 5  -6046818.607 5
 94  1 20 17 30 59.9980000  0  6  1 25 15 21 29 14
  22038590.975     1571963.057 7   1209449.390 7
  20381316.803    -5814202.884 7  -4449842.534 9
  20572155.850    -6277443.056 7  -4805074.833 8
  22646400.248     1499325.496 5   1156141.414 5
  24302999.826     -245755.231 3    -95691.114 2
  23437436.740    -8017993.141 5  -6148492.021 5
 94  1 20 17 31 29.9980000  0  6  1 25 15 21 29 14
  22043759.061     1599117.078 7   1230608.308 7
  20367842.732    -5884998.287 7  -4505007.786 9
  20557521.162    -6354350.417 7  -4865002.656 8
  22652177.506     1529688.080 5   1179800.483 5
  24279663.490     -368398.904 3   -191257.535 1
  23412612.592    -8148464.749 5  -6250158.184 5
 94  1 20 17 31 59.9980000  0  6  1 25 15 21 29 14
  22048939.904     1626343.919 7   1251823.975 7
  20354469.615    -5955279.667 7  -4559772.498 9
  20542999.631    -6430663.340 7  -4924467.281 8
  22658000.842     1560284.312 5   1203641.620 5
  24256351.162     -490893.253 3   -286707.646 1
  23387783.568    -8278941.742 5  -6351828.536 5
 94  1 20 17 32 29.9980000  0  6  1 25 15 21 29 14
  22054137.092     1653654.244 7   1273104.695 7
  20341199.756    -6025022.331 7  -4614117.427 9
  20528590.631    -6506373.654 7  -4983462.340 8
  22663866.639     1591128.583 5   1227676.034 5
  24233067.279     -613237.851 3   -382041.107 1
  23362950.732    -8409431.028 5  -6453508.470 5
 94  1 20 17 32 59.9980000  0  6  1 25 15 21 29 14
  22059344.553     1681021.293 7   1294429.608 7
  20328035.865    -6094203.710 7  -4668024.983 9
  20514295.600    -6581488.772 7  -5041993.611 8
  22669783.514     1622212.418 5   1251897.106 5
  24209810.334     -735463.909 3   -477282.207 1
  23338114.076    -8539961.500 5  -6555220.504 4
 94  1 20 17 33 29.9980000  0  6  1 25 15 21 29 14
  22064566.006     1708457.080 7   1315808.078 7
  20314984.936    -6162794.880 7  -4721472.647 9
  20500114.553    -6656000.004 7  -5100054.319 8
  22675749.670     1653550.760 5   1276316.510 5
  24186574.428     -857577.404 3   -572435.611 2
  23313269.779    -8670514.543 5  -6656950.131 3
 94  1 20 17 33 59.9980000  0  6  1 25 15 21 29 14
  22069802.029     1735976.656 7   1337251.848 7
  20302045.857    -6230785.685 7  -4774452.493 9
  20486051.287    -6729906.464 7  -5157643.781 9
  22681757.811     1685133.050 5   1300925.986 5
  24163359.029     -979574.759 3   -667498.482 2
  23288423.928    -8801073.409 5  -6758684.294 5
 94  1 20 17 34 29.9980000  0  6  1 25 15 21 29 14
  22075056.084     1763577.158 7   1358758.676 7
  20289217.693    -6298185.442 7  -4826971.777 9
  20472105.443    -6803205.603 7  -5214760.003 9
  22687813.139     1716958.086 5   1325724.628 5
  24140160.920    -1101453.382 3   -762468.817 3
  23263583.381    -8931627.273 5  -6860414.525 5
 94  1 20 17 34 59.9980000  0  6  1 25 15 21 29 14
  22080320.186     1791243.315 7   1380316.665 7
  20276499.029    -6365024.055 7  -4879053.806 9
  20458272.303    -6875907.299 7  -5271410.693 9
  22693910.982     1749007.701 5   1350698.275 5
  24116998.850    -1223204.134 3   -857339.522 4
  23238738.990    -9062178.896 5  -6962143.050 4
 94  1 20 17 35 29.9980000  0  6  1 25 15 21 29 14
  22085601.022     1818993.624 7   1401940.234 7
  20263884.607    -6431316.510 7  -4930710.262 9
  20444549.811    -6948007.513 7  -5327592.686 9
  22700053.271     1781291.464 5   1375854.377 5
  24093856.873    -1344802.202 3   -952091.240 5
  23213900.389    -9192703.367 5  -7063850.398 5
 94  1 20 17 35 59.9980000  0  6  1 25 15 21 29 14
  22090897.725     1846833.707 7   1423633.752 7
  20251375.443    -6497066.101 7  -4981943.701 9
  20430942.459    -7019501.377 7  -5383302.206 9
  22706243.311     1813811.135 5   1401194.280 5
  24070748.264    -1466246.558 3  -1046723.189 5
  23189065.584    -9323210.265 5  -7165544.069 5
 94  1 20 17 36 29.9980000  0  6  1 25 15 21 29 14
  22096211.217     1874752.163 7   1445388.338 7
  20238963.920    -6562272.342 7  -5032753.758 9
  20417456.545    -7090387.822 7  -5438538.407 9
  22712479.014     1846572.961 5   1426722.877 5
  24047665.740    -1587540.468 4  -1141237.914 3
  23164231.053    -9453716.875 5  -7267237.485 5
 94  1 20 17 36 59.9980000  0  6  1 25 15 21 29 14
  22101539.545     1902753.830 7   1467207.755 7
  20226661.631    -6626922.936 7  -5083130.848 9
  20404084.686    -7160665.022 7  -5493299.872 8
  22718757.998     1879571.142 5   1452435.664 5
  24024613.490    -1708684.507 4  -1235635.858 3
  23139396.334    -9584223.331 5  -7368930.807 5
 94  1 20 17 37 29.9980000  0  6  1 25 15 21 29 14
  22106882.717     1930836.171 6   1489090.032 6
  20214470.420    -6690999.831 7  -5133060.897 8
  20390824.365    -7230323.953 7  -5547579.575 8
  22725083.881     1912804.895 5   1478331.964 5
  24001586.381    -1829681.846 3  -1329919.522 1
  23114563.428    -9714720.625 3  -7470617.020 1
 94  1 20 17 37 59.9980000  0  6  1 25 15 21 29 14
  22112238.943     1958977.803 7   1511018.526 7
  20202384.443    -6754492.896 7  -5182536.001 9
  20377691.193    -7299366.026 7  -5601378.603 9
  22731449.506     1946264.063 5   1504403.968 5
  23978587.006    -1950536.215 3  -1424091.685 4
  23089728.803    -9845224.981 5  -7572308.695 5
 94  1 20 17 38 29.9980000  0  6  1 25 15 21 29 14
  22117602.717     1987161.610 7   1532979.875 7
  20190415.170    -6817412.479 7  -5231564.260 9
  20364663.787    -7367802.435 7  -5654705.689 8
  22737856.475     1979942.379 5   1530646.708 5
  23955616.717    -2071242.622 4  -1518148.601 4
  23064896.561    -9975737.220 5  -7674006.509 5
 94  1 20 17 38 59.9980000  0  6  1 25 15 21 29 14
  22122974.076     2015392.766 7   1554978.117 7
  20178548.389    -6879758.513 7  -5280145.586 9
  20351759.904    -7435629.715 7  -5707558.130 9
  22744311.459     2013844.091 5   1557063.533 5
  23932684.490    -2191788.565 4  -1612080.450 4
  23040060.959   -10106244.321 5  -7775700.317 4
 94  1 20 17 39 29.9980000  0  6  1 25 15 21 29 14
  22128357.217     2043673.271 7   1577014.813 6
  20166793.975    -6941531.821 7  -5328280.639 9
  20338969.646    -7502838.892 7  -5759928.933 9
  22750808.631     2047982.252 5   1583664.584 5
  23909781.490    -2312162.101 4  -1705877.929 4
  23015227.045   -10236740.961 5  -7877386.022 5
 94  1 20 17 39 59.9980000  0  6  1 25 15 21 29 14
  22133746.553     2071990.811 7   1599080.367 6
  20155142.295    -7002759.963 7  -5375990.892 9
  20326294.264    -7569444.777 7  -5811829.635 9
  22757342.850     2082339.793 5   1610436.562 5
  23886897.061    -2432379.072 3  -1799553.443 3
  22990390.998   -10367242.553 5  -7979075.564 5
 94  1 20 17 40 29.9980000  0  6  1 25 15 21 29 14
  22139142.451     2100350.135 7   1621178.481 6
  20143593.826    -7063455.835 7  -5423286.390 9
  20313735.279    -7635440.061 7  -5863254.546 8
  22763921.357     2116905.921 5   1637371.103 5
  23864048.779    -2552435.303 3  -1893103.696 4
  22965560.170   -10497738.564 5  -8080760.744 5
 94  1 20 17 40 59.9980000  0  6  1 25 15 21 29 14
  22144547.287     2128756.862 7   1643313.531 6
  20132142.779    -7123615.452 7  -5470164.023 9
  20301299.646    -7700812.249 7  -5914193.932 8
  22770540.959     2151684.265 5   1664470.991 5
  23841239.607    -2672336.366 4  -1986533.004 4
  22940728.936   -10628233.141 5  -8182444.818 4
 94  1 20 17 41 29.9980000  0  6  1 25 15 21 29 14
  22149958.170     2157199.344 7   1665476.443 6
  20120798.646    -7183248.727 7  -5516631.530 9
  20288971.287    -7765569.426 7  -5964654.082 9
  22777200.482     2186665.715 5   1691729.155 5
  23818442.045    -2792112.684 4  -2079865.097 3
  22915895.889   -10758735.223 5  -8284134.726 5
 94  1 20 17 41 59.9980000  0  6  1 25 15 21 29 14
  22155382.193     2185688.985 7   1687676.090 6
  20109554.584    -7242331.929 7  -5562670.404 9
  20276767.545    -7829706.297 7  -6014630.878 9
  22783896.436     2221868.324 5   1719159.667 5
  23795671.139    -2911771.076 3  -2173105.332 2
  22891061.100   -10889234.183 5  -8385822.225 5
 94  1 20 17 42 29.9980000  0  6  1 25 15 21 29 14
  22160814.014     2214237.393 7   1709921.538 6
  20098416.818    -7300848.470 7  -5608267.730 9
  20264685.732    -7893218.682 7  -6064121.068 9
  22790643.186     2257319.031 5   1746783.485 5
  23772922.053    -3031310.665 4  -2266253.003 2
  22866230.982   -11019726.011 5  -8487504.164 5
 94  1 20 17 42 59.9980000  0  6  1 25 15 21 29 14
  22166259.826     2242856.968 6   1732222.433 6
  20087391.623    -7358785.807 7  -5653413.724 9
  20252715.982    -7956109.447 7  -6113126.873 9
  22797438.584     2293039.571 5   1774617.567 5
  23750201.100    -3150737.843 5  -2359313.092 3
  22841403.490   -11150195.618 5  -8589168.750 5
 94  1 20 17 43 29.9980000  0  6  1 25 15 21 29 14
  22171722.178     2271558.437 6   1754587.144 6
  20076483.326    -7416121.866 7  -5698091.193 9
  20240865.889    -8018372.491 7  -6161643.547 9
  22804290.154     2329031.841 5   1802663.371 5
  23727499.295    -3270033.667 4  -2452270.794 2
  22816582.037   -11280615.080 5  -8690794.290 5
 94  1 20 17 43 59.9980000  0  6  1 25 15 21 29 14
  22177198.928     2300342.940 6   1777016.550 6
  20065689.326    -7472852.204 7  -5742296.672 9
  20229135.412    -8080006.247 7  -6209669.867 9
  22811190.326     2365291.620 5   1830917.624 5
  23704823.381    -3389171.904 4  -2545105.696 3
  22791775.357   -11410982.596 5  -8792379.350 5
 94  1 20 17 44 29.9980000  0  6  1 25 15 21 29 14
  22182690.951     2329204.076 6   1799505.671 6
  20055005.662    -7528996.885 7  -5786045.788 9
  20217527.904    -8141007.764 7  -6257203.529 9
  22818139.193     2401794.363 5   1859361.213 5
  23682184.217    -3508131.043 4  -2637801.060 3
  22766976.201   -11541301.669 5  -8893926.668 5
 94  1 20 17 44 59.9980000  0  6  1 25 15 21 29 14
  22188197.068     2358134.937 6   1822049.120 6
  20044430.975    -7584554.155 7  -5829337.182 9
  20206043.740    -8201373.769 7  -6304241.992 9
  22825122.592     2438522.569 5   1887980.479 5
  23659585.975    -3626912.998 5  -2730358.336 4
  22742187.287   -11671580.239 6  -8995442.430 5
 94  1 20 17 45 29.9980000  0  6  1 25 15 21 29 14
  22193713.818     2387128.643 6   1844641.536 7
  20033968.537    -7639526.540 7  -5872172.822 9
  20194679.279    -8261102.939 7  -6350784.213 8
  22832151.248     2475465.084 5   1916766.731 2
  23637019.482    -3745518.143 5  -2822777.832 2
  22717396.889   -11801841.855 5  -9096944.989 5
 94  1 20 17 45 59.9980000  0  6  1 25 15 21 29 14
  22199243.295     2416180.506 6   1867279.274 6
  20023616.115    -7693930.034 7  -5914565.172 9
  20183432.701    -8320201.974 7  -6396835.422 9
  22839224.943     2512623.767 5   1945721.413 5
  23614475.365    -3863968.244 4  -2915076.559 2
  22692606.623   -11932114.108 5  -9198455.815 5
 94  1 20 17 46 29.9980000  0  6  1 25 15 21 29 14
  22204780.232     2445280.278 6   1889954.338 6
  20013369.631    -7747780.340 7  -5956526.459 9
  20172304.928    -8378680.657 7  -6442403.244 9
  22846335.271     2549986.332 5   1974834.988 5
  23591955.076    -3982293.521 4  -3007278.024 4
  22667815.772   -12062405.426 5  -9299981.521 5
 94  1 20 17 46 59.9970000  0  6  1 25 15 21 29 14
  22210330.454     2474446.842 6   1912681.441 6
  20003235.368    -7801032.555 7  -5998021.706 9
  20161300.431    -8436508.601 7  -6487463.997 9
  22853493.688     2587590.977 5   2004137.173 4
  23569468.501    -4100483.962 5  -3099374.421 3
  22643026.720   -12192672.391 5  -9401488.218 5
 94  1 20 17 47 29.9970000  0  6  1 25 15 21 29 14
  22215893.415     2503684.113 6   1935463.643 6
  19993214.321    -7853699.473 7  -6039060.871 9
  20150418.149    -8493695.798 7  -6532025.455 9
  22860695.392     2625433.266 5   2033624.552 5
  23547004.962    -4218536.337 4  -3191363.218 3
  22618241.876   -12322916.160 5  -9502976.859 5
 94  1 20 17 47 59.9970000  0  6  1 25 15 21 29 14
  22221466.165     2532969.674 6   1958283.485 6
  19983299.321    -7905806.695 7  -6079663.912 9
  20139652.259    -8550253.665 7  -6576096.532 9
  22867935.970     2663495.174 5   2063283.061 5
  23524562.767    -4336455.844 4  -3283248.465 4
  22593463.360   -12453132.195 5  -9604443.880 5
 94  1 20 17 48 29.9970000  0  6  1 25 15 21 29 14
  22227047.985     2562299.186 6   1981137.561 6
  19973492.962    -7957349.723 7  -6119827.322 9
  20129008.493    -8606174.518 7  -6619671.240 9
  22875219.759     2701778.231 5   2093113.887 5
  23502154.298    -4454228.799 5  -3375019.520 4
  22568692.993   -12583293.041 6  -9705867.914 5
 94  1 20 17 48 59.9970000  0  6  1 25 15 21 29 14
  22232638.454     2591672.442 6   2004025.727 6
  19963788.860    -8008336.038 7  -6159556.932 9
  20118488.376    -8661463.271 7  -6662753.401 8
  22882548.782     2740280.541 5   2123115.566 5
  23479770.907    -4571844.619 5  -3466668.150 5
  22543932.454   -12713408.439 6  -9807256.526 5
 94  1 20 17 49 29.9970000  0  6  1 25 15 21 29 14
  22238239.688     2621103.533 6   2026958.965 6
  19954188.282    -8058777.230 7  -6198861.769 9
  20108092.415    -8716118.013 7  -6705341.526 8
  22889916.946     2779006.992 5   2153291.894 5
  23457421.157    -4689285.821 5  -3558180.705 4
  22519179.509   -12843479.666 6  -9908610.714 5
 94  1 20 17 49 59.9970000  0  6  1 25 15 21 29 14
  22243847.438     2650574.164 6   2049923.017 6
  19944696.079    -8108665.986 7  -6237736.143 9
  20097812.134    -8770137.576 7  -6747434.708 8
  22897333.501     2817966.305 5   2183649.688 5
  23435103.767    -4806568.870 5  -3649570.052 3
  22494438.478   -12973502.340 5 -10009927.090 5
 94  1 20 17 50 29.9970000  0  6  1 25 15 21 29 14
  22249463.657     2680086.976 6   2072919.948 6
  19935314.142    -8157979.850 7  -6276162.545 9
  20087648.923    -8823519.484 7  -6789031.015 8
  22904791.439     2857164.280 5   2214193.412 4
  23412815.548    -4923693.810 4  -3740836.187 5
  22469704.696   -13103471.828 6 -10111202.002 6
 94  1 20 17 50 59.9970000  0  6  1 25 15 21 29 14
  22255087.462     2709638.172 6   2095946.774 6
  19926034.985    -8206723.809 7  -6314144.868 9
  20077617.806    -8876272.057 7  -6830136.928 8
  22912294.009     2896592.403 5   2244916.492 2
  23390554.337    -5040670.078 4  -3831986.463 5
  22444980.540   -13233399.145 6 -10212444.065 6
 94  1 20 17 51 29.9970000  0  6  1 25 15 21 29 14
  22260716.618     2739224.380 6   2119000.875 6
  19916877.204    -8254873.055 7  -6351663.778 9
  20067694.579    -8928383.418 7  -6870743.203 8
  22919846.892     2936268.283 5   2275832.649 4
  23368325.790    -5157500.403 5  -3923023.019 5
  22420268.954   -13363269.536 6 -10313641.758 5
 94  1 20 17 51 59.9970000  0  6  1 25 15 21 29 14
  22266349.954     2768829.060 6   2142069.382 6
  19907824.626    -8302426.795 7  -6388718.657 9
  20057904.267    -8979861.219 7  -6910855.790 8
  22927434.501     2976174.809 5   2306928.512 4
  23346117.923    -5274201.029 5  -4013958.528 5
  22395565.149   -13493090.891 6 -10414801.254 6
 94  1 20 17 52 29.9970000  0  6  1 25 15 21 29 14
  22271988.829     2798464.789 6   2165162.086 6
  19898887.985    -8349398.767 7  -6425320.211 9
  20048225.439    -9030705.179 7  -6950474.476 8
  22935071.735     3016305.745 5   2338199.243 3
  23323934.821    -5390765.245 4  -4104787.743 4
  22370866.079   -13622875.597 6 -10515932.173 6
 94  1 20 17 52 59.9970000  0  6  1 25 15 21 29 14
  22277632.915     2828128.604 6   2188276.681 6
  19890054.954    -8395803.804 7  -6461479.997 9
  20038673.212    -9080915.876 7  -6989599.709 9
  22942754.079     3056658.631 5   2369642.908 2
  23301777.032    -5507195.967 5  -4195512.965 4
  22346173.501   -13752630.675 6 -10617040.013 6
 94  1 20 17 53 29.9970000  0  6  1 25 15 21 29 14
  22283285.532     2857826.166 6   2211417.579 6
  19881334.532    -8441644.355 7  -6497199.928 9
  20029235.181    -9130487.654 7  -7028227.085 9
  22950472.673     3097233.679 5   2401259.702 4
  23279650.118    -5623480.115 5  -4286123.972 3
  22321489.064   -13882356.696 6 -10718125.231 5
 94  1 20 17 53 59.9970000  0  6  1 25 15 21 29 14
  22288946.110     2887570.148 6   2234594.644 6
  19872712.962    -8486937.395 7  -6532493.223 9
  20019929.978    -9179420.888 7  -7066356.890 9
  22958239.071     3138023.012 5   2433043.460 4
  23257552.126    -5739616.223 5  -4376619.638 4
  22296809.790   -14012048.073 6 -10819183.445 6
 94  1 20 17 54 29.9970000  0  6  1 25 15 21 29 14
  22294615.696     2917364.148 6   2257810.683 6
  19864198.704    -8531685.407 7  -6567361.820 9
  20010737.462    -9227710.936 7  -7103985.518 9
  22966038.040     3179033.252 5   2464999.361 4
  23235480.587    -5855599.181 5  -4466995.965 5
  22272139.071   -14141698.273 6 -10920209.559 6
 94  1 20 17 54 59.9970000  0  6  1 25 15 21 29 14
  22300294.899     2947209.571 6   2281066.796 6
  19855790.228    -8575883.639 7  -6601802.019 9
  20001666.954    -9275359.107 7  -7141113.979 9
  22973887.032     3220259.024 5   2497123.213 4
  23213439.899    -5971425.591 5  -4557250.271 5
  22247476.079   -14271293.663 6 -11021192.968 5
 94  1 20 17 55 29.9970000  0  6  1 25 15 21 29 14
  22305985.657     2977110.830 6   2304366.425 6
  19847483.618    -8619533.283 7  -6635814.748 9
  19992722.649    -9322369.403 7  -7177745.397 9
  22981771.220     3261690.530 5   2529407.355 3
  23191429.001    -6087097.124 5  -4647383.900 5
  22222825.235   -14400838.038 6 -11122136.624 5
 94  1 20 17 55 59.9970000  0  6  1 25 15 21 29 14
  22311683.509     3007051.670 6   2327696.892 6
  19839282.259    -8662626.083 7  -6669393.574 9
  19983900.634    -9368745.039 7  -7213882.274 9
  22989690.478     3303323.212 5   2561848.277 2
  23169445.548    -6202615.930 5  -4737398.541 5
  22198182.938   -14530329.420 6 -11223038.977 6
 94  1 20 17 56 29.9970000  0  6  1 25 15 21 29 14
  22317385.056     3037011.028 6   2351041.793 6
  19831188.673    -8705153.833 7  -6702532.098 9
  19975195.556    -9414492.782 7  -7249529.881 9
  22997652.454     3345144.088 5   2594435.861 4
  23147491.798    -6317979.432 5  -4827292.161 2
  22173551.728   -14659779.898 6 -11323909.459 5
 94  1 20 17 56 59.9970000  0  6  1 25 15 21 29 14
  22323088.712     3066995.088 6   2374405.944 6
  19823204.540    -8747100.136 7  -6735217.553 9
  19966611.626    -9459611.500 7  -7284687.342 9
  23005649.665     3387164.666 5   2627179.034 3
  23125570.517    -6433184.741 5  -4917062.524 3
  22148924.110   -14789191.594 6 -11424749.729 6
 94  1 20 17 57 29.9970000  0  6  1 25 15 21 29 14
  22328797.165     3096980.135 6   2397770.859 6
  19815334.103    -8788463.619 7  -6767448.859 9
  19958145.298    -9504106.183 7  -7319358.541 9
  23013687.517     3429384.063 5   2660077.153 5
  23103675.485    -6548240.987 5  -5006716.754 4
  22124305.985   -14918564.661 6 -11525559.876 6
 94  1 20 17 57 59.9970000  0  6  1 25 15 21 29 14
  22334502.329     3126961.869 6   2421133.191 6
  19807573.970    -8829246.145 7  -6799227.472 9
  19949796.954    -9547972.693 7  -7353540.261 9
  23021755.931     3471813.238 5   2693138.702 4
  23081811.228    -6663145.873 5  -5096252.994 5
  22099693.392   -15047891.810 6 -11626334.264 6
 94  1 20 17 58 29.9970000  0  6  1 25 15 21 29 14
  22340210.649     3156963.712 6   2444511.193 6
  19799920.103    -8869460.293 7  -6830563.182 9
  19941570.071    -9591205.828 7  -7387228.439 9
  23029874.610     3514459.426 5   2726369.384 3
  23059970.868    -6777907.941 5  -5185677.924 5
  22075096.806   -15177163.852 6 -11727065.709 6
 94  1 20 17 58 59.9970000  0  6  1 25 15 21 29 14
  22345925.689     3186992.734 6   2467910.358 6
  19792375.095    -8909116.556 7  -6861464.191 9
  19933463.103    -9633799.823 7  -7420418.582 9
  23038027.790     3557328.372 5   2759773.625 2
  23038158.407    -6892532.583 5  -5274995.793 5
  22050508.040   -15306362.334 6 -11827739.833 6
 94  1 20 17 59 29.9970000  0  6  1 25 15 21 29 14
  22351644.798     3217052.635 6   2491333.587 6
  19784934.329    -8948229.130 7  -6891941.538 9
  19925476.829    -9675750.938 7  -7453107.786 9
  23046230.454     3600413.318 5   2793346.190 2
  23016375.345    -7007011.751 5  -5364200.339 4
  22025939.696   -15435477.905 6 -11928349.356 6
 94  1 20 17 59 59.9970000  0  6  1 25 15 21 29 14
  22357374.220     3247161.547 6   2514795.011 6
  19777595.118    -8986802.040 7  -6921998.361 9
  19917613.798    -9717062.164 7  -7485298.363 8
  23054470.212     3643712.428 5   2827085.631 3
  22994617.899    -7121350.433 5  -5453295.408 5
  22001381.845   -15564520.327 6 -12028901.864 6
 94  1 20 18  0 29.9970000  0  6  1 25 15 21 29 14
  22363113.821     3277327.149 6   2538300.615 6
  19770359.118    -9024811.898 7  -6951616.448 9
  19909881.876    -9757723.418 7  -7516982.475 8
  23062750.071     3687238.415 5   2861001.869 2
  22972882.774    -7235541.205 5  -5542275.224 5
  21976844.431   -15693473.632 6 -12129384.953 6
 94  1 20 18  0 59.9970000  0  6  1 25 15 21 29 14
  22368864.032     3307537.547 6   2561841.113 6
  19763235.712    -9062247.405 7  -6980786.990 9
  19902266.946    -9797738.428 7  -7548163.030 8
  23071077.829     3730992.176 4   2895095.598 4
  22951185.743    -7349575.589 5  -5631133.156 5
  21952320.993   -15822348.132 6 -12229806.614 6
 94  1 20 18  1 29.9970000  0  6  1 25 15 21 29 14
  22374616.962     3337773.145 6   2585401.237 6
  19756222.759    -9099116.119 7  -7009515.868 9
  19894767.556    -9837127.266 7  -7578855.650 8
  23079443.329     3774954.756 5   2929352.052 2
  22929512.993    -7463467.434 5  -5719880.013 5
  21927804.899   -15951171.599 6 -12330188.528 6
 94  1 20 18  1 59.9970000  0  6  1 25 15 21 29 14
  22380373.642     3368024.772 6   2608973.845 6
  19749315.642    -9135397.563 7  -7037787.123 9
  19887398.392    -9875882.410 7  -7609054.480 9
  23087850.649     3819126.632 5   2963771.552 2
  22907865.095    -7577219.472 5  -5808517.949 5
  21903300.759   -16079935.938 6 -12430524.344 6
 94  1 20 18  2 29.9970000  0  6  1 25 15 21 29 14
  22386131.806     3398282.442 6   2632551.162 6
  19742526.064    -9171086.282 7  -7065596.532 9
  19880141.431    -9913995.721 7  -7638753.183 9
  23096292.790     3863517.692 5   2998361.875 2
  22886247.571    -7690828.786 5  -5897044.692 4
  21878813.220   -16208633.679 6 -12530808.288 6
 94  1 20 18  2 59.9970000  0  6  1 25 15 21 29 14
  22391890.524     3428540.611 6   2656128.874 5
  19735844.157    -9206196.423 7  -7092955.090 9
  19873011.735    -9951474.581 7  -7667957.510 9
  23104781.212     3908117.350 4   3033114.741 3
  22864654.923    -7804298.831 5  -5985462.892 5
  21854333.821   -16337271.204 6 -12631045.306 6
 94  1 20 18  3 29.9970000  0  6  1 25 15 21 29 14
  22397653.267     3458821.299 6   2679724.137 6
  19729276.954    -9240711.375 7  -7119849.863 9
  19866000.360    -9988301.536 7  -7696653.860 9
  23113310.243     3952937.580 5   3068039.488 2
  22843089.556    -7917624.626 5  -6073768.679 5
  21829870.157   -16465828.249 6 -12731219.606 6
 94  1 20 18  3 59.9960000  0  6  1 25 15 21 29 14
  22403418.402     3489123.648 6   2703336.270 6
  19722814.723    -9274652.860 7  -7146297.782 9
  19859117.809   -10024484.444 7  -7724848.352 8
  23121881.645     3997976.347 5   3103134.514 3
  22821551.348    -8030816.202 5  -6161969.863 4
  21805422.566   -16594308.941 6 -12831334.419 6
 94  1 20 18  4 29.9960000  0  6  1 25 15 21 29 14
  22409193.973     3519470.394 6   2726982.997 6
  19716465.340    -9308041.750 7  -7172315.107 9
  19852351.184   -10060023.638 7  -7752541.252 8
  23130498.809     4043244.735 5   3138408.447 2
  22800037.934    -8143871.321 5  -6250064.745 4
  21780985.809   -16722719.140 6 -12931394.301 6
 94  1 20 18  4 59.9960000  0  6  1 25 15 21 29 14
  22414977.020     3549862.768 6   2750665.270 6
  19710211.152    -9340892.449 7  -7197913.056 9
  19845713.465   -10094929.358 7  -7779740.543 8
  23139153.856     4088720.345 4   3173843.866 2
  22778548.441    -8256788.252 5  -6338051.946 4
  21756564.840   -16851058.387 6 -13031398.900 6
 94  1 20 18  5 29.9960000  0  6  1 25 15 21 29 14
  22420767.559     3580290.216 6   2774374.885 6
  19704059.723    -9373215.720 7  -7223100.030 9
  19839190.801   -10129207.804 7  -7806451.040 9
  23147838.746     4134387.604 4   3209428.653 2
  22757085.832    -8369573.120 5  -6425936.250 4
  21732154.363   -16979331.692 6 -13131352.104 6
 94  1 20 18  5 59.9960000  0  6  1 25 15 21 29 14
  22426565.973     3610762.100 6   2798119.115 6
  19698012.152    -9405009.298 7  -7247874.255 9
  19832786.129   -10162843.951 7  -7832661.044 8
  23156568.973     4180263.348 4   3245175.865 2
  22735655.168    -8482197.687 5  -6513695.605 5
  21707761.902   -17107513.755 6 -13231234.230 6
 94  1 20 18  6 29.9960000  0  6  1 25 15 21 29 14
  22432370.809     3641263.071 6   2821886.017 6
  19692065.004    -9436264.947 7  -7272229.312 9
  19826506.699   -10195842.847 7  -7858374.493 8
  23165337.621     4226338.458 4   3281078.453 3
  22714254.527    -8594654.160 5  -6601323.978 5
  21683387.731   -17235599.207 6 -13331041.073 6
 94  1 20 18  6 59.9960000  0  6  1 25 15 21 29 14
  22438178.066     3671779.359 6   2845664.855 6
  19686221.535    -9466976.179 7  -7296160.153 9
  19820346.668   -10228211.796 7  -7883597.073 9
  23174147.199     4272599.578 4   3317125.956 2
  22692886.402    -8706940.243 5  -6688819.577 5
  21659030.785   -17363596.508 6 -13430779.219 6
 94  1 20 18  7 29.9960000  0  6  1 25 15 21 29 14
  22443986.590     3702307.795 6   2869453.151 6
  19680479.848    -9497144.400 7  -7319667.868 9
  19814306.301   -10259951.583 7  -7908329.400 8
  23182976.574     4319051.718 4   3353322.296 3
  22671555.066    -8819051.409 5  -6776178.875 5
  21634690.004   -17491514.090 6 -13530455.259 6
 94  1 20 18  7 59.9960000  0  6  1 25 15 21 29 14
  22449798.098     3732847.949 6   2893250.581 5
  19674842.856    -9526768.238 7  -7342751.385 9
  19808385.043   -10291062.816 7  -7932571.948 8
  23191860.629     4365696.151 4   3389668.506 2
  22650253.848    -8930979.199 5  -6863395.304 5
  21610361.660   -17619354.653 6 -13630071.276 6
 94  1 20 18  8 29.9960000  0  6  1 25 15 21 29 14
  22455612.309     3763400.115 6   2917057.374 6
  19669310.348    -9555841.582 7  -7365405.949 9
  19802585.598   -10321543.771 7  -7956323.359 9
  23200771.363     4412528.219 4   3426160.905 2
  22628989.856    -9042727.613 5  -6950471.940 5
  21586049.574   -17747119.586 6 -13729628.359 6
 94  1 20 18  8 59.9960000  0  6  1 25 15 21 29 14
  22461432.902     3793983.981 6   2940888.861 5
  19663884.113    -9584351.511 7  -7387621.489 9
  19796909.801   -10351378.581 7  -7979571.287 9
  23209726.324     4459568.248 4   3462815.371 2
  22607758.035    -9154298.963 5  -7037410.617 5
  21561754.449   -17874788.843 6 -13829110.898 6
 94  1 20 18  9 29.9960000  0  6  1 25 15 21 29 14
  22467257.426     3824593.707 6   2964740.505 5
  19658562.363    -9612305.541 7  -7409403.862 9
  19791357.996   -10380573.560 7  -8002320.645 9
  23218710.277     4506814.831 4   3499630.786 2
  22586552.715    -9265725.963 5  -7124236.800 5
  21537478.715   -18002356.708 6 -13928514.413 6
 94  1 20 18  9 59.9960000  0  6  1 25 15 21 29 14
  22473088.074     3855220.274 6   2988605.265 5
  19653349.035    -9639702.198 7  -7430751.920 9
  19785924.473   -10409130.079 7  -8024572.502 9
  23227739.113     4554260.439 3   3536601.262 1
  22565375.387    -9377030.977 5  -7210967.939 5
  21513223.777   -18129814.826 6 -14027832.419 6
 94  1 20 18 10 29.9960000  0  6  1 25 15 21 29 14
  22478913.652     3885850.799 6   3012473.126 5
  19648242.910    -9666561.227 7  -7451681.043 9
  19780604.129   -10437062.045 7  -8046337.695 9
  23236804.746     4601896.674 3   3573720.310 2
  22544208.574    -9488237.866 5  -7297622.632 4
  21488990.738   -18257169.981 6 -14127070.186 6
 94  1 20 18 10 59.9960000  0  6  1 25 15 21 29 14
  22484743.582     3916483.078 6   3036342.341 5
  19643229.348    -9692887.515 7  -7472195.040 9
  19775409.855   -10464377.889 7  -8067622.786 9
  23245911.652     4649715.463 3   3610981.595 2
  22523067.082    -9599352.515 5  -7384205.426 5
  21464773.207   -18384430.780 6 -14226234.436 6
 94  1 20 18 11 29.9960000  0  6  1 25 15 21 29 14
  22490574.098     3947121.458 6   3060216.310 5
  19638322.129    -9718676.914 7  -7492290.683 9
  19770329.285   -10491073.852 7  -8088424.864 9
  23255035.770     4697709.616 3   3648379.559 2
  22501943.277    -9710352.995 5  -7470699.266 5
  21440574.105   -18511599.704 6 -14325327.081 6
 94  1 20 18 11 59.9960000  0  6  1 25 15 21 29 14
  22496407.543     3977774.169 6   3084101.449 5
  19633521.449    -9743909.744 7  -7511952.633 9
  19765367.379   -10517131.856 7  -8108729.825 9
  23264213.926     4745905.513 3   3685934.677 2
  22480852.199    -9821190.202 5  -7557065.886 4
  21416397.910   -18638646.512 6 -14424324.587 6
 94  1 20 18 12 29.9960000  0  6  1 25 15 21 29 14
  22502240.387     4008426.691 6   3107986.447 6
  19628819.965    -9768609.589 7  -7531199.267 9
  19760529.191   -10542577.807 7  -8128557.861 9
  23273413.824     4794282.731 3   3723631.102 2
  22459788.926    -9931875.822 5  -7643314.398 5
  21392240.816   -18765589.974 6 -14523241.550 6
 94  1 20 18 12 59.9960000  0  6  1 25 15 21 29 14
  22508077.832     4039104.605 6   3131891.215 6
  19624228.238    -9792741.204 7  -7550003.116 9
  19755806.230   -10567385.257 7  -8147888.370 9
  23282651.707     4842861.718 3   3761484.747 1
  22438758.832   -10042395.270 5  -7729433.416 5
  21368108.480   -18892405.229 6 -14622058.616 6
 94  1 20 18 13 29.9960000  0  6  1 25 15 21 29 14
  22513919.027     4069794.407 6   3155805.250 6
  19619743.699    -9816313.981 7  -7568371.514 9
  19751204.738   -10591564.893 7  -8166729.670 9
  23291945.590     4891637.826 3   3799491.998 3
  22417757.043   -10152760.183 5  -7815432.004 5
  21343998.715   -19019103.159 6 -14720784.265 6
 94  1 20 18 13 59.9960000  0  6  1 25 15 21 29 14
  22519760.270     4100496.307 6   3179728.716 6
  19615361.082    -9839329.992 7  -7586306.071 9
  19746727.934   -10615117.436 7  -8185082.325 8
  23301258.191     4940607.225 3   3837649.853 2
  22396781.848   -10262980.416 5  -7901317.892 5
  21319911.246   -19145686.070 6 -14819420.282 6
 94  1 20 18 14 29.9960000  0  6  1 25 15 21 29 14
  22525607.270     4131219.592 6   3203668.831 6
  19611089.895    -9861785.043 7  -7603803.513 9
  19742360.770   -10638040.919 7  -8202944.803 9
  23310613.879     4989764.413 3   3875954.060 2
  22375833.230   -10373073.167 5  -7987104.425 5
  21295841.293   -19272173.666 6 -14917982.038 6
 94  1 20 18 14 59.9960000  0  6  1 25 15 21 29 14
  22531458.387     4161962.504 6   3227624.260 5
  19606928.160    -9883667.087 7  -7620854.448 9
  19738116.832   -10660330.762 7  -8220313.539 9
  23320009.488     5039117.503 3   3914410.918 2
  22354907.129   -10483029.114 5  -8072784.355 5
  21271788.809   -19398569.044 6 -15016471.932 6
 94  1 20 18 15 29.9960000  0  7  1 25 15 21 29 14 22
  22537309.848     4192711.725 6   3251584.587 5
  19602867.496    -9904994.889 7  -7637473.526 9
  19733998.293   -10681999.681 7  -8237198.433 9
  23329428.973     5088656.201 3   3953012.375 2
  22334013.871   -10592838.448 5  -8158350.039 5
  21247754.324   -19524874.176 6 -15114891.494 6
  23379610.512          -0.06013
 94  1 20 18 15 59.9960000  0  7  1 25 15 21 29 14 22
  22543161.371     4223469.704 6   3275551.744 5
  19598912.520    -9925771.523 7  -7653663.114 9
  19729995.637   -10703041.496 7  -8253594.671 9
  23338895.262     5138386.838 3   3991763.425 1
  22313148.207   -10702488.261 5  -8243791.423 5
  21223738.926   -19651068.767 6 -15213224.935 6
  23353885.316     -135145.631 3        -0.38712
 94  1 20 18 16 29.9960000  0  7  1 25 15 21 29 14 22
  22549014.551     4254224.985 6   3299516.803 5
  19595059.762    -9946012.704 7
  19726109.785   -10723463.479 7
  23348393.996     5188318.552 3   4030671.155 3
  22292310.895   -10811981.395 5  -8329110.730 5
  21199747.332   -19777149.974 6 -15311470.012 6
  23328173.543     -270365.089 3   -105366.042 1
 94  1 20 18 16 59.9960000  0  7  1 25 15 21 29 14 22
  22554867.355     4284979.856 6   3323481.546 5
  19591306.488    -9965739.376 7
  19722340.363   -10743264.323 7
  23357937.191     5238440.521 3   4069727.059 1
  22271508.137   -10921308.889 5  -8414300.940 5
  21175781.191   -19903093.948 6 -15409608.166 6
  23302431.863     -405664.978 3   -210794.405 1
 94  1 20 18 17 29.9960000  0  7  1 25 15 21 29 14 22
  22560718.113     4315724.113 6   3347438.017 5
  19587646.645    -9984970.078 7
  19718690.949   -10762450.990 7
  23367514.262     5288742.410 3   4108923.261 1
  22250730.418   -11030477.505 5  -8499367.384 5
  21151843.676   -20028898.778 6 -15507637.889 6
  23276637.129     -541049.225 3   -316288.471 1
 94  1 20 18 17 59.9960000  0  7  1 25 15 21 29 14 22
  22566570.645     4346472.871 6   3371397.993 5
  19584082.316   -10003700.450 7  -7714386.993 9
  19715157.574   -10781013.814 7  -8314352.433 9
  23377119.371     5339228.279 3   4148262.774 1
  22229988.926   -11139482.848 5  -8584306.607 5
  21127929.098   -20154565.118 6 -15605559.690 6
  23250874.270     -676496.526 3   -421831.679 1
 94  1 20 18 18 29.9960000  0  7  1 25 15 21 29 14 22
  22572420.301     4377226.151 6   3395361.493 5
  19580614.043   -10021931.051 7  -7728592.666 9
  19711741.418   -10798958.847 7  -8328335.602 9
  23386753.363     5389887.752 3   4187737.584 1
  22209274.637   -11248344.786 5  -8669134.051 5
  21104039.262   -20280102.947 6 -15703381.353 6
  23225094.996     -812009.023 3   -527425.684 2
 94  1 20 18 18 59.9960000  0  7  1 25 15 21 29 14 22
  22578272.629     4407972.005 6   3419319.201 5
  19577243.598   -10039660.654 7  -7742407.953 9
  19708437.918   -10816300.164 7  -8341848.343 8
  23396421.887     5440698.783 3   4227330.436 1
  22188584.902   -11357071.129 5  -8753855.837 5
  21080170.145   -20405534.520 6 -15801120.224 6
  23199300.520     -947580.439 3   -633065.596 1
 94  1 20 18 19 29.9960000  0  6  1 25 15 29 14 22
  22584124.887     4438727.523 6   3443284.450 5
  19573971.402   -10056848.269 7  -7755800.909 9
  19705260.668   -10833016.800 7  -8354874.322 8
  22167923.598   -11465639.464 5  -8838454.530 5
  21056321.098   -20530852.145 6 -15898770.309 6
  23173499.270    -1083177.354 3   -738725.412 2
 94  1 20 18 19 59.9960000  0  6  1 25 15 29 14 22
  22589980.582     4469495.498 5   3467259.399 5
  19570801.285   -10073497.901 7  -7768774.674 9
  19702198.660   -10849116.725 7  -8367419.741 8
  22147292.246   -11574067.417 5  -8922943.814 5
  21032497.301   -20656057.579 6 -15996332.964 6
  23147689.402          -0.23713
 94  1 20 18 20 29.9960000  0  6  1 25 15 29 14 22
  22595836.480     4500270.589 5   3491239.906 5
  19567740.582   -10089604.286 7  -7781325.113 9
  19699246.066   -10864600.230 7  -8379484.839 8
  22126682.004   -11682358.100 5  -9007326.140 5
  21008695.090   -20781136.642 6 -16093797.164 6
  23121868.301     -135649.110 3        -0.33611
 94  1 20 18 20 59.9960000  0  6  1 25 15 29 14 22
  22601695.527     4531061.738 5   3515232.925 5
  19564776.379   -10105160.092 7  -7793446.536 9
  19696424.699   -10879462.343 7  -8391065.725 8
  22106106.512   -11790495.759 5  -9091589.214 5
  20984921.152   -20906072.075 6 -16191149.431 7
  23096060.879     -271302.966 3   -105704.542 1
 94  1 20 18 21 29.9950000  0  6  1 25 15 29 14 22
  22607560.780     4561879.379 5   3539246.583 5
  19561920.351   -10120184.792 7  -7805154.115 9
  19693707.515   -10893707.656 7  -8402165.989 9
  22085553.655   -11898496.049 6  -9175745.274 5
  20961179.280   -21030845.010 6 -16288375.080 6
  23070241.194     -406956.022 3   -211408.160 2
 94  1 20 18 21 59.9950000  0  6  1 25 15 29 14 22
  22613433.202     4592733.277 5   3563288.500 5
  19559156.265   -10134692.725 7  -7816459.019 9
  19691120.366   -10907342.627 7  -8412790.668 8
  22065023.624   -12006376.465 5  -9259807.903 5
  20937465.632   -21155454.107 6 -16385473.068 7
  23044426.726     -542619.811 3   -317120.137 2
 94  1 20 18 22 29.9950000  0  6  1 25 15 29 14 22
  22619312.062     4623623.026 6   3587358.349 5
  19556495.858   -10148684.779 7  -7827361.937 9
  19688634.515   -10920372.796 7  -8422944.070 9
  22044521.218   -12114128.023 5  -9343770.155 5
  20913782.616   -21279906.872 6 -16482449.232 7
  23018614.616     -678289.497 3   -422836.704 2
 94  1 20 18 22 59.9950000  0  6  1 25 15 29 14 22
  22625198.757     4654564.655 6   3611468.648 5
  19553933.772   -10162152.082 7  -7837855.958 9
  19686272.507   -10932788.519 7  -8432618.676 9
  22024046.202   -12221733.349 5  -9427618.437 6
  20890129.835   -21404200.448 6 -16579301.363 7
  22992791.398     -813963.326 3   -528556.538 2
 94  1 20 18 23 29.9950000  0  6  1 25 15 29 14 22
  22631092.265     4685543.357 5   3635607.816 5
  19551464.687   -10175115.911 7  -7847957.650 9
  19684029.265   -10944601.609 7  -8441823.703 9
  22003594.437   -12329199.368 5  -9511358.145 5
  20866504.351   -21528352.577 6 -16676043.263 7
  22966974.163     -949660.733 3   -634294.760 1
 94  1 20 18 23 59.9950000  0  6  1 25 15 29 14 22
  22636992.983     4716548.992 5   3659767.960 5
  19549096.413   -10187558.223 7  -7857652.977 9
  19681896.905   -10955803.631 7  -8450552.579 9
  21983174.851   -12436501.860 5  -9594970.448 5
  20842906.585   -21652366.237 6 -16772677.268 7
  22941143.374    -1085384.146 3   -740053.252 2
 94  1 20 18 24 29.9950000  0  6  1 25 15 29 14 22
  22642892.460     4747562.763 5   3683934.449 5
  19546829.124   -10199477.070 7  -7866940.412 9
  19679878.710   -10966397.672 7  -8458807.698 9
  21962787.249   -12543629.470 5  -9678446.504 5
  20819331.116   -21776252.821 6 -16869212.243 7
  22915312.101    -1221132.522 4   -845831.148 1
 94  1 20 18 24 59.9950000  0  6  1 25 15 29 14 22
  22648794.273     4778556.924 5   3708085.660 4
  19544659.241   -10210881.745 7  -7875827.192 9
  19677976.335   -10976387.718 7  -8466592.176 9
  21942437.132   -12650582.449 6  -9761786.462 5
  20795783.429   -21900000.001 6 -16965638.604 7
  22889472.460    -1356906.042 3   -951628.656 2
 94  1 20 18 25 29.9950000  0  6  1 25 15 29 14 22
  22654685.038     4809517.402 5   3732210.623 5
  19542586.171   -10221778.681 7  -7884318.331 9
  19676188.312   -10985780.960 7  -8473911.605 9
  21922115.273   -12757377.473 5  -9845003.328 6
  20772261.710   -22023605.125 6 -17061954.259 7
  22863632.632    -1492690.202 3  -1057434.431 2
 94  1 20 18 25 59.9950000  0  6  1 25 15 29 14 22
  22660568.812     4840432.529 5   3756300.253 5
  19540611.241   -10232158.517 7  -7892406.535 9
  19674512.679   -10994584.240 7  -8480771.326 9
  21901816.007   -12864030.679 5  -9928109.707 5
  20748766.866   -22147067.382 6 -17158158.603 7
  22837795.577    -1628481.744 4  -1163245.942 3
 94  1 20 18 26 29.9950000  0  6  1 25 15 29 14 22
  22666445.608     4871328.007 5   3780374.559 5
  19538735.530   -10242012.492 7  -7900084.990 9
  19672952.929   -11002786.344 7  -8487162.596 9
  21881552.358   -12970535.463 5 -10011100.440 5
  20725307.233   -22270352.012 6 -17254224.532 7
  22811957.694    -1764257.071 4  -1269044.823 1
 94  1 20 18 26 59.9950000  0  6  1 25 15 29 14 22
  22672320.616     4902213.088 5   3804440.767 5
  19536958.077   -10251345.872 7  -7907357.762 9
  19671510.421   -11010386.581 7  -8493084.884 9
  21861310.733   -13076908.638 6 -10093988.619 5
  20701882.405   -22393440.553 6 -17350137.658 7
  22786121.257    -1900009.766 3  -1374826.077 1
 94  1 20 18 27 29.9950000  0  6  1 25 15 29 14 22
  22678204.757     4933104.196 5   3828511.670 5
  19535279.819   -10260167.033 7  -7914231.426 9
  19670177.366   -11017391.906 7  -8498543.601 8
  21841090.773   -13183161.268 5 -10176782.875 5
  20678493.757   -22516351.884 6 -17445912.710 7
  22760295.483    -2035737.168 4  -1480587.592 2
 94  1 20 18 27 59.9950000  0  6  1 25 15 29 14 22
  22684086.421     4964019.831 5   3852601.669 5
  19533698.968   -10268481.102 7  -7920709.947 9
  19668955.101   -11023801.889 7  -8503538.419 9
  21820896.093   -13289277.328 5 -10259470.703 5
  20655139.741   -22639080.856 6 -17541545.660 7
  22734473.749    -2171444.937 4  -1586333.828 2
 94  1 20 18 28 29.9950000  0  6  1 25 15 29 14 22
  22689977.968     4994978.167 5   3876724.952 5
  19532214.265   -10276288.257 7  -7926793.472 9
  19667847.296   -11029610.341 7  -8508064.512 9
  21800731.101   -13395235.906 6 -10342035.819 5
  20631820.398   -22761622.648 6 -17637032.758 7
  22708660.585    -2307115.885 4  -1692051.362 3
 94  1 20 18 28 59.9950000  0  6  1 25 15 29 14 22
  22695873.280     5025960.095 5   3900866.626 5
  19530821.741   -10283590.730 7  -7932483.738 9
  19666861.124   -11034820.156 7  -8512124.130 8
  21780601.273   -13501039.790 6 -10424480.396 5
  20608532.921   -22883998.129 6 -17732390.261 7
  22682850.257    -2442741.780 4  -1797733.837 2
 94  1 20 18 29 29.9950000  0  6  1 25 15 29 14 22
  22701772.577     5056965.251 5   3925026.392 5
  19529530.554   -10290392.737 7  -7937784.038 9
  19665977.249   -11039438.873 7  -8515723.153 8
  21760496.530   -13606686.149 6 -10506802.239 5
  20585273.804   -23006227.437 6 -17827633.872 7
  22657043.062    -2578328.432 4  -1903385.775 2
 94  1 20 18 29 59.9950000  0  6  1 25 15 29 14 22
  22707674.390     5087971.691 5   3949187.154 5
  19528327.679   -10296698.723 7  -7942697.824 9
  19665213.202   -11043477.225 7  -8518869.947 8
  21740420.554   -13712187.535 6 -10589011.125 5
  20562044.530   -23128303.426 6 -17922758.007 7
  22631246.866    -2713895.084 4  -2009022.091 2
 94  1 20 18 30 29.9950000  0  6  1 25 15 29 14 22
  22713572.819     5118961.353 5   3973334.835 5
  19527227.226   -10302499.277 7  -7947217.765 9
  19664551.476   -11046930.256 7  -8521560.646 8
  21720368.538   -13817554.635 6 -10671115.342 6
  20538844.546   -23250218.649 7 -18017756.873 7
  22605455.202    -2849433.146 4  -2114636.146 2
 94  1 20 18 30 59.9950000  0  6  1 25 15 29 14 22
  22719468.499     5149942.548 5   3997475.931 5
  19526214.593   -10307801.000 7  -7951349.005 9
  19664012.288   -11049794.296 7  -8523792.393 8
  21700343.897   -13922787.881 6 -10753115.249 5
  20515677.116   -23371962.064 6 -18112621.866 7
  22579660.515    -2984950.383 4  -2220234.013 2
 94  1 20 18 31 29.9950000  0  6  1 25 15 29 14 22
  22725365.554     5180947.650 5   4021635.645 5
  19525306.624   -10312591.877 7  -7955082.185 9
  19663574.054   -11052063.379 7  -8525560.535 8
  21680350.577   -14027868.971 6 -10834996.630 5
  20492544.976   -23493514.209 6 -18207337.815 7
  22553878.062    -3120439.805 4  -2325810.217 2
 94  1 20 18 31 59.9950000  0  6  1 25 15 29 14 22
  22731269.812     5211965.087 5   4045804.978 5
  19524492.265   -10316868.013 7  -7958414.259 9
  19663257.101   -11053739.310 7  -8526866.482 8
  21660380.429   -14132795.392 6 -10916757.497 5
  20469456.874   -23614854.521 7 -18301888.703 7
  22528104.069    -3255899.371 4  -2431363.176 2
 94  1 20 18 32 29.9950000  0  6  1 25 15 29 14 22
  22737174.663     5242987.939 5   4069978.535 5
  19523768.140   -10320654.927 7  -7961365.119 9
  19663051.944   -11054838.498 7  -8527723.022 8
  21640439.819   -14237575.738 6 -10998404.500 6
  20446402.546   -23736007.030 7 -18396293.251 7
  22502332.866    -3391329.555 4  -2536893.230 3
 94  1 20 18 32 59.9950000  0  6  1 25 15 29 14 22
  22743079.015     5274031.748 5   4094168.410 5
  19523141.741   -10323952.161 7  -7963934.414 9
  19662950.546   -11055362.470 7
  21620535.476   -14342196.191 6 -11079926.940 6
  20423382.015   -23856972.721 7 -18490552.233 7
  22476566.476    -3526722.487 4  -2642394.302 2
 94  1 20 18 33 29.9950000  0  6  1 25 15 29 14 22
  22748982.773     5305051.929 5   4118339.881 4
  19522608.960   -10326766.670 7  -7966127.548 9
  19662953.288   -11055334.906 7
  21600647.983   -14446688.471 6 -11161349.515 6
  20400395.741   -23977776.919 7 -18584685.374 7
  22450815.874    -3662085.895 5  -2747872.346 3
 94  1 20 18 33 59.9950000  0  6  1 25 15 29 14 22
  22754880.694     5336039.793 5   4142486.173 5
  19522163.507   -10329105.532 7  -7967950.043 9
  19663063.960   -11054745.855 7
  21580791.499   -14551051.149 6 -11242671.069 5
  20377438.944   -24098409.382 7 -18678684.688 7
  22425064.952    -3797406.599 5  -2853317.153 3
 94  1 20 18 34 29.9950000  0  6  1 25 15 29 14 22
  22760772.788     5367011.041 5   4166619.517 5
  19521810.218   -10330972.945 7  -7969405.185 9
  19663284.155   -11053586.296 7  -8526747.401 8
  21560955.569   -14655278.865 6 -11323887.458 5
  20354515.601   -24218872.586 6 -18772552.116 7
  22399318.382    -3932662.559 4  -2958711.527 4
 94  1 20 18 34 59.9950000  0  6  1 25 15 29 14 22
  22766660.702     5397964.174 5   4190738.771 5
  19521544.194   -10332364.015 7  -7970489.131 9
  19663614.288   -11051854.494 7  -8525397.973 8
  21541150.030   -14759373.462 6 -11405000.127 6
  20331626.069   -24339156.850 7 -18866280.098 7
  22373598.874    -4067845.564 5  -3064049.029 2
 94  1 20 18 35 29.9950000  0  6  1 25 15 29 14 22
  22772555.444     5428896.208 5   4214841.561 5
  19521365.452   -10333302.728 7  -7971220.598 9
  19664051.171   -11049559.118 7  -8523609.398 8
  21521360.062   -14863352.908 6 -11486023.078 5
  20308772.937   -24459253.176 7 -18959861.633 7
  22347890.077    -4202961.804 5  -3169334.454 2
 94  1 20 18 35 59.9950000  0  6  1 25 15 29 14 22
  22778435.944     5459824.895 5   4238941.744 5
  19521266.257   -10333810.300 7
  19664597.937   -11046704.209 7  -8521384.818 8
  21501598.819   -14967204.245 6 -11566946.172 6
  20285957.562   -24579142.825 7 -19053282.129 7
  22322186.327    -4338010.294 4  -3274567.099 2
 94  1 20 18 36 29.9950000  0  6  1 25 15 29 14 22
  22784326.999     5490774.857 5   4263058.501 5
  19521257.835   -10333859.729 7
  19665251.382   -11043279.163 7  -8518715.981 8
  21481862.265   -15070911.382 6 -11647756.907 6
  20263189.202   -24698801.853 7 -19146522.915 7
  22296508.694    -4472982.387 5  -3379740.212 4
 94  1 20 18 36 59.9950000  0  6  1 25 15 29 14 22
  22790216.601     5521744.106 5   4287190.286 5
  19521338.804   -10333440.538 7
  19666004.679   -11039290.944 7  -8515608.315 8
  21462154.226   -15174473.097 6 -11728454.343 6
  20240464.671   -24818218.499 7 -19239574.822 7
  22270835.429    -4607885.741 5  -3484859.703 3
 94  1 20 18 37 29.9950000  0  6  1 25 15 29 14 22
  22796116.929     5552724.019 5   4311330.380 5
  19521508.288   -10332545.934 7  -7970630.920 9
  19666873.148   -11034743.531 7  -8512064.897 8
  21442478.429   -15277885.533 6 -11809035.411 6
  20217785.101   -24937389.374 7 -19332435.230 7
  22245175.171    -4742722.294 5  -3589927.119 4
 94  1 20 18 37 59.9950000  0  6  1 25 15 29 14 22
  22802013.819     5583704.070 5   4335470.589 5
  19521772.296   -10331158.805 7  -7969550.053 9
  19667845.780   -11029641.491 7  -8508089.303 8
  21422829.530   -15381135.217 6 -11889489.664 6
  20195149.522   -25056342.362 7 -19425125.851 7
  22219524.335    -4877487.014 4  -3694938.567 4
 94  1 20 18 38 29.9950000  0  6  1 25 15 29 14 22
  22807909.280     5614693.603 5   4359618.194 4
  19522134.444   -10329260.363 7  -7968070.763 9
  19668920.140   -11023973.751 7  -8503672.914 8
  21403214.827   -15484223.218 6 -11969817.966 5
  20172554.304   -25175086.302 7 -19517653.579 7
  22193902.452    -5012168.059 5  -3799884.712 2
 94  1 20 18 38 59.9940000  0  6  1 25 15 29 14 22
  22813803.174     5645685.585 5   4383767.714 4
  19522588.799   -10326859.528 7  -7966200.011 9
  19670109.682   -11017745.750 7  -8498819.957 8
  21383625.674   -15587151.008 6 -12050021.386 6
  20149996.400   -25293627.138 7 -19610023.044 7
  22168293.533    -5146748.455 5  -3904752.422 3
 94  1 20 18 39 29.9940000  0  6  1 25 15 29 14 22
  22819703.455     5676671.774 5   4407912.725 4
  19523137.354   -10323979.086 7  -7963955.536 9
  19671395.002   -11010968.406 7  -8493538.935 8
  21364066.150   -15689935.162 6 -12130112.885 6
  20127475.150   -25411990.032 7 -19702253.847 7
  22142695.135    -5281251.134 5  -4009559.546 3
 94  1 20 18 39 59.9940000  0  6  1 25 15 29 14 22
  22825598.799     5707664.309 5   4432062.668 4
  19523775.064   -10320633.283 7  -7961348.443 9
  19672792.213   -11003638.523 7  -8487827.361 8
  21344534.119   -15792578.331 6 -12210094.531 6
  20104986.283   -25530165.151 7 -19794338.340 7
  22117113.104    -5415672.942 5  -4114303.630 3
 94  1 20 18 40 29.9940000  0  6  1 25 15 29 14 22
  22831493.018     5738660.937 5   4456215.805 5
  19524494.979   -10316837.049 7  -7958390.357 9
  19674294.416   -10995759.598 7  -8481687.967 8
  21325024.838   -15895099.864 6 -12289981.393 6
  20082539.580   -25648123.009 7 -19886253.526 8
  22091548.057    -5550012.406 5  -4218983.532 3
 94  1 20 18 40 59.9940000  0  6  1 25 15 29 14 22
  22837397.846     5769649.702 5   4480362.794 5
  19525305.604   -10312595.004 7  -7955084.890 9
  19675891.799   -10987336.736 7  -8475124.726 8
  21305541.275   -15997490.651 6 -12369766.368 6
  20060137.643   -25765851.857 7 -19977990.268 7
  22066004.283    -5684271.627 5  -4323600.879 3
 94  1 20 18 41 29.9940000  0  6  1 25 15 29 14 22
  22843294.900     5800653.103 5   4504521.211 5
  19526200.471   -10307897.641 7  -7951424.626 9
  19677601.885   -10978354.068 7  -8468125.271 8
  21286084.721   -16099724.487 6 -12449429.035 6
  20037779.979   -25883335.233 7 -20069535.733 7
  22040472.627    -5818429.257 5  -4428139.066 4
 94  1 20 18 41 59.9940000  0  6  1 25 15 29 14 22
  22849192.572     5831646.229 5   4528671.605 5
  19527175.705   -10302766.612 7  -7947426.436 9
  19679413.971   -10968843.850 7  -8460714.738 8
  21266655.385   -16201828.293 6 -12528990.427 6
  20015462.635   -26000607.834 7 -20160916.958 8
  22014963.174    -5952491.904 5  -4532603.242 3
 94  1 20 18 42 29.9940000  0  6  1 25 15 29 14 22
  22855095.869     5862664.247 5   4552841.409 5
  19528239.525   -10297166.363 7  -7943062.620 9
  19681329.166   -10958785.176 7  -8452876.837 8
  21247260.041   -16303770.146 6 -12608425.569 6
  19993189.510   -26117651.460 7 -20252119.752 7
  21989475.330    -6086423.483 5  -4636965.293 4
 94  1 20 18 42 59.9940000  0  6  1 25 15 29 14 22
  22861000.338     5893705.334 5   4577029.177 4
  19529393.463   -10291104.502 7  -7938339.104 9
  19683346.205   -10948192.880 7  -8444623.128 8
  21227888.940   -16405556.962 6 -12687739.919 6
  19970954.432   -26234495.797 7 -20343167.270 8
  21964013.619    -6220240.473 5  -4741238.082 4
 94  1 20 18 43 29.9940000  0  6  1 25 15 29 14 22
  22866915.205     5924776.812 5   4601240.628 5
  19530635.690   -10284576.591 7  -7933252.423 9
  19685464.221   -10937060.548 7  -8435948.610 8
  21208545.846   -16507193.562 6 -12766937.219 6
  19948760.213   -26351134.326 7 -20434054.411 7
  21938572.354    -6353918.001 5  -4845402.217 5
 94  1 20 18 43 59.9940000  0  6  1 25 15 29 14 22
  22872830.143     5955871.501 5   4625470.181 4
  19531968.346   -10277574.325 7  -7927796.118 9
  19687686.119   -10925383.067 7  -8426849.305 8
  21189233.330   -16608685.981 6 -12846022.203 6
  19926609.885   -26467538.475 7 -20524758.917 8
  21913162.275    -6487458.852 5  -4949459.860 4
 94  1 20 18 44 29.9940000  0  6  1 25 15 29 14 22
  22878745.947     5986969.077 5   4649701.965 4
  19533389.955   -10270105.315 7  -7921976.113 9
  19690010.088   -10913161.997 7  -8417326.421 8
  21169948.908   -16710036.158 6 -12924996.320 6
  19904506.541   -26583691.188 7 -20615267.502 8
  21887773.533    -6620878.870 5  -5053423.376 4
 94  1 20 18 44 59.9940000  0  6  1 25 15 29 14 22
  22884663.807     6018053.946 5   4673923.860 4
  19534900.463   -10262174.105 7  -7915795.959 9
  19692438.830   -10900395.470 7  -8407378.507 8
  21150690.268   -16811231.500 6 -13003849.782 6
  19882454.119   -26699574.897 7 -20705566.472 8
  21862411.252    -6754165.978 5  -5157283.365 5
 94  1 20 18 45 29.9940000  0  6  1 25 15 29 14 22
  22890577.080     6049105.709 5   4698119.944 4
  19536493.229   -10253806.750 7  -7909275.950 9
  19694967.432   -10887098.969 7  -8397017.631 8
  21131463.518   -16912280.056 6 -13082588.897 6
  19860451.822   -26815194.421 7 -20795659.579 8
  21837070.666    -6887327.664 5  -5261045.650 5
 94  1 20 18 45 59.9940000  0  6  1 25 15 29 14 22
  22896476.104     6080144.726 5   4722306.099 4
  19538168.166   -10244998.774 7  -7902412.602 9
  19697601.307   -10873275.866 6  -8386246.418 8
  21112261.877   -17013178.892 6 -13161211.305 6
  19838502.088   -26930543.250 7 -20885541.767 8
  21811751.916    -7020373.028 5  -5364717.318 4
 94  1 20 18 46 29.9940000  0  6  1 25 15 29 14 22
  22902385.916     6111205.900 5   4746509.518 4
  19539928.533   -10235740.575 7  -7895198.434 9
  19700334.900   -10858919.141 6  -8375059.389 8
  21093089.846   -17113922.966 6 -13239713.143 6
  19816601.346   -27045631.659 7 -20975221.027 8
  21786456.580    -7153268.942 5  -5468272.539 5
 94  1 20 18 46 59.9940000  0  6  1 25 15 29 14 22
  22908307.502     6142298.442 5   4770737.389 4
  19541775.729   -10226048.544 7  -7887646.217 9
  19703159.963   -10844042.110 6  -8363466.930 8
  21073946.557   -17214529.429 6 -13318107.750 6
  19794745.502   -27160478.937 7 -21064712.395 8
  21761201.213    -7286013.149 5  -5571709.589 4
 94  1 20 18 47 29.9940000  0  6  1 25 15 29 14 22
  22914236.619     6173430.631 5   4794996.128 4
  19543700.275   -10215920.637 7  -7879754.364 9
  19706093.885   -10828647.783 6  -8351471.384 8
  21054825.744   -17315013.475 6 -13396406.976 6
  19772937.315   -27275082.971 7 -21154014.215 8
  21735971.986    -7418600.599 5  -5675024.499 5
 94  1 20 18 47 59.9940000  0  6  1 25 15 29 14 22
  22920165.869     6204595.564 5   4819280.407 4
  19545715.330   -10205346.369 7  -7871514.688 9
  19709118.018   -10812735.750 6  -8339072.433 8
  21035727.963   -17415378.224 6 -13474613.230 6
  19751175.885   -27389445.520 7 -21243127.873 8
  21710771.643    -7551021.826 5  -5778209.915 4
 94  1 20 18 48 29.9940000  0  6  1 25 15 29 14 22
  22926098.025     6235771.561 5   4843573.298 4
  19547807.393   -10194336.437 7  -7862935.547 9
  19712248.385   -10796310.231 6  -8326273.352 8
  21016652.955   -17515615.607 6 -13552720.253 6
  19729459.213   -27503563.062 7 -21332050.618 8
  21685602.190    -7683274.223 5  -5881263.777 4
 94  1 20 18 48 59.9940000  0  6  1 25 15 29 14 22
  22932027.002     6266935.780 5   4867856.996 4
  19549988.268   -10182892.699 7  -7854018.370 9
  19715467.174   -10779371.159 6  -8313074.113 7
  20997607.010   -17615705.294 6 -13630712.181 6
  19707795.174   -27617411.379 7 -21420763.577 8
  21660467.760    -7815376.813 5  -5984200.913 5
 94  1 20 18 49 29.9940000  0  6  1 25 15 29 14 22
  22937952.916     6298075.612 5   4892121.697 5
  19552242.619   -10171025.674 7  -7844771.370 9
  19718791.221   -10761930.362 6  -8299483.911 7
  20978587.588   -17715649.576 6 -13708590.805 6
  19686181.486   -27730986.995 7 -21509264.048 8
  21635352.549    -7947354.074 5  -6087040.415 5
 94  1 20 18 49 59.9940000  0  6  1 25 15 29 14 22
  22943879.924     6329216.279 5   4916387.064 4
  19554584.971   -10158730.744 7  -7835190.929 9
  19722204.213   -10743977.493 6  -8285494.700 7
  20959596.541   -17815433.072 6 -13786344.156 6
  19664624.252   -27844276.718 7 -21597541.743 8
  21610261.635    -8079202.157 5  -6189779.244 5
 94  1 20 18 50 29.9940000  0  6  1 25 15 29 14 22
  22949804.604     6360357.400 4   4940652.770 5
  19557005.713   -10146016.151 7  -7825283.474 9
  19725714.799   -10725519.954 6  -8271112.244 7
  20940639.268   -17915051.509 6 -13863968.886 6
  19643123.275   -27957272.319 7 -21685590.252 8
  21585199.424    -8210919.610 5  -6292416.284 5
 94  1 20 18 50 59.9940000  0  6  1 25 15 29 14 22
  22955732.729     6391490.853 4   4964912.503 5
  19559503.721   -10132877.227 7  -7815045.377 9
  19729324.025   -10706570.849 7  -8256346.737 7
  20921714.541   -18014520.777 6 -13941477.371 6
  19621672.697   -28069990.091 7 -21773422.275 8
  21560155.197    -8342503.590 5  -6394949.310 5
 94  1 20 18 51 29.9940000  0  6  1 25 15 29 14 22
  22961652.283     6422630.447 5   4989177.006 3
  19562082.127   -10119323.492 7  -7804484.044 9
  19733024.236   -10687134.847 6  -8241201.834 7
  20902806.565   -18113859.009 6 -14018883.759 6
  19600274.729   -28182442.071 7 -21861047.194 8
  21535147.268    -8473924.224 5  -6497355.051 5
 94  1 20 18 51 59.9940000  0  6  1 25 15 29 14 22
  22967572.619     6453772.357 4   5013443.336 3
  19564743.010   -10105342.697 7  -7793589.937 9
  19736815.416   -10667207.776 6  -8225674.283 7
  20883932.072   -18213059.511 6 -14096182.830 6
  19578925.721   -28294623.026 7 -21948460.925 8
  21510177.643    -8605139.135 5  -6599600.489 5
 94  1 20 18 52 29.9940000  0  6  1 25 15 29 14 22
  22973509.346     6484902.197 5   5037700.250 3
  19567483.190   -10090943.307 7  -7782369.652 9
  19740698.604   -10646799.908 6  -8209772.082 7
  20865078.432   -18312130.993 6 -14173381.345 6
  19557628.041   -28406545.620 7 -22035673.336 8
  21485248.666    -8736142.104 5  -6701680.746 5
 94  1 20 18 52 59.9940000  0  6  1 25 15 29 14 22
  22979425.815     6516028.369 4   5061954.301 4
  19570300.549   -10076137.186 7  -7770832.432 9
  19744671.354   -10625914.921 6  -8193498.097 7
  20846247.611   -18411081.871 6 -14250485.893 6
  19536378.385   -28518212.971 7 -22122686.861 8
  21460362.525    -8866936.447 5  -6803598.451 5
 94  1 20 18 53 29.9940000  0  6  1 25 15 29 14 22
  22985354.955     6547145.546 5   5086201.319 1
  19573190.229   -10060955.074 7  -7759002.239 9
  19748733.682   -10604566.146 6  -8176862.720 7
  20827441.010   -18509917.424 6 -14327500.576 6
  19515174.947   -28629637.958 7 -22209511.525 8
  21435507.322    -8997540.114 5  -6905367.565 5
 94  1 20 18 53 59.9940000  0  6  1 25 15 29 14 22
  22991270.096     6578263.336 4   5110448.816 4
  19576158.611   -10045358.693 7  -7746849.229 9
  19752890.072   -10582733.645 6  -8159850.418 7
  20808662.025   -18608608.718 6 -14404402.861 6
  19494021.330   -28740794.106 7 -22296126.707 8
  21410694.971    -9127953.541 5  -7006988.410 5
 94  1 20 18 54 29.9940000  0  6  1 25 15 29 14 22
  22997196.440     6609363.105 4   5134682.300 3
  19579199.783   -10029369.819 7  -7734390.389 9
  19757133.307   -10560433.845 6  -8142473.986 7
  20789906.619   -18707168.636 6 -14481202.770 6
  19472919.174   -28851698.326 7 -22382545.578 8
  21385901.963    -9258219.016 5  -7108493.966 5
 94  1 20 18 54 59.9940000  0  6  1 25 15 29 14 22
  23003102.299     6640434.693 3   5158893.788 2
  19582317.939   -10012983.402 7  -7721621.767 9
  19761468.604   -10537661.983 6  -8124729.706 7
  20771176.252   -18805592.497 6 -14557896.680 6
  19451864.752   -28962330.663 7 -22468752.586 8
  21361143.182    -9388339.401 5  -7209886.476 5
 94  1 20 18 55 29.9940000  0  5 25 15 29 14 22
  19585512.221    -9996202.458 7  -7708545.718 9
  19765889.010   -10514424.928 6  -8106622.936 7
  20752468.815   -18903896.099 6 -14634496.858 6
  19430865.408   -29072693.203 7 -22554749.363 8
  21336408.713    -9518317.921 5  -7311168.410 5
 94  1 20 18 55 59.9940000  0  5 25 15 29 14 22
  19588780.385    -9979038.534 7  -7695171.243 9
  19770392.963   -10490733.750 6  -8088162.310 7
  20733780.658   -19002100.444 6 -14711019.718 6
  19409915.760   -29182783.184 7 -22640533.755 8
  21311698.275    -9648157.006 5  -7412341.696 5
 94  1 20 18 56 29.9940000  0  5 25 15 29 14 22
  19592116.018    -9961502.695 7  -7681506.964 9
  19774993.307   -10466575.836 6  -8069337.999 7
  20715118.158   -19100189.057 6 -14787452.405 6
  19389018.838   -29292585.678 7 -22726094.136 8
  21287020.400    -9777826.517 5  -7513382.849 5
 94  1 20 18 56 59.9930000  0  5 25 15 29 14 22
  19595519.255    -9943613.497 7  -7667567.343 9
  19779676.966   -10441971.043 6  -8050165.467 7
  20696468.716   -19198177.693 6 -14863807.168 6
  19368179.927   -29402105.535 7 -22811434.274 8
  21262383.013    -9907319.497 5  -7614286.437 5
 94  1 20 18 57 29.9930000  0  5 25 15 29 14 22
  19598996.021    -9925352.197 7  -7653337.763 9
  19784441.825   -10416909.305 6  -8030636.865 7
  20677844.786   -19296050.959 6 -14940072.027 6
  19347391.575   -29511345.535 7 -22896556.339 9
  21237775.380   -10036622.238 5  -7715041.776 5
 94  1 20 18 57 59.9930000  0  5 25 15 29 14 22
  19602542.731    -9906704.083 7  -7638806.774 9
  19789305.013   -10391377.904 6  -8010742.298 7
  20659251.825   -19393770.265 6 -15016216.932 6
  19326661.692   -29620280.360 7 -22981440.604 9
  21213213.396   -10165709.009 5  -7815628.822 5
 94  1 20 18 58 29.9930000  0  5 25 15 29 14 22
  19606166.302    -9887673.365 7  -7623977.657 9
  19794245.646   -10365389.466 6  -7990491.603 7
  20640682.935   -19491341.675 6 -15092246.591 6
  19305988.833   -29728916.377 7 -23066092.031 9
  21188689.911   -10294586.272 5  -7916052.630 5
 94  1 20 18 58 59.9930000  0  5 25 15 29 14 22
  19609857.896    -9868268.552 7  -7608857.034 9
  19799276.896   -10338975.708 6  -7969909.488 7
  20622138.927   -19588789.986 6 -15168180.320 6
  19285369.216   -29837273.797 7 -23150526.367 9
  21164198.778   -10423273.104 5  -8016328.036 5
 94  1 20 18 59 29.9930000  0  5 25 15 29 14 22
  19613626.669    -9848470.911 7  -7593430.304 9
  19804384.177   -10312117.142 6  -7948980.768 7
  20603622.724   -19686097.234 6 -15244004.143 6
  19264806.091   -29945333.564 7 -23234728.768 9
  21139751.810   -10551739.451 5  -8116431.629 5
 94  1 20 18 59 59.9930000  0  5 25 15 29 14 22
  19617466.161    -9828290.633 7  -7577705.426 9
  19809580.247   -10284815.211 6  -7927706.569 7
  20585132.286   -19783268.694 6 -15319722.151 6
  19244299.911   -30053089.629 7 -23318694.513 9
  21115348.755   -10679975.745 5  -8216355.965 5
 94  1 20 19  0 29.9930000  0  5 25 15 29 14 22
  19621377.153    -9807728.403 7  -7561682.920 9
  19814862.388   -10257073.039 6  -7906089.329 7
  20566665.106   -19880314.771 6 -15395342.461 6
  19223851.052   -30160551.142 7 -23402430.741 9
  21090995.997   -10807972.816 5  -8316093.889 5
 94  1 20 19  0 59.9930000  0  5 25 15 29 14 22
  19625360.544    -9786801.058 7  -7545375.908 9
  19820220.786   -10228895.840 6  -7884133.100 7
  20548215.950   -19977242.006 6 -15470870.156 6
  19203457.896   -30267724.611 7 -23485942.512 9
  21066684.271   -10935722.709 5  -8415639.195 5
 94  1 20 19  1 29.9930000  0  5 25 15 29 14 22
  19629411.685    -9765520.820 7  -7528793.921 9
  19825664.591   -10200285.903 6  -7861839.683 7
  20529796.239   -20074061.842 6 -15546314.182 6
  19183117.942   -30374609.652 7 -23569229.544 9
  21042419.091   -11063228.322 5  -8514994.145 5
 94  1 20 19  1 59.9930000  0  5 25 15 29 14 22
  19633525.896    -9743894.043 7  -7511941.910 9
  19831191.528   -10171250.654 6  -7839214.836 7
  20511389.177   -20170767.225 6 -15621669.012 6
  19162834.294   -30481203.072 7 -23652289.334 9
  21018201.552   -11190504.051 6  -8614169.953 5
 94  1 20 19  2 29.9930000  0  5 25 15 29 14 22
  19637708.677    -9721908.092 7  -7494810.024 9
  19836801.114   -10141783.762 6  -7816253.656 7
  20493014.794   -20267344.771 6 -15696924.236 6
  19142608.060   -30587492.684 7 -23735112.391 9
  20994025.224   -11317542.312 6  -8713160.731 5
 94  1 20 19  2 59.9930000  0  5 25 15 29 14 22
  19641959.364    -9699568.158 7  -7477402.302 9
  19842490.083   -10111895.023 6  -7792963.765 7
  20474662.653   -20363792.712 6 -15772078.452 6
  19122440.067   -30693468.864 7 -23817691.220 9
  20969895.708   -11444360.520 6  -8811980.024 5
 94  1 20 19  3 29.9930000  0  5 25 15 29 14 22
  19646279.919    -9676862.607 7  -7459709.694 9
  19848256.935   -10081586.114 6  -7769346.462 7
  20456334.294   -20460100.156 6 -15847123.218 6
  19102333.810   -30799123.041 7 -23900019.136 9
  20945800.810   -11570969.598 6  -8910636.361 5
 94  1 20 19  3 59.9930000  0  5 25 15 29 14 22
  19650668.771    -9653796.408 7  -7441736.056 9
  19854103.567   -10050860.274 6  -7745404.279 7
  20438036.099   -20556263.520 6 -15922055.705 6
  19082291.856   -30904452.089 7 -23982093.703 9
  20921744.708   -11697369.776 6  -9009129.919 5
 94  1 20 19  4 29.9930000  0  5 25 15 29 14 22
  19655128.185    -9630367.340 7  -7423479.668 9
  19860029.091   -10019721.284 6  -7721140.160 7
  20419758.825   -20652301.686 6 -15996890.631 7
  19062309.606   -31009456.319 7 -24063915.159 9
  20897736.833   -11823550.719 6  -9107452.635 5
 94  1 20 19  4 59.9930000  0  5 25 15 29 14 22
  19659657.044    -9606568.689 7  -7404935.294 8
  19866034.989    -9988160.445 6  -7696547.338 7
  20401505.403   -20748215.345 6 -16071628.544 6
  19042395.544   -31114112.266 7 -24145465.227 9
  20873771.786   -11949493.176 6  -9205589.518 6
 94  1 20 19  5 29.9930000  0  5 25 15 29 14 22
  19664252.442    -9582423.768 7  -7386121.097 9
  19872118.192    -9956195.067 6  -7671639.289 7
  20383276.935   -20844025.284 6 -16146285.638 7
  19022542.075   -31218433.069 7 -24226754.148 9
  20849847.013   -12075195.760 5  -9303539.491 6
 94  1 20 19  5 59.9930000  0  5 25 15 29 14 22
  19668913.427    -9557929.343 7  -7367034.563 9
  19878277.341    -9923826.637 6  -7646417.174 7
  20365063.208   -20939726.875 6 -16220858.289 7
  19002756.091   -31322418.122 7 -24307781.438 9
  20825976.974   -12200647.054 6  -9401293.646 6
 94  1 20 19  6 29.9930000  0  5 25 15 29 14 22
  19673640.989    -9533080.613 7  -7347671.951 8
  19884511.528    -9891052.595 6  -7620878.989 7
  20346873.028   -21035308.703 6 -16295337.628 7
  18983033.099   -31426064.251 7 -24388544.637 9
  20802156.927   -12325824.003 6  -9498834.032 6
 94  1 20 19  6 59.9930000  0  5 25 15 29 14 22
  19678437.067    -9507894.219 7  -7328046.219 8
  19890822.505    -9857881.587 6  -7595031.483 7
  20328709.716   -21130761.944 6 -16369716.769 7
  18963372.481   -31529374.647 7 -24469046.224 9
  20778388.505   -12450726.824 6  -9596160.818 6
 94  1 20 19  7 29.9930000  0  5 25 15 29 14 22
  19683292.677    -9482367.194 7  -7308155.055 8
  19897212.825    -9824309.277 6  -7568871.279 7
  20310575.536   -21226062.299 6 -16443976.749 6
  18943775.396   -31632359.232 7 -24549293.936 9
  20754672.388   -12575352.812 6  -9693271.908 6
 94  1 20 19  7 59.9930000  0  5 25 15 29 14 22
  19688212.669    -9456509.130 7  -7288005.938 8
  19903677.778    -9790346.538 6  -7542406.849 7
  20292467.200   -21321216.827 6 -16518123.126 6
  18924238.192   -31735029.710 7 -24629296.894 9
  20731010.731   -12699703.416 6  -9790168.407 6
 94  1 20 19  8 29.9930000  0  5 25 15 29 14 22
  19693196.403    -9430331.011 7  -7267607.438 8
  19910213.669    -9755991.774 6  -7515636.950 7
  20274385.981   -21416235.023 6 -16592163.244 7
  18904763.778   -31837370.196 7 -24709042.709 9
  20707400.981   -12823773.830 6  -9886846.573 6
 94  1 20 19  8 59.9930000  0  5 25 15 29 14 22
  19698236.935    -9403833.098 7  -7246959.740 8
  19916823.935    -9721248.277 6  -7488564.135 7
  20256333.255   -21511123.437 6 -16666102.248 7
  18885352.528   -31939373.623 7 -24788525.885 9
  20683835.169   -12947583.756 6  -9983321.785 5
 94  1 20 19  9 29.9930000  0  5 25 15 29 14 22
  19703343.528    -9376998.323 7  -7226049.548 8
  19923511.224    -9686118.184 6  -7461190.080 6
  20238293.692   -21605892.594 6 -16739948.314 6
  18866007.028   -32041043.845 7 -24867749.422 9
  20660323.583   -13071139.585 6 -10079598.987 6
 94  1 20 19  9 59.9930000  0  5 25 15 29 14 22
  19708517.302    -9349816.394 7  -7204868.842 8
  19930267.239    -9650596.059 6  -7433510.542 6
  20220284.325   -21700557.551 6 -16813713.184 7
  18846726.567   -32142353.127 7 -24946691.706 9
  20636862.185   -13194431.490 6 -10175670.528 6
 94  1 20 19 10 29.9930000  0  5 25 15 29 14 22
  19713751.083    -9322300.189 7  -7183427.672 8
  19937103.427    -9614693.691 6  -7405534.715 6
  20202289.536   -21795127.924 6 -16887404.352 7
  18827513.146   -32243315.790 7 -25025363.900 9
  20613450.732   -13317472.674 6 -10271546.711 6
 94  1 20 19 10 59.9930000  0  5 25 15 29 14 22
  19719056.817    -9294433.201 7  -7161713.151 8
  19944006.794    -9578404.112 6  -7377257.168 7
  20184312.653   -21889589.243 6 -16961010.537 7
  18808366.927   -32343932.443 7 -25103766.469 9
  20590086.731   -13440240.164 6 -10367209.625 6
 94  1 20 19 11 29.9930000  0  5 25 15 29 14 22
  19724420.083    -9266241.110 7  -7139745.312 8
  19950985.185    -9541746.277 6  -7348692.664 7
  20166354.825   -21983950.025 6 -17034538.378 7
  18789284.489   -32444211.544 7 -25181906.017 9
  20566781.856   -13562724.106 6 -10462651.588 6
 94  1 20 19 11 59.9930000  0  5 25 15 29 14 22
  19729846.755    -9237733.511 7  -7117531.619 8
  19958029.153    -9504708.916 6  -7319832.422 7
  20148420.380   -22078182.295 6 -17107966.100 7
  18770273.552   -32544122.007 7 -25259758.309 9
  20543531.427   -13684891.236 6 -10557846.684 6
 94  1 20 19 12 29.9930000  0  5 25 15 29 14 22
  19735329.591    -9208909.530 7  -7095071.390 8
  19965153.474    -9467290.679 6  -7290675.404 6
  20130522.185   -22172257.629 6 -17181271.529 7
  18751331.052   -32643658.743 7 -25337319.394 9
  20520352.388   -13806720.041 6 -10652778.149 6
 94  1 20 19 12 59.9930000  0  5 25 15 29 14 22
  19740874.778    -9179779.966 7  -7072373.042 8
  19972340.356    -9429504.349 6  -7261231.558 6
  20112644.403   -22266188.814 6 -17254464.638 7
  18732464.786   -32742811.093 7 -25414580.952 9
  20497231.310   -13928214.761 6 -10747449.281 6
 94  1 20 19 13 29.9930000  0  5 25 15 29 14 22
  19746474.481    -9150355.216 7  -7049444.693 8
  19979600.575    -9391353.592 6  -7231503.741 6
  20094797.653   -22359980.087 6 -17327548.724 7
  18713670.044   -32841576.650 7 -25491541.119 9
  20474173.138   -14049385.514 6 -10841867.973 6
 94  1 20 19 13 59.9930000  0  5 25 15 29 14 22
  19752127.739    -9120631.118 7  -7026283.085 8
  19986931.833    -9352845.303 6  -7201497.331 6
  20076976.536   -22453639.787 6 -17400530.293 7
  18694945.185   -32939970.383 7 -25568211.553 9
  20451173.942   -14170243.369 6 -10936042.837 6
 94  1 20 19 14 29.9930000  0  5 25 15 29 14 22
  19757845.224    -9090592.794 7  -7002876.621 8
  19994325.060    -9313976.308 6  -7171209.844 6
  20059175.271   -22547171.563 6 -17473412.169 7
  18676291.903   -33037998.017 7 -25644596.712 9
  20428235.935   -14290790.384 6 -11029975.494 6
 94  1 20 19 14 59.9920000  0  5 25 15 29 14 22
  19763620.719    -9060247.391 7  -6979230.864 8
  20001787.297    -9274757.784 6  -7140650.004 6
  20041398.055   -22640591.375 6 -17546206.814 7
  18657706.914   -33135669.667 7 -25720704.478 9
  20405352.758   -14411040.334 6 -11123676.671 6
 94  1 20 19 15 29.9920000  0  5 25 15 29 14 22
  19769453.906    -9029590.162 7  -6955342.132 8
  20009319.984    -9235189.537 6  -7109817.658 6
  20023647.828   -22733891.271 6 -17618908.024 7
  18639182.891   -33232998.949 7 -25796545.478 9
  20382520.563   -14531007.541 6 -11217157.520 6
 94  1 20 19 15 59.9920000  0  5 25 15 29 14 22
  19775345.102    -8998623.192 7  -6931212.043 8
  20016914.289    -9195280.874 6  -7078720.042 6
  20005912.688   -22827060.018 6 -17691507.034 7
  18620729.930   -33329977.185 7 -25872112.931 9
  20359753.000   -14650685.442 6 -11310412.936 6
 94  1 20 19 16 29.9920000  0  5 25 15 29 14 22
  19781299.961    -8967336.009 7  -6906832.449 8
  20024575.281    -9155024.868 6  -7047351.776 6
  19988213.149   -22920091.102 6 -17763998.769 7
  18602344.250   -33426585.078 7 -25947391.810 9
  20337034.664   -14770060.385 6 -11403432.290 6
 94  1 20 19 16 59.9920000  0  5 25 15 29 14 22
  19787313.125    -8935741.755 7  -6882213.569 8
  20032298.625    -9114429.217 6  -7015718.848 6
  19970537.828   -23012982.374 6 -17836381.566 7
  18584031.523   -33522816.875 7 -26022377.628 9
  20314374.461   -14889129.135 6 -11496213.059 6
 94  1 20 19 17 29.9920000  0  5 25 15 29 14 22
  19793382.203    -8903849.676 7  -6857362.612 8
  20040089.125    -9073495.231 6  -6983822.283 6
  19952889.375   -23105729.404 6 -17908651.966 7
  18565792.914   -33618662.388 7 -26097062.445 9
  20291779.328   -15007867.238 6 -11588736.177 6
 94  1 20 19 17 59.9920000  0  5 25 15 29 14 22
  19799507.188    -8871662.865 7  -6832281.999 8
  20047941.211    -9032221.612 6  -6951661.083 6
  19935264.109   -23198344.166 6 -17980819.304 7
  18547630.883   -33714108.655 7 -26171436.162 9
  20269251.172   -15126239.066 6 -11680973.890 6
 94  1 20 19 18 29.9920000  0  5 25 15 29 14 22
  19805685.969    -8839190.790 7  -6806979.102 8
  20055859.852    -8990614.086 6  -6919239.678 6
  19917657.336   -23290844.377 6 -18052897.364 7
  18529545.797   -33809162.662 7 -26245504.222 9
  20246797.016   -15244238.380 6 -11772921.343 6
 94  1 20 19 18 59.9920000  0  5 25 15 29 14 22
  19811916.805    -8806451.912 7  -6781468.319 8
  20063838.406    -8948681.828 6  -6886565.251 6
  19900081.625   -23383235.121 6 -18124890.142 7
  18511527.180   -33903830.305 7 -26319271.224 9
  20224413.656   -15361871.476 6 -11864583.434 6
 94  1 20 19 19 29.9920000  0  5 25 15 29 14 22
  19818197.938    -8773439.415 7  -6755744.327 8
  20071877.984    -8906427.274 6  -6853639.673 6
  19882516.563   -23475525.191 6 -18196804.468 7
  18493587.797   -33998114.465 7 -26392739.404 9
  20202100.445   -15479139.023 6 -11955960.685 6
 94  1 20 19 19 59.9920000  0  5 25 15 29 14 22
  19824535.531    -8740136.994 7  -6729794.408 8
  20079981.820    -8863844.731 6  -6820458.518 6
  19864973.383   -23567708.168 6 -18268635.326 7
  18475719.898   -34092009.812 7 -26465904.613 9
  20179851.649   -15596056.026 6 -12047064.778 6
 94  1 20 19 20 29.9920000  0  5 25 15 29 14 22
  19830928.164    -8706543.765 7  -6703617.887 8
  20088148.125    -8820936.074 6  -6787023.252 6
  19847456.664   -23659766.164 7 -18340368.807 7
  18457925.414   -34185520.444 7 -26538770.037 9
  20157663.266   -15712649.435 6 -12137916.732 6
 94  1 20 19 20 59.9920000  0  5 25 15 29 14 22
  19837376.586    -8672657.438 7  -6677212.984 8
  20096374.641    -8777708.100 6  -6753339.173 6
  19829967.453   -23751689.050 6 -18411997.018 7
  18440203.055   -34278640.590 7 -26611331.189 9
  20135534.125   -15828934.950 6 -12228528.763 6
 94  1 20 19 21 29.9920000  0  5 25 15 29 14 22
  19843877.125    -8638492.222 7  -6650590.766 8
  20104656.992    -8734176.379 6  -6719418.405 6
  19812494.813   -23843484.509 6 -18483525.901 7
  18422558.008   -34371370.790 7 -26683588.482 9
  20113460.922   -15944920.527 6 -12318907.070 6
 94  1 20 19 21 59.9920000  0  6 18 25 15 29 14 22
  22418597.664          -0.73513
  19850429.633    -8604057.389 7  -6623758.462 8
  20113000.609    -8690340.248 6  -6685260.428 6
  19795055.563   -23935138.263 6 -18554944.392 7
  18404988.805   -34463699.840 7 -26755533.200 9
  20091452.492   -16060593.426 6 -12409041.739 6
 94  1 20 19 22 29.9920000  0  6 18 25 15 29 14 22
  22395403.688     -121875.969 3
  19857036.313    -8569336.491 7  -6596703.245 7
  20121403.992    -8646183.837 6  -6650852.893 6
  19777643.922   -24026629.952 6 -18626236.581 7
  18387504.828   -34555597.398 7 -26827141.684 9
  20069504.524   -16175919.638 6 -12498906.257 6
 94  1 20 19 22 59.9920000  0  6 18 25 15 29 14 22
  22372228.102     -243683.533 3        -0.42012
  19863695.953    -8534340.865 7  -6569433.944 7
  20129865.844    -8601718.884 6  -6616204.926 6
  19760257.742   -24117988.037 6
  18370097.609   -34647064.208 7
  20047630.758   -16290882.130 6 -12588487.355 6
 94  1 20 19 23 29.9920000  0  6 18 25 15 29 14 22
  22349058.648     -365426.170 3    -94864.772 2
  19870403.750    -8499095.488 7  -6541970.042 8
  20138383.969    -8556958.032 6  -6581326.396 6
  19742896.578   -24209227.618 7 -18768520.420 7
  18352768.461   -34738125.833 7 -26969371.637 9
  20025823.891   -16405474.393 6 -12677779.976 6
 94  1 20 19 23 59.9920000  0  6 18 25 15 29 14 22
  22325911.938     -487104.197 3   -189678.782 1
  19877159.492    -8463596.200 7  -6514308.280 8
  20146957.086    -8511901.813 6  -6546217.707 6
  19725560.500   -24300345.129 7 -18839521.051 7
  18335513.992   -34828788.406 7 -27040017.788 9
  20004089.563   -16519684.194 6 -12766774.568 6
 94  1 20 19 24 29.9920000  0  6 18 25 15 29 14 22
  22302763.563     -608726.134 3   -284449.074 1
  19883966.094    -8427826.236 7  -6486435.613 7
  20155587.047    -8466543.232 6  -6510873.410 6
  19708242.508   -24391335.900 7 -18910422.922 7
  18318340.766   -34919040.412 7 -27110344.016 9
  19982430.875   -16633497.283 6 -12855460.036 6
 94  1 20 19 24 59.9920000  0  6 18 25 15 29 14 22
  22279626.938     -730310.824 3   -379190.442 1
  19890819.336    -8391807.305 7  -6458368.947 7
  20164275.547    -8420903.071 6  -6475309.700 6
  19690952.602   -24482214.208 7 -18981237.155 7
  18301239.156   -35008898.312 7 -27180363.151 8
  19960847.258   -16746920.683 6 -12943841.853 6
 94  1 20 19 25 29.9920000  0  6 18 25 15 29 14 22
  22256497.016     -851855.054 3   -473900.263 2
  19897723.203    -8355524.938 7  -6430096.997 7
  20173014.399    -8374975.137 6  -6439521.754 6
  19673685.031   -24572957.461 7 -19051946.153 7
  18284220.594   -35098340.902 7 -27250058.659 9
  19939337.430   -16859944.833 6 -13031912.558 6
 94  1 20 19 25 59.9920000  0  6 18 25 15 29 14 22
  22233373.844     -973365.240 3   -568583.566 4
  19904683.445    -8318958.822 7  -6401603.947 7
  20181807.258    -8328758.824 6  -6403509.100 6
  19656441.055   -24663565.631 7 -19122549.907 7
  18267284.969   -35187339.366 7 -27319408.103 9
  19917912.070   -16972563.339 6 -13119667.176 6
 94  1 20 19 26 29.9920000  0  6 18 25 15 29 14 22
  22210258.555    -1094840.913 3   -663239.934 2
  19911695.836    -8282104.811 7  -6372886.561 7
  20190653.649    -8282256.848 6  -6367273.845 5
  19639222.922   -24754040.558 7 -19193049.822 7
  18250434.703   -35275884.266 7 -27388404.115 8
  19896554.227   -17084783.004 6 -13207111.014 6
 94  1 20 19 26 59.9920000  0  6 18 25 15 29 14 22
  22187150.883    -1216295.047 3   -757879.525 2
  19918759.336    -8244988.314 7  -6343964.647 7
  20199556.703    -8235491.473 6  -6330833.359 6
  19622026.328   -24844395.217 7 -19263456.037 7
  18233669.656   -35363996.527 7 -27457063.006 9
  19875269.539   -17196623.575 6 -13294259.448 6
 94  1 20 19 27 29.9920000  0  6 18 25 15 29 14 22
  22164036.430    -1337716.855 3   -852493.945 2
  19925872.609    -8207608.135 7  -6314837.264 7
  20208508.391    -8188446.443 6  -6294174.940 6
  19604858.906   -24934616.486 7 -19333758.310 7
  18216984.531   -35451667.287 7 -27525377.877 9
  19854067.469   -17308071.252 6 -13381101.733 6
 94  1 20 19 27 59.9920000  0  6 18 25 15 29 14 22
  22140936.578    -1459114.715 3   -947089.696 2
  19933031.531    -8169991.931 7  -6285525.971 7
  20217510.773    -8141139.177 6  -6257312.185 6
  19587715.867   -25024723.439 7 -19403971.507 7
  18200379.414   -35538925.170 7 -27593371.020 9
  19832926.406   -17419149.570 6 -13467656.217 6
 94  1 20 19 28 29.9920000  0  6 18 25 15 29 14 22
  22117847.063    -1580469.804 3  -1041652.095 2
  19940231.703    -8132150.150 7  -6256038.905 7
  20226566.820    -8093558.354 6  -6220236.277 6
  19570590.938   -25114708.421 7 -19474089.667 8
  18183854.031   -35625769.460 7 -27661041.892 9
  19811865.789   -17529844.001 6 -13553911.575 6
 94  1 20 19 28 59.9920000  0  6 18 25 15 29 14 22
  22094761.953    -1701772.427 3  -1136173.615 1
  19947474.398    -8094092.006 7  -6226383.244 7
  20235675.375    -8045698.131 6  -6182942.649 6
  19553488.250   -25204569.288 7 -19544111.110 7
  18167410.766   -35712191.783 7 -27728383.945 9
  19790874.774   -17640129.081 6 -13639847.947 6
 94  1 20 19 29 29.9920000  0  6 18 25 15 29 14 22
  22071687.758    -1823025.307 3  -1230656.403 2
  19954758.492    -8055814.490 7  -6196556.642 7
  20244831.969    -7997564.630 6  -6145436.081 6
  19536412.664   -25294322.290 7 -19614048.514 7
  18151043.547   -35798182.529 7 -27795389.708 9
  19769968.711   -17750003.982 6 -13725464.707 6
 94  1 20 19 29 59.9920000  0  6 18 25 15 29 14 22
  22048618.039    -1944239.065 3  -1325108.634 2
  19962083.992    -8017314.975 7  -6166557.067 7
  20254044.078    -7949175.662 6  -6107730.458 6
  19519348.445   -25383975.475 7 -19683908.144 7
  18134766.766   -35883739.343 7 -27862057.346 9
  19749131.398   -17859481.321 6 -13810771.690 6
 94  1 20 19 30 29.9920000  0  6 18 25 15 29 14 22
  22025566.805    -2065397.106 3  -1419517.422 2
  19969453.984    -7978584.539 7  -6136377.544 7
  20263298.328    -7900522.211 6  -6069818.730 6
  19502313.148   -25473499.368 7 -19753667.015 7
  18118570.977   -35968840.923 7 -27928370.250 9
  19728382.992   -17968536.182 6 -13895749.473 6
 94  1 20 19 30 59.9920000  0  6 18 25 15 29 14 22
  22002519.633    -2186507.636 3  -1513889.224 1
  19976868.180    -7939623.857 7  -6106018.606 7
  20272606.227    -7851624.336 6  -6031716.547 6
  19485301.977   -25562895.341 7 -19823326.209 7
  18102463.109   -36053497.382 7 -27994336.304 9
  19707703.781   -18077185.053 6 -13980410.903 6
 94  1 20 19 31 29.9920000  0  6 18 25 15 29 14 22
  21979488.242    -2307558.336 4  -1608214.414 2
  19984330.805    -7900410.769 7  -6075462.994 7
  20281955.625    -7802477.708 6  -5993420.520 6
  19468320.547   -25652143.770 7 -19892870.444 7
  18086434.000   -36137711.429 7 -28059957.623 9
  19687106.883   -18185425.114 6 -14064753.770 6
 94  1 20 19 31 59.9920000  0  6 18 25 15 29 14 22
  21956467.758    -2428531.835 4  -1702479.449 1
  19991839.828    -7860942.180 7  -6044708.288 7
  20291356.766    -7753076.490 6  -5954926.123 6
  19451367.867   -25741222.696 7 -19962282.588 7
  18070492.070   -36221490.344 7 -28125239.879 9
  19666592.789   -18293248.845 6 -14148772.226 7
 94  1 20 19 32 29.9920000  0  6 18 25 15 29 14 22
  21933457.930    -2549446.077 3  -1796698.275 2
  19999393.852    -7821250.586 6  -6013779.823 7
  20300803.391    -7703440.098 6  -5916248.470 6
  19434447.547   -25830155.054 7 -20031580.523 7
  18054629.422   -36304850.770 7 -28190196.035 9
  19646151.227   -18400667.595 6 -14232475.113 6
 94  1 20 19 32 59.9910000  0  6 18 25 15 29 14 22
  21910454.269    -2670311.252 3  -1890878.891 2
  20006992.026    -7781325.202 7  -5982669.185 7
  20310292.776    -7653568.530 6  -5877387.547 6
  19417546.245   -25918956.323 7 -20100776.305 7
  18038849.315   -36387775.915 7 -28254813.006 9
  19625785.808   -18507683.093 6 -14315863.774 7
 94  1 20 19 33 29.9910000  0  6 18 25 15 29 14 22
  21887461.636    -2791125.217 4  -1985019.585 2
  20014637.948    -7741145.208 7  -5951360.139 7
  20319834.183    -7603441.449 6  -5838327.550 6
  19400674.808   -26007617.674 7 -20169863.058 8
  18023159.698   -36470232.433 7 -28319064.820 9
  19605499.292   -18614273.956 6 -14398921.545 7
 94  1 20 19 33 59.9910000  0  6 18 25 15 29 14 22
  21864482.526    -2911902.115 3  -2079131.372 5
  20022326.237    -7700742.379 6  -5919877.463 7
  20329415.440    -7553078.810 6  -5799083.986 6
  19383829.690   -26096154.981 7 -20238853.143 8
  18007557.612   -36552207.552 7 -28382941.517 9
  19585296.706   -18720448.109 6 -14481654.602 7
 94  1 20 19 34 29.9910000  0  6 18 25 15 29 14 22
  21841501.534    -3032647.628 3  -2173218.699 2
  20030055.894    -7660116.084 6  -5888220.657 7
  20339043.894    -7502483.364 6  -5759659.004 6
  19366998.745   -26184572.670 7 -20307750.022 8
  17992055.511   -36633683.168 7 -28446428.995 9
  19565176.573   -18826190.071 6 -14564050.886 7
 94  1 20 19 34 59.9910000  0  6 18 25 15 29 14 22
  21818535.839    -3153354.230 4  -2267275.788 2
  20037832.019    -7619257.777 6  -5856383.068 7
  20348713.323    -7451665.178 6  -5720060.473 6
  19350197.940   -26272870.934 7 -20376553.844 8
  17976641.784   -36714670.333 7 -28509535.863 9
  19545138.714   -18931495.810 6 -14646107.251 7
 94  1 20 19 35 29.9910000  0  6 18 25 15 29 14 22
  21795577.894    -3273992.370 3  -2361279.448 3
  20045651.464    -7578163.066 6  -5824361.275 7
  20358427.534    -7400615.147 6  -5680281.281 6
  19333424.417   -26361027.143 7 -20445246.965 8
  17961324.745   -36795170.837 7 -28572263.519 9
  19525188.409   -19036336.910 6 -14727801.550 7
 94  1 20 19 35 59.9910000  0  6 18 25 15 29 14 22
  21772629.073    -3394574.784 4  -2455239.693 4
  20053511.644    -7536861.125 6  -5792178.002 7
  20368183.761    -7349351.450 6  -5640335.583 6
  19316670.948   -26449063.960 7 -20513847.054 8
  17946092.995   -36875223.896 7 -28634642.511 9
  19505317.948   -19140730.478 6 -14809147.113 7
 94  1 20 19 36 29.9910000  0  6 18 25 15 29 14 22
  21749695.550    -3515105.726 3  -2549159.850 3
  20061410.347    -7495345.909 6  -5759828.519 6
  20377979.737    -7297878.379 6  -5600226.761 5
  19299937.761   -26536993.139 7 -20582363.275 8
  17930942.690   -36954839.343 7 -28696680.508 9
  19485536.847   -19244678.100 6 -14890145.191 7
 94  1 20 19 36 59.9910000  0  6 18 25 15 29 14 22
  21726772.105    -3635585.717 4  -2643040.294 2
  20069353.894    -7453616.434 6  -5727312.090 7
  20387813.784    -7246192.345 6  -5559951.985 5
  19283224.972   -26624813.264 7 -20650794.511 8
  17915873.448   -37034021.326 7 -28758380.738 9
  19465846.120   -19348178.579 6 -14970794.850 7
 94  1 20 19 37 29.9910000  0  6 18 25 15 29 14 22
  21703853.675    -3756025.215 4  -2736889.206 3
  20077331.948    -7411684.288 6  -5694637.749 7
  20397692.901    -7194293.200 6  -5519511.158 5
  19266536.784   -26712522.828 7 -20719139.597 8
  17900887.237   -37112762.157 7 -28819737.211 9
  19446236.769   -19451232.784 6 -15051096.760 7
 94  1 20 19 37 59.9910000  0  6 18 25 15 29 14 22
  21680937.370    -3876424.217 4  -2830706.528 4
  20085352.823    -7369543.441 6  -5661800.779 7
  20407607.003    -7142180.926 6  -5478904.239 5
  19249868.878   -26800112.124 7 -20787390.978 8
  17885991.714   -37191047.181 7 -28880738.516 9
  19426708.987   -19553835.127 6 -15131046.571 7
 94  1 20 19 38 29.9910000  0  6 18 25 15 29 14 22
  21658038.190    -3996784.267 4  -2924493.494 3
  20093410.761    -7327204.223 6  -5628809.242 6
  20417563.378    -7089872.282 6  -5438144.327 5
  19233222.542   -26887571.044 7 -20855540.760 8
  17871184.776   -37268865.911 7 -28941376.470 8
  19407266.378   -19655988.809 6 -15210646.763 7
 94  1 20 19 38 59.9910000  0  6 18 25 15 29 14 22
  21635142.917    -4117088.128 3  -3018236.681 2
  20101500.651    -7284676.997 6  -5595671.201 6
  20427552.526    -7037370.968 6  -5397234.275 5
  19216614.339   -26974879.356 7 -20923573.188 8
  17856464.058   -37346213.062 7 -29001646.964 8
  19387914.730   -19757694.256 6 -15289897.695 7
 94  1 20 19 39 29.9910000  0  6 18 25 15 29 14 22
  21612265.573    -4237317.563 4  -3111921.871 4
  20109628.776    -7241965.666 6  -5562389.700 6
  20437580.269    -6984675.148 6  -5356172.656 5
  19200029.987   -27062009.833 7 -20991467.040 8
  17841842.339   -37423063.274 7 -29061530.229 9
  19368649.565   -19858946.848 6 -15368795.747 7
 94  1 20 19 39 59.9910000  0  6 18 25 15 29 14 22
  21589399.855    -4357464.261 4  -3205542.620 1
  20117789.089    -7199082.750 6  -5528974.480 6
  20447643.253    -6931784.214 6  -5314959.011 5
  19183480.901   -27148968.235 7 -21059226.803 8
  17827313.995   -37499405.575 7 -29121017.716 8
  19349470.261   -19959743.617 6 -15447338.615 7
 94  1 20 19 40 29.9910000  0  6 18 25 15 29 14 22
  21566551.097    -4477537.618 4  -3299106.191 2
  20125978.315    -7156041.690 6  -5495436.049 6
  20457747.097    -6878701.890 6  -5273596.214 5
  19166965.050   -27235769.854 7 -21126864.415 8
  17812882.612   -37575242.581 7 -29180111.474 9
  19330373.847   -20060079.863 6 -15525522.638 7
 94  1 20 19 40 59.9910000  0  6 18 25 15 29 14 22
  21543711.581    -4597551.941 4  -3392623.792 2
  20134200.870    -7112839.037 6  -5461771.690 6
  20467884.089    -6825422.447 6  -5232079.835 5
  19150477.995   -27322429.295 7 -21194391.219 8
  17798542.784   -37650582.961 7 -29238818.247 8
  19311369.948   -20159946.917 6 -15603341.071 7
 94  1 20 19 41 29.9910000  0  6 18 25 15 29 14 22
  21520882.964    -4717526.081 4  -3486110.054 4
  20142451.690    -7069474.682 6  -5427981.336 6
  20478061.636    -6771946.949 6  -5190410.685 5
  19134006.105   -27408967.249 7 -21261823.371 8
  17784304.339   -37725425.053 7 -29297136.750 8
  19292458.823   -20259330.643 6 -15680782.877 7
 94  1 20 19 41 59.9910000  0  6 18 25 15 29 14 22
  21498058.237    -4837475.450 4  -3579576.976 3
  20150737.792    -7025938.974 6  -5394057.463 6
  20488270.339    -6718287.960 6  -5148598.537 5
  19117554.690   -27495418.343 7 -21329187.837 8
  17770152.698   -37799794.541 7 -29355086.990 8
  19273636.206   -20358237.887 6 -15757853.391 7
 94  1 20 19 42 29.9910000  0  6 18 25 15 29 14 22
  21475229.237    -4957432.965 4  -3673050.320 3
  20159054.542    -6982231.882 6  -5360000.041 6
  20498511.855    -6664478.958 6  -5106669.520 5
  19101116.159   -27581803.632 7 -21396501.032 8
  17756084.315   -37873727.161 7 -29412696.820 8
  19254898.433   -20456694.241 6 -15834572.588 7
 94  1 20 19 42 59.9910000  0  5 18 25 15 29 22
  21452412.120    -5077346.000 4  -3766488.993 3
  20167413.698    -6938302.413 6  -5325769.331 6
  20508787.839    -6610487.215 6  -5064598.091 5
  19084699.597   -27668081.304 7 -21463730.350 8
  19236255.933   -20554670.473 6 -15910917.648 7
 94  1 20 19 43 29.9910000  0  6 18 25 15 29 14 22
  21429600.636    -5197204.888 4  -3859885.435 3
  20175817.792    -6894147.036 6  -5291362.590 6
  20519094.315    -6556323.980 5  -5022393.040 5
  19068301.081   -27754250.519 7 -21530875.178 8
  17728220.456          -0.26617
  19217698.480   -20652166.662 6 -15986888.664 7
 94  1 20 19 43 59.9910000  0  6 18 25 15 29 14 22
  21406803.026    -5317011.767 4  -3953241.380 2
  20184263.409    -6849765.962 6  -5256779.990 6
  20529429.175    -6501999.301 5  -4980062.198 5
  19051928.425   -27840303.684 7 -21597929.573 8
  17714421.362      -72506.502 7        -0.30918
  19199237.956   -20749183.123 7 -16062485.868 7
 94  1 20 19 44 29.9910000  0  6 18 25 15 29 14 22
  21384014.519    -5436760.301 4  -4046551.891 3
  20192748.058    -6805168.688 6  -5222028.915 6
  20539801.050    -6447505.538 5  -4937599.613 5
  19035580.831   -27926211.767 7 -21664870.908 8
  17700716.003     -144530.048 7    -56122.544 8
  19180871.105   -20845693.160 6 -16137688.456 7
 94  1 20 19 44 59.9910000  0  6 18 25 15 29 14 22
  21361238.222    -5556467.525 5  -4139830.158 5
  20201270.550    -6760391.347 6  -5187137.531 6
  20550199.276    -6392855.517 5  -4895015.258 5
  19019255.026   -28011976.553 7 -21731700.596 8
  17687103.315     -216074.214 7   -111871.251 8
  19162607.433   -20941701.138 6 -16212499.837 7
 94  1 20 19 45 29.9910000  0  6 18 25 15 29 14 22
  21338461.198    -5676143.592 5  -4233084.153 3
  20209824.667    -6715434.184 6  -5152106.030 6
  20560631.355    -6338044.421 5  -4852305.373 5
  19002971.433   -28097580.459 7 -21798404.917 8
  17673580.058     -287120.710 7   -167232.156 8
  19144431.409   -21037197.897 7 -16286912.886 7
 94  1 20 19 45 59.9910000  0  6 18 25 15 29 14 22
  21315692.769    -5795797.306 5  -4326320.763 3
  20218412.698    -6670306.983 6  -5116942.011 6
  20571088.433    -6283080.893 5  -4809476.741 5
  18986707.558   -28183019.311 7 -21864980.623 8
  17660160.019     -357656.721 7   -222195.273 8
  19126357.542   -21132203.382 7 -16360943.110 7
 94  1 20 19 46 29.9910000  0  6 18 25 15 29 14 22
  21292931.862    -5915418.683 4  -4419532.163 3
  20227032.847    -6625010.502 6  -5081646.098 6
  20581578.237    -6227958.469 5  -4766524.261 5
  18970482.519   -28268285.114 7 -21931421.490 8
  17646838.784     -427660.093 7   -276743.357 8
  19108367.308   -21226726.404 7 -16434597.396 7
 94  1 20 19 46 59.9910000  0  6 18 25 15 29 14 22
  21270173.425    -6035002.745 4  -4512714.481 4
  20235683.144    -6579546.399 6  -5046219.581 6
  20592096.776    -6172688.485 5  -4723456.833 5
  18954288.222   -28353397.849 7 -21997743.089 8
  17633619.034     -497127.549 7   -330873.847 8
  19090468.034   -21320790.627 7 -16507894.177 7
 94  1 20 19 47 29.9910000  0  6 18 25 15 29 14 22
  21247433.026    -6154518.700 5  -4605843.710 5
  20244370.886    -6533896.797 6  -5010648.518 6
  20602643.808    -6117265.353 5  -4680270.068 5
  18938120.011   -28438363.881 7 -22063950.370 8
  17620497.987     -566061.941 7   -384588.953 8
  19072658.667   -21414387.346 7 -16580826.660 7
 94  1 20 19 47 59.9910000  0  6 18 25 15 29 14 22
  21224702.831    -6273957.058 5  -4698912.481 3
  20253087.144    -6488092.542 6  -4974956.947 6
  20613217.386    -6061707.438 5  -4636978.251 5
  18921972.659   -28523217.234 7 -22130069.846 8
  17607477.581     -634499.639 7   -437917.017 8
  19054935.417   -21507517.468 7 -16653395.557 7
 94  1 20 19 48 29.9910000  0  6 18 25 15 29 14 22
  21201994.151    -6393298.552 5  -4791905.773 4
  20261831.214    -6442142.948 6  -4939152.129 6
  20623817.214    -6006003.737 5  -4593572.854 5
  18905845.901   -28607964.771 7 -22196106.876 8
  17594550.612     -702432.638 7   -490851.818 8
  19037309.644   -21600141.001 7 -16725569.702 7
 94  1 20 19 48 59.9910000  0  6 18 25 15 29 14 22
  21179304.519    -6512534.098 5  -4884816.515 4
  20270600.183    -6396059.214 6  -4903242.783 6
  20634440.620    -5950163.238 5  -4550060.861 5
  18889739.940   -28692616.777 7 -22262069.455 8
  17581716.081     -769870.173 7   -543400.537 8
  19019781.620   -21692244.701 7 -16797338.778 7
 94  1 20 19 49 29.9910000  0  6 18 25 15 29 14 22
  21156634.276    -6631673.418 5  -4977652.238 5
  20279396.651    -6349839.148 6  -4867227.197 6
  20645094.573    -5894181.067 5  -4506438.481 4
  18873646.878   -28777161.522 7 -22327948.461 8
  17568979.901     -836800.897 7   -595554.337 8
  19002363.136   -21783805.457 7 -16868684.776 8
 94  1 20 19 49 59.9910000  0  6 18 25 15 29 14 22
  21133970.159    -6750756.762 5  -5070444.378 4
  20288213.800    -6303499.254 6  -4831118.247 6
  20655770.300    -5838074.485 5  -4462719.150 5
  18857582.386   -28861604.412 7 -22393748.099 8
  17556338.097     -903225.483 7   -647313.740 8
  18985036.792   -21874836.311 7 -16939617.860 8
 94  1 20 19 50 29.9910000  0  6 18 25 15 29 14 22
  21111321.800    -6869788.823 5  -5163196.560 5
  20297060.261    -6257006.669 6  -4794890.311 6
  20666473.667    -5781835.896 5  -4418896.957 5
  18841538.573   -28945914.962 7 -22459444.618 8
  17543799.206     -969121.349 7   -698661.162 8
  18967812.253   -21965346.751 7 -17010145.420 7
 94  1 20 19 50 59.9910000  0  6 18 25 15 29 14 22
  21088677.737    -6988783.141 5  -5255919.311 5
  20305942.597    -6210334.286 6  -4758522.278 6
  20677197.089    -5725469.628 5  -4374975.281 5
  18825522.144   -29030073.016 7 -22525022.303 8
  17531359.784    -1034491.542 7   -749598.968 8
  18950687.136   -22055354.364 7 -17080281.170 7
 94  1 20 19 51 29.9900000  0  6 18 25 15 29 14 22
  21066036.193    -7107756.025 5  -5348625.365 4
  20314858.451    -6163483.788 6  -4722015.457 6
  20687948.764    -5668984.878 5  -4330961.267 5
  18809535.881   -29114068.185 7 -22590473.072 8
  17519022.006    -1099340.629 7   -800130.716 8
  18933652.592   -22144868.932 7 -17150032.725 7
 94  1 20 19 51 59.9900000  0  6 18 25 15 29 14 22
  21043405.576    -7226685.654 5  -5441297.728 4
  20323808.193    -6116445.846 6  -4685362.569 6
  20698720.912    -5612372.195 5  -4286847.570 4
  18793586.732   -29197884.204 7 -22655784.234 8
  17506778.756    -1163670.167 7   -850257.622 8
  18916713.381   -22233894.841 7 -17219403.500 7
 94  1 20 19 52 29.9900000  0  6 18 25 15 29 14 22
  21020785.873    -7345550.562 5  -5533919.646 4
  20332794.576    -6069230.746 6  -4648571.644 6
  20709521.553    -5555635.668 5  -4242637.392 4
  18777676.381   -29281511.491 7 -22720948.344 8
  17494638.397    -1227459.489 7   -899963.582 8
  18899865.928   -22322414.016 7 -17288379.427 7
 94  1 20 19 52 59.9900000  0  6 18 25 15 29 14 22
  20998178.834    -7464357.486 5  -5626496.370 5
  20341806.678    -6021871.966 6  -4611668.763 6
  20720338.061    -5498786.064 5  -4198339.064 5
  18761793.108   -29364966.407 7 -22785978.134 8
  17482603.139    -1290715.751 7   -949254.162 8
  18883122.209   -22410401.660 7 -17356941.172 7
 94  1 20 19 53 29.9900000  0  6 18 25 15 29 14 22
  20975580.022    -7583098.927 5  -5719022.080 5
  20350841.389    -5974395.584 6  -4574674.234 6
  20731174.740    -5441832.268 5  -4153959.574 5
  18745937.732   -29448269.208 7 -22850889.391 8
  17470669.514    -1353442.360 7   -998132.031 8
  18866481.670   -22497850.861 7 -17425083.352 8
 94  1 20 19 53 59.9900000  0  6 18 25 15 29 14 22
  20953003.647    -7701770.728 5  -5811493.542 4
  20359898.764    -5926794.495 6  -4537582.540 6
  20742033.482    -5384774.840 5  -4109499.340 5
  18730114.732   -29531441.329 7 -22915698.822 8
  17458833.147    -1415631.708 7  -1046591.258 8
  18849943.873   -22584742.682 7 -17492791.215 7
 94  1 20 19 54 29.9900000  0  6 18 25 15 29 14 22
  20930427.522    -7820387.944 5  -5903922.435 5
  20368980.475    -5879078.203 6  -4500401.061 6
  20752911.506    -5327617.103 5  -4064960.934 5
  18714310.279   -29614506.878 7 -22980425.207 8
  17447100.381    -1477286.081 7  -1094633.620 8
  18833514.756   -22671070.330 7 -17560059.467 7
 94  1 20 19 54 59.9900000  0  6 18 25 15 29 14 22
  20907863.311    -7938955.923 5  -5996312.980 3
  20378082.600    -5831244.015 6  -4463127.734 6
  20763806.287    -5270357.633 5  -4020343.250 5
  18698520.326   -29697466.209 7 -23045068.816 8
  17435466.037    -1538423.594 7  -1142273.231 8
  18817195.053   -22756836.698 7 -17626890.370 7
 94  1 20 19 55 29.9900000  0  6 18 25 15 29 14 22
  20885311.193    -8057476.530 5  -6088666.600 3
  20387207.959    -5783285.307 6  -4425757.380 6
  20774723.748    -5212995.259 5  -3975645.395 5
  18682753.147   -29780314.987 7 -23109626.288 8
  17423932.826    -1599034.087 7  -1189502.180 8
  18800980.576   -22842054.364 7 -17693293.714 8
 94  1 20 19 55 59.9900000  0  6 18 25 15 29 14 22
  20862765.225    -8175938.826 5  -6180974.805 4
  20396358.701    -5735191.256 6  -4388281.549 6
  20785656.670    -5155514.948 5  -3930855.634 5
  18667012.123   -29863023.267 7 -23174074.269 8
  17412506.857    -1659090.457 7  -1236299.342 8
  18784873.787   -22926708.166 7 -17759257.684 8
 94  1 20 19 56 29.9900000  0  6 18 25 15 29 14 22
  20840229.600    -8294381.610 5  -6273267.786 5
  20405525.287    -5687024.247 6  -4350748.873 6
  20796614.350    -5097964.578 5  -3886011.289 4
  18651297.873   -29945603.542 7 -23238422.521 9
  17401173.912    -1718636.529 7  -1282698.874 8
  18768860.443   -23010852.467 7 -17824824.642 7
 94  1 20 19 56 59.9900000  0  6 18 25 15 29 14 22
  20817695.568    -8412772.416 5  -6365520.259 4
  20414710.529    -5638752.459 6  -4313134.565 6
  20807578.162    -5040328.820 5  -3841100.410 5
  18635614.795   -30028020.646 7 -23302643.608 8
  17389945.897    -1777646.093 7  -1328680.338 8
  18752949.482   -23094469.454 7 -17889980.724 8
 94  1 20 19 57 29.9900000  0  6 18 25 15 29 14 22
  20795183.857    -8531093.249 5  -6457718.198 5
  20423923.303    -5590347.486 6  -4275416.474 6
  20818564.756    -4982605.489 5  -3796121.290 5
  18619968.162   -30110275.010 7 -23366737.881 8
  17378819.959    -1836095.751 7  -1374225.515 8
  18737133.936   -23177557.408 7 -17954724.568 8
 94  1 20 19 57 59.9900000  0  6 18 25 15 29 14 22
  20772684.311    -8649325.167 5  -6549846.876 4
  20433164.709    -5541787.248 6  -4237577.393 6
  20829564.279    -4924792.077 5  -3751071.975 5
  18604345.795   -30192353.979 7 -23430695.500 8
  17367805.467    -1893987.173 7  -1419335.707 8
  18721429.264   -23260101.838 7 -18019044.884 8
 94  1 20 19 58 29.9900000  0  6 18 25 15 29 14 22
  20750205.412    -8767463.583 5  -6641902.672 4
  20442440.389    -5493044.547 6  -4199596.137 6
  20840584.662    -4866889.812 5  -3705953.430 5
  18588759.006   -30274260.119 7
  17356895.123    -1951322.206 7  -1464012.349 8
  18705826.123   -23342092.607 7
 94  1 20 19 58 59.9900000  0  6 18 25 15 29 14 22
  20727740.576    -8885504.040 5  -6733882.131 5
  20451752.670    -5444096.533 6  -4161454.897 6
  20851621.326    -4808889.656 5  -3660758.604 4
  18573208.678   -30356004.584 7 -23558215.390 9
  17346091.506    -2008088.459 7  -1508245.784 8
  18690331.662   -23423505.647 7 -18146372.491 8
 94  1 20 19 59 29.9900000  0  6 18 25 15 29 14 22
  20705288.982    -9003488.393 5  -6825817.902 5
  20461100.201    -5394983.811 6  -4123185.313 6
  20862672.998    -4750820.973 5  -3615510.380 5
  18557673.014   -30437607.516 7 -23621802.061 9
  17335393.709    -2064317.463 7  -1552060.585 8
  18674949.201   -23504358.545 7 -18209374.718 8
 94  1 20 19 59 59.9900000  0  6 18 25 15 29 14 22
  20682848.404    -9121413.128 5  -6917707.210 5
  20470473.061    -5345727.215 6  -4084803.625 6
  20873734.287    -4692676.253 5  -3570202.894 5
  18542180.772   -30519045.328 7 -23685260.066 9
  17324794.811    -2120004.090 7  -1595452.764 8
  18659670.850   -23584632.598 7 -18271925.909 8
 94  1 20 20  0 29.9900000  0  6 18 25 15 29 14 22
  20660415.123    -9239295.533 5  -7009563.532 5
  20479865.678    -5296366.775 6  -4046341.024 6
  20884810.779    -4634471.292 5  -3524848.487 4
  18526710.514   -30600340.014 7 -23748606.545 9
  17314298.553    -2175152.694 7  -1638425.698 8
  18644504.522   -23664342.430 7 -18334037.434 8
 94  1 20 20  0 59.9900000  0  6 18 25 15 29 14 22
  20637991.561    -9357133.818 5  -7101385.490 4
  20489270.795    -5246937.758 6  -4007824.983 6
  20895897.568    -4576211.964 5  -3479451.720 4
  18511264.670   -30681489.976 7 -23811840.248 9
  17303906.795    -2229773.400 7  -1680987.283 8
  18629443.678   -23743498.639 7 -18395717.564 8
 94  1 20 20  1 29.9900000  0  6 18 25 15 29 14 22
  20615580.162    -9474927.079 5  -7193172.365 4
  20498689.826    -5197447.591 6  -3969261.288 6
  20906991.287    -4517908.691 5  -3434020.707 5
  18495854.381   -30762496.266 7 -23874962.001 9
  17293610.303    -2283877.169 7  -1723146.067 8
  18614479.256   -23822115.688 7 -18456977.567 8
 94  1 20 20  1 59.9900000  0  6 18 25 15 29 14 22
  20593175.857    -9592651.715 5  -7284905.770 5
  20508122.936    -5147881.070 6  -3930638.099 6
  20918098.740    -4459551.932 5  -3388548.022 5
  18480463.303   -30843362.752 7 -23937974.811 9
  17283419.912    -2337443.416 7  -1764885.997 8
  18599625.147   -23900181.028 7 -18517807.667 8
 94  1 20 20  2 29.9900000  0  6 18 25 15 29 14 22
  20570780.647    -9710313.991 5  -7376590.593 5
  20517568.920    -5098241.667 6  -3891958.123 6
  20929205.693    -4401150.603 5  -3343040.603 5
  18465098.154   -30924108.492 7 -24000893.535 9
  17273326.170    -2390485.468 7  -1806217.463 8
  18584873.209   -23977693.025 7 -18578206.578 8
 94  1 20 20  2 59.9900000  0  6 18 25 15 29 14 22
  20548405.498    -9827928.572 5  -7468238.226 5
  20527028.014    -5048517.437 6  -3853212.044 6
  20940333.256    -4342717.319 5  -3297508.288 5
  18449751.459   -31004745.556 7 -24063727.585 9
  17263331.459    -2443010.091 7  -1847145.734 8
  18570227.357   -24054664.219 7 -18638184.088 8
 94  1 20 20  3 29.9900000  0  6 18 25 15 29 14 22
  20526033.404    -9945496.962 5  -7559849.876 5
  20536511.936    -4998694.016 6  -3814388.677 5
  20951457.334    -4284253.076 5  -3251951.846 4
  18434426.600   -31085288.862 7 -24126488.575 9
  17253440.342    -2494986.580 7  -1887646.887 8
  18555678.920   -24131096.658 7 -18697741.781 8
 94  1 20 20  3 59.9900000  0  6 18 25 15 29 14 22
  20503667.240   -10063021.642 5  -7651427.490 5
  20546009.092    -4948783.328 6  -3775497.326 6
  20962585.826    -4225761.680 5  -3206374.258 4
  18419119.764   -31165738.189 7 -24189176.329 9
  17243653.717    -2546403.853 7  -1927712.289 8
  18541236.803   -24206990.450 7 -18756879.761 8
 94  1 20 20  4 29.9900000  0  6 18 25 15 29 14 22
  20481310.131   -10180514.391 5  -7742980.199 5
  20555522.670    -4898790.842 6  -3736542.219 6
  20973718.920    -4167258.819 5  -3160787.737 4
  18403824.061   -31246098.819 7 -24251794.971 9
  17233976.639    -2597272.340 7  -1967350.065 8
  18526895.764   -24282359.445 7 -18815608.812 8
 94  1 20 20  4 59.9900000  0  6 18 25 15 29 14 22
  20458958.365   -10297962.302 5  -7834497.962 5
  20565054.357    -4848703.367 6  -3697513.094 5
  20984854.365    -4108740.916 5  -3115189.469 4
  18388554.373   -31326348.678 7 -24314327.303 9
  17224405.006    -2647563.087 7  -2006537.657 8
  18512656.381   -24357200.542 7 -18873926.510 8
 94  1 20 20  5 29.9900000  0  6 18 25 15 29 14 22
  20436616.920   -10415358.729 5  -7925975.598 5
  20574599.967    -4798536.612 6  -3658422.192 5
  20995992.904    -4050208.388 4  -3069579.835 4
  18373304.287   -31406468.941 7 -24376758.650 9
  17214944.592    -2697282.044 7  -2045279.692 8
  18498524.287   -24431484.816 7 -18931810.323 8
 94  1 20 20  5 59.9900000  0  6 18 25 15 29 14 22
  20414289.576   -10532698.466 5  -8017409.089 5
  20584162.365    -4748293.360 6  -3619271.680 5
  21007135.209    -3991659.660 4  -3023957.570 4
  18358085.756   -31486440.045 7 -24439073.763 9
  17205588.311    -2746446.502 7  -2083589.660 8
  18484501.545   -24505173.231 7 -18989229.837 8
 94  1 20 20  6 29.9900000  0  6 18 25 15 29 14 22
  20391969.967   -10649991.679 5  -8108806.298 5
  20593735.514    -4697979.716 6  -3580066.318 5
  21018279.365    -3933099.711 5  -2978326.569 5
  18342902.514   -31566251.484 7 -24501264.475 9
  17196334.990    -2795066.567 7  -2121475.422 8
  18470590.498   -24578257.075 7 -19046178.258 8
 94  1 20 20  6 59.9900000  0  6 18 25 15 29 14 22
  20369654.779   -10767250.562 5  -8200176.760 5
  20603322.397    -4647606.590 5  -3540814.607 5
  21029425.811    -3874526.094 4  -2932684.900 4
  18327746.318   -31645891.141 7 -24563321.327 9
  17187185.287    -2843142.661 7  -2158937.308 8
  18456801.904   -24650737.920 7 -19102656.807 8
 94  1 20 20  7 29.9900000  0  6 18 25 15 29 14 22
  20347344.318   -10884489.597 5  -8291531.769 5
  20612918.709    -4597181.294 5  -3501522.256 5
  21040574.654    -3815943.850 4  -2887036.531 3
  18312622.475   -31725372.248 7 -24625254.634 9
  17178136.303    -2890697.624 7  -2195993.119 8
  18443120.295   -24722624.266 7 -19158672.110 8
 94  1 20 20  7 59.9900000  0  6 18 25 15 29 14 22
  20325040.709   -11001707.423 5  -8382870.233 5
  20622523.404    -4546691.814 5  -3462179.893 6
  21051723.318    -3757354.118 5  -2841382.324 3
  18297529.686   -31804691.331 7 -24687061.689 9
  17169189.139    -2937719.113 7  -2232633.234 8
  18429545.248   -24793944.688 7 -19214246.433 8
 94  1 20 20  8 29.9900000  0  6 18 25 15 29 14 22
  20302736.647   -11118908.384 5  -8474195.562 5
  20632143.811    -4496134.577 5  -3422784.730 6
  21062872.920    -3698758.446 4  -2795723.465 4
  18282467.670   -31883839.020 7 -24748735.191 9
  17160343.623    -2984200.593 7  -2268852.565 8
  18416076.717   -24864724.142 7 -19269399.224 8
 94  1 20 20  8 59.9900000  0  6 18 25 15 29 14 22
  20280441.756   -11236081.965 5  -8565499.550 5
  20641782.584    -4445498.112 5  -3383327.821 6
  21074020.897    -3640164.193 4  -2750065.747 4
  18267433.217   -31962843.560 7 -24810297.150 9
  17151602.803    -3030137.869 7  -2304647.839 8
  18402713.639   -24934963.078 7 -19324130.817 8
 94  1 20 20  9 29.9900000  0  6 18 25 15 29 14 22
  20258153.217   -11353207.195 5  -8656765.888 5
  20651434.154    -4394774.653 5  -3343803.127 5
  21085170.772    -3581579.520 4  -2704415.486 3
  18252422.217   -32041720.256 7 -24871759.491 9
  17142966.693    -3075522.845 7  -2340012.744 8
  18389450.256   -25004651.789 7 -19378433.668 8
 94  1 20 20  9 59.9890000  0  6 18 25 15 29 14 22
  20235875.798   -11470272.666 5  -8747985.653 5
  20661102.790    -4343964.638 5  -3304210.999 5
  21096320.142    -3523009.659 4  -2658776.754 3
  18237438.548   -32120463.841 7 -24933118.123 9
  17134438.556    -3120346.357 7  -2374940.158 8
  18376292.610   -25073781.617 7 -19432301.025 8
 94  1 20 20 10 29.9890000  0  6 18 25 15 29 14 22
  20213613.650   -11587263.878 5  -8839147.546 5
  20670789.032    -4293058.703 5  -3264544.115 5
  21107464.985    -3464438.380 4  -2613136.928 3
  18222477.173   -32199085.251 7 -24994381.545 9
  17126018.274    -3164595.155 7  -2409419.736 8
  18363251.829   -25142329.067 7 -19485714.584 8
 94  1 20 20 10 59.9890000  0  7 18 25 15 19 29 14 22
  20191363.204   -11704187.181 5  -8930256.542 5
  20680489.259    -4242081.640 5  -3224821.807 5
  21118600.431    -3405895.028 3  -2567518.874 4
  21651515.439          -0.46713
  18207529.532   -32277622.153 7 -25055579.113 9
  17117701.603    -3208293.222 7  -2443470.172 8
  18350316.439   -25210320.004 7 -19538694.497 8
 94  1 20 20 11 29.9890000  0  7 18 25 15 19 29 14 22
  20169131.259   -11821020.723 5  -9021295.581 5
  20690204.907    -4191031.297 5  -3185042.393 5
  21129742.900    -3347354.439 4  -2521902.957 4
  21625548.407     -136440.327 3        -0.12312
  18192610.985   -32356027.596 7 -25116674.252 9
  17109492.517    -3251426.407 7  -2477080.442 8
  18337488.571   -25277734.673 7 -19591225.365 8
 94  1 20 20 11 59.9890000  0  7 18 25 15 19 29 14 22
  20146913.360   -11937763.090 5  -9112263.614 5
  20699932.696    -4139907.215 5  -3145205.525 5
  21140882.392    -3288808.329 4  -2476282.738 4
  21599622.978     -272703.152 3   -106179.004 2
  18177721.431   -32434281.729 7 -25177651.481 9
  17101396.415    -3293984.145 7  -2510242.308 8
  18324766.360   -25344557.231 7 -19643294.852 8
 94  1 20 20 12 29.9890000  0  7 18 25 15 19 29 14 22
  20124713.204   -12054429.152 5  -9203172.158 5
  20709674.228    -4088740.038 5  -3105335.062 5
  21152021.157    -3230285.293 3  -2430680.517 3
  21573718.431     -408815.390 3   -212240.531 1
  18162856.025   -32512409.866 7 -25238530.536 9
  17093401.954    -3335984.774 7  -2542970.060 8
  18312161.259   -25410802.411 7 -19694914.427 8
 94  1 20 20 12 59.9890000  0  7 18 25 15 19 29 14 22
  20102527.220   -12171014.888 5  -9294018.111 5
  20719418.345    -4037524.839 5  -3065427.178 5
  21163154.814    -3171784.613 3  -2385095.721 4
  21547847.712     -544764.154 3   -318174.617 1
  18148013.251   -32590390.536 7 -25299294.687 9
  17085514.993    -3377430.785 7  -2575265.652 8
  18299669.978   -25476456.361 7 -19746073.312 8
 94  1 20 20 13 29.9890000  0  7 18 25 15 19 29 14 22
  20080355.603   -12287537.010 5  -9384814.490 5
  20729170.524    -3986264.625 5  -3025484.205 5
  21174283.446    -3113304.406 4  -2339526.857 2
  21522011.181     -680532.227 3   -423967.913 1
  18133207.595   -32668201.884 7 -25359926.881 9
  17077738.095    -3418306.545 7  -2607116.879 8
  18287291.196   -25541499.566 7 -19796756.285 8
 94  1 20 20 13 59.9890000  0  7 18 25 15 19 29 14 22
  20058194.525   -12403987.928 5  -9475555.414 5
  20738938.376    -3934925.743 5  -2985479.952 5
  21185407.829    -3054831.469 3  -2293963.660 2
  21496216.493     -816104.464 3   -529608.613 1
  18118434.610   -32745828.203 7 -25420414.921 9
  17070072.876    -3458582.441 7  -2638500.696 8
  18275034.814   -25605914.183 7 -19846949.470 8
 94  1 20 20 14 29.9890000  0  7 18 25 15 19 29 14 22
  20036045.110   -12520389.095 5  -9566257.542 5
  20748721.548    -3883534.554 5  -2945434.917 5
  21196531.884    -2996389.883 3  -2248424.929 1
  21470446.454     -951494.755 3   -635107.498 1
  18103692.681   -32823287.991 7 -25480773.179 9
  17062515.181    -3498296.907 7  -2669447.019 8
  18262892.564   -25669733.916 7 -19896679.097 8
 94  1 20 20 14 59.9890000  0  7 18 25 15 19 29 14 22
  20013898.454   -12636765.135 5  -9656940.102 5
  20758507.595    -3832104.329 5  -2905359.495 5
  21207644.150    -2937985.293 3  -2202915.008 2
  21444720.665    -1086701.278 3   -740463.209 2
  18088987.501   -32900574.846 7 -25540996.683 9
  17055062.095    -3537459.742 7  -2699963.517 8
  18250857.571   -25732971.064 7 -19945954.784 8
 94  1 20 20 15 29.9890000  0  7 18 25 15 19 29 14 22
  19991759.235   -12753109.951 6  -9747598.329 5
  20768302.587    -3780624.596 5  -2865245.482 5
  21218755.329    -2879608.545 4  -2157426.778 2
  21419030.610    -1221712.087 3   -845666.378 1
  18074317.618   -32977682.074 7 -25601080.232 9
  17047718.650    -3576055.801 7  -2730038.367 8
  18238930.173   -25795624.590 7 -19994775.704 8
 94  1 20 20 15 59.9890000  0  7 18 25 15 19 29 14 22
  19969628.040   -12869401.447 6  -9838215.013 5
  20778107.939    -3729104.558 5  -2825100.069 5
  21229851.954    -2821272.591 3  -2111970.341 2
  21393372.025    -1356546.687 3   -950732.246 2
  18059669.673   -33054637.994 7 -25661045.873 9
  17040475.587    -3614110.029 7  -2759691.015 8
  18227122.564   -25857709.977 7 -20043153.915 8
 94  1 20 20 16 29.9890000  0  7 18 25 15 19 29 14 22
  19947512.446   -12985615.074 5  -9928771.011 5
  20787919.025    -3677543.784 5  -2784922.900 5
  21240950.946    -2762973.478 3  -2066542.610 2
  21367748.056    -1491207.897 3  -1055662.988 1
  18045055.907   -33131440.437 7 -25720891.911 9
  17033338.782    -3651623.128 7  -2788921.999 8
  18215413.212   -25919219.419 7 -20091083.343 8
 94  1 20 20 16 59.9890000  0  7 18 25 15 19 29 14 22
  19925415.712   -13101749.139 5 -10019265.014 5
  20797743.282    -3625922.233 5  -2744698.377 5
  21252033.829    -2704711.379 3  -2021143.750 2
  21342155.001    -1625711.228 3  -1160470.744 2
  18030469.720   -33208091.836 7 -25780620.256 9
  17026307.329    -3688570.248 7  -2817711.963 8
  18203820.642   -25980145.008 7 -20138557.827 8
 94  1 20 20 17 29.9890000  0  7 18 25 15 19 29 14 22
  19903330.907   -13217801.229 5 -10109695.147 5
  20807577.517    -3574246.887 5  -2704431.946 5
  21263114.353    -2646502.035 4  -1975785.983 1
  21316585.915    -1760079.389 3  -1265173.154 3
  18015906.079   -33284620.379 7 -25840252.878 9
  17019383.634    -3724958.241 7  -2846066.253 7
  18192337.298   -26040492.293 7 -20185581.685 8
 94  1 20 20 17 59.9890000  0  7 18 25 15 19 29 14 22
  19881263.196   -13333762.682 5 -10200054.647 5
  20817423.064    -3522514.785 5  -2664121.287 5
  21274180.009    -2588341.015 3  -1930465.854 3
  21291040.384    -1894323.706 3  -1369779.058 3
  18001371.431   -33361012.513 7 -25899779.202 9
  17012566.689    -3760770.902 7  -2873972.222 8
  18180966.845   -26100235.436 7 -20232134.774 8
 94  1 20 20 18 29.9890000  0  7 18 25 15 19 29 14 22
  19859207.868   -13449660.148 5 -10290364.284 5
  20827278.509    -3470724.413 5  -2623765.209 5
  21285238.696    -2530229.946 3  -1885184.688 2
  21265515.267    -2028439.474 3  -1474284.803 2
  17986861.454   -33437250.984 7 -25959185.777 9
  17005868.048    -3795980.698 7  -2901408.426 8
  18169716.829   -26159361.371 7 -20278206.929 8
 94  1 20 20 18 59.9890000  0  7 18 25 15 19 29 14 22
  19837167.110   -13565496.860 5 -10380626.620 5
  20837141.298    -3418880.436 5  -2583367.393 5
  21296287.275    -2472164.403 3  -1839938.985 2
  21240021.548    -2162399.401 3  -1578669.130 3
  17972384.548   -33513324.206 7 -26018463.605 9
  16999286.321    -3830574.973 7  -2928365.015 8
  18158586.540   -26217857.546 7 -20323788.369 8
 94  1 20 20 19 29.9890000  0  7 18 25 15 19 29 14 22
  19815135.064   -13681278.058 5 -10470845.681 5
  20847013.900    -3367007.106 5  -2542946.692 5
  21307323.368    -2414159.708 3  -1794740.700 2
  21214559.173    -2296193.882 3  -1682924.532 2
  17957939.829   -33589237.635 7 -26077616.908 9
  16992813.845    -3864575.414 7  -2954858.869 7
  18147572.165   -26275735.314 7 -20368887.926 8
 94  1 20 20 19 59.9890000  0  7 18 25 15 19 29 14 22
  19793105.853   -13797027.790 5 -10561040.229 5
  20856889.517    -3315119.113 5  -2502514.554 5
  21318348.962    -2356237.690 3  -1749606.850 1
  21189130.962    -2429822.671 3  -1787050.818 4
  17943522.048   -33664994.941 7 -26136648.568 9
  16986453.790    -3898008.496 7  -2980910.629 7
  18136669.306   -26333022.869 7 -20413527.566 8
 94  1 20 20 20 29.9890000  0  7 18 25 15 19 29 14 22
  19771091.056   -13912727.036 5 -10651195.430 5
  20866770.665    -3263191.270 5  -2462051.379 5
  21329355.376    -2298380.673 3  -1704523.630 1
  21163746.517    -2563238.560 3  -1891011.223 4
  17929140.282   -33740581.960 7 -26195547.526 9
  16980200.829    -3930860.826 7  -3006509.855 7
  18125884.142   -26389715.816 7 -20457703.868 8
 94  1 20 20 20 59.9890000  0  7 18 25 15 19 29 14 22
  19749085.415   -14028365.145 6 -10741303.008 5
  20876661.579    -3211219.300 5  -2421553.816 5
  21340353.329    -2240592.795 3  -1659494.315 1
  21138396.626    -2696441.953 3  -1994806.013 3
  17914786.829   -33816012.212 7 -26254324.330 9
  16974053.103    -3963161.943 7  -3031679.553 7
  18115201.228   -26445829.848 7 -20501429.067 8
 94  1 20 20 21 29.9890000  0  7 18 25 15 19 29 14 22
  19727091.532   -14143943.089 5 -10831363.709 5
  20886559.649    -3159190.200 5  -2381011.733 5
  21351336.509    -2182874.193 3  -1614518.986 2
  21113088.462    -2829449.317 3  -2098448.058 3
  17900462.478   -33891289.836 7 -26312982.213 9
  16968013.493    -3994913.197 7  -3056420.804 7
  18104633.196   -26501363.290 7 -20544701.863 8
 94  1 20 20 21 59.9890000  0  7 18 25 15 19 29 14 22
  19705109.181   -14259462.634 6 -10921378.907 5
  20896465.110    -3107120.497 5  -2340438.026 5
  21362297.056    -2125231.797 3  -1569603.025 2
  21087808.431    -2962275.902 4  -2201949.246 2
  17886164.454   -33966433.097 7 -26371535.402 9
  16962073.345    -4026112.816 7  -3080732.208 8
  18094178.790   -26556310.033 7 -20587517.480 8
 94  1 20 20 22 29.9890000  0  7 18 25 15 19 29 14 22
  19683138.001   -14374921.529 6 -11011346.805 5
  20906379.618    -3055027.250 5  -2299845.953 5
  21373266.517    -2067677.933 3  -1524756.056 3
  21062565.478    -3094944.846 3  -2305327.564 1
  17871884.712   -34041456.818 7 -26429995.434 9
  16956244.259    -4056764.314 7  -3104616.499 8
  18083834.024   -26610674.744 7 -20629879.559 8
 94  1 20 20 22 59.9890000  0  7 18 25 15 19 29 14 22
  19661179.493   -14490320.945 6 -11101268.403 5
  20916301.860    -3002923.015 5  -2259245.309 5
  21384194.181    -2010215.416 3  -1479980.295 1
  21037345.399    -3227470.010 3  -2408593.828 3
  17857633.376   -34116354.489 7 -26488357.240 9
  16950510.978    -4086872.625 7  -3128077.520 8
  18073604.962   -26664439.382 7 -20671774.052 8
 94  1 20 20 23 29.9890000  0  7 18 25 15 19 29 14 22
  19639229.267   -14605656.663 6 -11191140.337 5
  20926211.321    -2950821.513 5  -2218646.808 4
  21395109.150    -1952845.178 3  -1435276.401 1
  21012158.360    -3359847.201 3  -2511744.813 2
  17843406.696   -34191110.773 7 -26546608.880 9
  16944889.454    -4116419.136 7  -3151100.790 8
  18063491.329   -26717581.811 7 -20713183.719 8
 94  1 20 20 23 59.9890000  0  7 18 25 15 19 29 14 22
  19617295.087   -14720924.023 6 -11280959.019 5
  20936123.431    -2898727.879 5  -2178054.419 5
  21406012.392    -1895574.021 3  -1390649.680 1
  20986996.814    -3492060.200 3  -2614767.838 2
  17829210.142   -34265713.810 7 -26604741.106 9
  16939377.431    -4145401.345 7  -3173684.333 8
  18053494.728   -26770104.395 7 -20754110.380 8
 94  1 20 20 24 29.9890000  0  7 18 25 15 19 29 14 22
  19595373.548   -14836130.169 6 -11370729.973 6
  20946042.329    -2846614.856 5  -2137446.923 4
  21416892.314    -1838393.348 3  -1346093.496 1
  20961871.345    -3624086.681 3  -2717645.497 3
  17815047.806   -34340139.327 7 -26662735.005 9
  16933967.774    -4173823.873 7  -3195831.760 8
  18043618.610   -26822002.666 7 -20794550.566 8
 94  1 20 20 24 59.9890000  0  7 18 25 15 19 29 14 22
  19573459.657   -14951285.912 6 -11460461.671 6
  20955958.235    -2794492.414 5  -2096832.084 3
  21427760.360    -1781310.229 2  -1301613.361 1
  20936784.985    -3755924.702 4  -2820376.308 4
  17800920.681   -34414387.325 7 -26720590.577 9
  16928662.189    -4201690.340 7  -3217545.899 7
  18033862.946   -26873279.018 7 -20834506.147 8
 94  1 20 20 25 29.9890000  0  8 18 25 15 19 29 14 22  4
  19551560.024   -15066365.496 6 -11550134.021 6
  20965880.751    -2742343.667 5  -2056196.763 2
  21438601.314    -1724313.388 2  -1257200.449 1
  20911736.337    -3887550.245 4  -2922941.537 4
  17786825.384   -34488451.377 7 -26778302.827 9
  16923470.681    -4228976.038 7  -3238807.492 8
  18024223.876   -26923943.034 7 -20873984.594 8
  21521117.087          -0.22913
 94  1 20 20 25 59.9890000  0  8 18 25 15 19 29 14 22  4
  19529674.712   -15181384.162 6 -11639758.876 6
  20975809.423    -2690180.780 5  -2015550.405 5
  21449426.220    -1667419.239 3  -1212867.519 1
  20886729.181    -4018964.909 5  -3025342.439 4
  17772763.540   -34562350.998 7 -26835886.923 9
  16918385.228    -4255702.926 7  -3259633.633 8
  18014690.134   -26974022.431 7 -20913007.487 8
  21507668.118      -70697.381 3        -0.27711
 94  1 20 20 26 29.9890000  0  8 18 25 15 19 29 14 22  4
  19507796.079   -15296340.251 6 -11729334.992 5
  20985735.650    -2638014.156 5  -1974901.147 4
  21460230.243    -1610622.249 3  -1168610.312 1
  20861761.243    -4150170.982 4  -3127580.801 5
  17758729.634   -34636090.871 7 -26893346.554 9
  16913410.189    -4281855.527 7  -3280012.292 8
  18005274.899   -27023509.932 7 -20951569.176 8
  21494318.235     -140898.756 3    -54702.626 2
 94  1 20 20 26 59.9890000  0  8 18 25 15 19 29 14 22  4
  19485933.579   -15411222.276 6 -11818853.391 6
  20995658.829    -2585858.468 5  -1934260.409 3
  21471020.368    -1553925.051 2  -1124430.833 1
  20836833.103    -4281178.509 4  -3229664.459 4
  17744729.900   -34709664.110 7 -26950676.333 9
  16908547.884    -4307407.402 7  -3299922.839 8
  17995969.360   -27072405.455 7 -20989669.572 8
  21481044.064     -210616.146 3   -109027.824 2
 94  1 20 20 27 29.9890000  0  8 18 25 15 19 29 14 22  4
  19464088.446   -15526024.647 6 -11908309.705 6
  21005589.071    -2533693.102 5  -1893612.145 5
  21481797.665    -1497317.619 2  -1080321.349 2
  20811941.196    -4411978.228 4  -3331586.193 4
  17730762.837   -34783064.753 7 -27007871.634 9
  16903802.407    -4332342.798 7  -3319353.031 8
  17986779.548   -27120696.152 7 -21027298.699 8
  21467869.290     -279840.304 3   -162968.718 3
 94  1 20 20 27 59.9890000  0  8 18 25 15 19 29 14 22  4
  19442255.728   -15640756.406 6 -11997711.019 5
  21015516.689    -2481516.364 5  -1852955.026 4
  21492546.993    -1440804.381 2  -1036285.215 2
  20787085.056    -4542591.918 4  -3433362.966 3
  17716827.696   -34856290.998 7 -27064931.031 9
  16899170.931    -4356670.193 7  -3338309.441 8
  17977710.993   -27168367.619 7 -21064445.301 8
  21454798.642     -348587.807 3   -216538.150 2
 94  1 20 20 28 29.9890000  0  8 18 25 15 19 29 14 22  4
  19420437.478   -15755413.870 6 -12087054.411 6
  21025452.306    -2429328.557 5  -1812289.270 4
  21503287.525    -1384392.788 3   -992328.298 3
  20762259.392    -4673045.419 4  -3535014.907 2
  17702925.064   -34929348.235 7 -27121858.723 9
  16894656.306    -4380388.495 7  -3356791.239 8
  17968757.337   -27215420.715 7 -21101110.050 8
  21441800.626     -416854.313 3   -269732.784 2
 94  1 20 20 28 59.9880000  0  7 18 25 19 29 14 22  4
  19398634.395   -15869981.770 6 -12176328.041 5
  21035380.832    -2377117.081 5  -1771605.092 5
  20737467.621    -4803336.383 4  -3636540.217 4
  17689054.317   -35002234.015 7 -27178652.834 9
  16890256.035    -4403519.006 7  -3374815.016 8
  17959921.504   -27261853.042 7 -21137291.097 8
  21428900.270     -484626.698 3   -322542.401 1
 94  1 20 20 29 29.9880000  0  7 18 25 19 29 14 22  4
  19376851.973   -15984459.982 6 -12265531.781 6
  21045323.426    -2324875.084 5  -1730897.123 5
  20712706.668    -4933464.419 5  -3737938.553 4
  17675215.629   -35074970.491 7 -27235330.601 9
  16885960.543    -4426098.006 7  -3392409.063 8
  17951199.777   -27307665.000 7 -21172988.745 8
  21416115.176     -551894.245 3   -374958.640 2
 94  1 20 20 29 59.9880000  0  7 18 25 19 29 14 22  4
  19355086.184   -16098843.815 6 -12354661.977 5
  21055271.434    -2272624.029 5  -1690182.108 4
  20687974.738    -5063430.967 5  -3839211.034 4
  17661402.457   -35147561.011 7 -27291894.614 9
  16881766.770    -4448138.563 7  -3409583.517 8
  17942598.129   -27352865.894 7 -21208210.219 8
  21403403.996     -618663.620 3   -426986.692 3
 94  1 20 20 30 29.9880000  0  7 18 25 19 29 14 22  4
  19333340.059   -16213122.348 6 -12443710.120 6
  21065214.848    -2220358.032 5  -1649455.439 5
  20663280.738    -5193198.043 5  -3940328.088 2
  17647619.848   -35219986.903 7 -27348330.372 9
  16877676.863    -4469625.417 7  -3426326.537 8
  17934112.676   -27397457.081 7 -21242956.605 8
  21390800.809     -684915.404 3   -478611.435 3
 94  1 20 20 30 59.9880000  0  7 18 25 19 29 14 22  4
  19311608.379   -16327318.036 6 -12532693.709 6
  21075162.590    -2168087.449 5  -1608725.192 3
  20638626.754    -5322753.652 5  -4041280.351 4
  17633865.582   -35292257.958 7 -27404645.455 9
  16873691.731    -4490570.506 7  -3442647.376 8
  17925740.348   -27441455.843 7 -21277241.333 8
  21378278.793     -750655.898 3   -529837.785 2
 94  1 20 20 31 29.9880000  0  7 18 25 19 29 14 22  4
  19289890.590   -16441439.584 6 -12621619.542 6
  21085106.988    -2115821.878 5  -1567998.848 4
  20614010.184    -5452096.619 4  -4142066.917 4
  17620145.770   -35364368.590 7 -27460835.539 9
  16869812.535    -4510955.723 7  -3458531.979 8
  17917479.512   -27484871.127 7 -21311071.420 8
  21365872.395     -815885.186 3   -580665.755 2
 94  1 20 20 31 59.9880000  0  7 18 25 19 29 14 22  4
  19268187.723   -16555496.954 6 -12710495.348 6
  21095051.887    -2063572.931 5  -1527285.478 4
  20589440.395    -5581227.929 4  -4242688.555 5
  17606454.996   -35436306.020 7 -27516890.681 9
  16866044.348    -4530754.845 7  -3473959.878 8
  17909328.137   -27527710.954 7 -21344453.094 9
  21353547.668     -880618.009 3   -631106.948 2
 94  1 20 20 32 29.9880000  0  7 18 25 19 29 14 22  4
  19246495.035   -16669490.027 6 -12799321.072 6
  21104992.332    -2011333.417 5  -1486579.432 3
  20564910.465    -5710141.412 5  -4343140.448 3
  17592801.246   -35508055.270 7 -27572799.177 9
  16862387.824    -4549969.725 7  -3488932.523 8
  17901287.645   -27569963.559 7 -21377377.178 8
  21341333.574     -944850.242 3   -681158.021 3
 94  1 20 20 32 59.9880000  0  7 18 25 19 29 14 22  4
  19224815.949   -16783408.943 6 -12888088.997 6
  21114929.777    -1959096.489 5  -1445875.406 3
  20540415.356    -5838854.231 4  -4443435.978 4
  17579184.106   -35579608.483 7 -27628554.915 9
  16858841.441    -4568600.982 7  -3503450.391 8
  17893365.207   -27611605.886 7 -21409825.727 8
  21329196.191    -1008583.614 3   -730820.385 2
 94  1 20 20 33 29.9880000  0  7 18 25 19 29 14 22  4
  19203152.582   -16897245.954 6 -12976793.112 6
  21124871.410    -1906868.384 5  -1405178.271 2
  20515959.512    -5967376.805 4  -4543583.264 4
  17565610.270   -35650954.701 7 -27684149.357 9
  16855407.379    -4586645.348 7  -3517510.945 8
  17885558.606   -27652619.771 7 -21441784.578 8
  21317154.457    -1071830.912 3   -780103.963 2
 94  1 20 20 33 59.9880000  0  7 18 25 19 29 14 22  4
  19181506.941   -17011006.680 6 -13065437.768 6
  21134807.090    -1854647.748 5  -1364486.908 3
  20491536.840    -6095711.591 5  -4643584.235 3
  17552070.871   -35722097.130 7 -27739585.005 9
  16852082.121    -4604126.551 7  -3531132.677 8
  17877876.262   -27692993.153 7 -21473244.325 8
  21305218.184    -1134596.948 3   -829012.579 2
 94  1 20 20 34 29.9880000  0  7 18 25 19 29 14 22  4
  19159873.043   -17124688.492 6 -13154020.949 6
  21144746.027    -1802415.577 5  -1323786.595 3
  20467146.535    -6223871.149 4  -4743448.677 4
  17538570.254   -35793039.623 7 -27794864.862 9
  16848863.090    -4621049.638 7  -3544319.508 8
  17870315.457   -27732720.814 7 -21504200.914 9
  21293364.004    -1196868.776 3   -877536.079 2
 94  1 20 20 34 59.9880000  0  7 18 25 19 29 14 22  4
  19138254.441   -17238302.148 6 -13242551.010 6
  21154685.145    -1750186.877 5  -1283088.953 2
  20442792.902    -6351856.143 5  -4843177.092 3
  17525105.449   -35863804.195 7 -27850006.077 9
  16845751.809    -4637404.605 7  -3557063.657 8
  17862873.301   -27771823.454 7 -21534670.477 8
  21281615.879    -1258650.519 3   -925677.668 2
 94  1 20 20 35 29.9880000  0  6 18 19 29 14 22  4
  19116646.152   -17351841.914 6 -13331023.519 6
  20418475.418    -6479641.462 5  -4942749.912 4
  17511669.981   -35934397.372 7 -27905013.747 9
  16842748.793    -4653174.770 7  -3569352.110 8
  17855554.637   -27810297.985 7 -21564650.605 9
  21269949.356    -1319916.894 3   -973417.715 2
 94  1 20 20 35 59.9880000  0  6 18 19 29 14 22  4
  19095055.129   -17465301.768 6 -13419433.751 6
  20394203.988    -6607210.961 5  -5042154.563 4
  17498270.840   -36004821.684 7 -27959889.828 9
  16839859.129    -4668352.450 7  -3581178.888 8
  17848352.027   -27848151.174 7 -21594146.575 9
  21258399.270    -1380649.374 3  -1020741.712 1
 94  1 20 20 36 29.9880000  0  6 18 19 29 14 22  4
  19073480.840   -17578677.950 6 -13507778.767 6
  20369968.262    -6734562.846 5  -5141389.672 4
  17484900.317   -36075080.675 7 -28014637.093 9
  16837088.942    -4682927.657 7  -3592536.208 8
  17841260.481   -27885401.646 7 -21623172.897 9
  21246933.098    -1440853.693 3  -1067654.166 1
 94  1 20 20 36 59.9880000  0  6 18 19 29 14 22  4
  19051921.348   -17691982.300 6 -13596067.826 6
  20345774.074    -6861688.613 5  -5240448.579 5
  17471560.332   -36145186.122 7 -28069264.711 9
  16834427.598    -4696913.589 7  -3603434.348 8
  17834284.613   -27922046.978 7 -21651727.686 8
  21235580.754    -1500538.496 3  -1114161.811 2
 94  1 20 20 37 29.9880000  0  6 18 19 29 14 22  4
  19030372.488   -17805215.496 6 -13684301.443 6
  20321623.559    -6988604.725 4  -5339344.128 4
  17458249.918   -36215133.004 7 -28123768.777 9
  16831870.520    -4710333.350 7  -3613891.323 8
  17827431.902   -27958079.553 7 -21679805.002 9
  21224318.371    -1559712.027 3  -1160271.057 3
 94  1 20 20 37 59.9880000  0  6 18 19 29 14 22  4
  19008837.395   -17918386.384 6 -13772486.506 6
  20297507.965    -7115331.716 5  -5438092.299 5
  17444967.856   -36284921.419 7 -28178149.360 9
  16829425.145    -4723195.833 7  -3623914.052 8
  17820688.559   -27993517.350 7 -21707418.869 9
  21213160.512    -1618399.086 3  -1206001.208 2
 94  1 20 20 38 29.9880000  0  6 18 19 29 14 22  4
  18987314.348   -18031495.701 6 -13860623.593 6
  20273426.168    -7241879.113 5  -5536700.526 5
  17431719.613   -36354545.786 7 -28232402.111 9
  16827083.582    -4735500.572 7  -3633502.169 8
  17814056.910   -28028352.113 7 -21734562.837 9
  21202080.918    -1676608.484 4  -1251359.154 2
 94  1 20 20 38 59.9880000  0  6 18 19 29 14 22  4
  18965801.895   -18144532.596 6 -13948704.249 6
  20249382.231    -7368238.395 5  -5635162.191 4
  17418503.434   -36423996.383 7 -28286519.461 9
  16824846.059    -4747246.720 7  -3642655.032 8
  17807548.934   -28062569.887 7 -21761226.036 9
  21191086.246    -1734330.058 3  -1296337.021 1
 94  1 20 20 39 29.9880000  0  6 18 19 29 14 22  4
  18944313.082   -18257468.232 6 -14036706.005 6
  20225375.043    -7494394.514 5  -5733465.542 3
  17405327.035   -36493249.141 7 -28340482.648 9
  16822722.942    -4758423.480 7  -3651364.214 8
  17801149.793   -28096173.147 7 -21787410.403 9
  21180203.488    -1791553.698 3  -1340926.838 1
 94  1 20 20 39 59.9880000  0  6 18 19 29 14 22  4
  18922840.231   -18370307.258 6 -14124632.477 6
  20201403.145    -7620345.802 5  -5831609.310 4
  17392181.027   -36562310.842 7 -28394296.965 9
  16820697.660    -4769043.325 7  -3659639.431 8
  17794874.067   -28129179.627 7 -21813129.750 9
  21169418.004    -1848283.270 3  -1385131.688 1
 94  1 20 20 40 29.9880000  0  6 18 19 29 14 22  4
  18901383.996   -18483054.251 6 -14212487.249 6
  20177479.801    -7746085.269 5  -5929588.005 4
  17379078.270   -36631184.933 7 -28447965.082 9
  16818781.520    -4779135.898 7  -3667503.793 8
  17788700.090   -28161595.736 7 -21838389.066 9
  21158706.441    -1904524.929 3  -1428956.345 1
 94  1 20 20 40 59.9880000  0  6 18 19 29 14 22  4
  18879949.863   -18595692.187 6 -14300257.011 6
  20153592.848    -7871598.636 5  -6027390.535 4
  17366005.090   -36699877.137 7 -28501491.460 9
  16816958.996    -4788694.232 7  -3674951.853 8
  17782648.926   -28193416.927 7 -21863184.802 9
  21148095.996    -1960265.105 3  -1472390.216 1
 94  1 20 20 41 29.9880000  0  6 18 19 29 14 22  4
  18858537.035   -18708219.168 6 -14387940.347 6
  20129752.426    -7996891.662 5  -6125021.373 4
  17352969.824   -36768378.232 7 -28554868.938 9
  16815247.488    -4797703.255 7  -3681971.892 8
  17776704.988   -28224641.528 7 -21887515.685 9
  21137582.777    -2015503.265 3  -1515432.946 2
 94  1 20 20 41 59.9880000  0  6 18 19 29 14 22  4
  18837143.004   -18820641.309 6 -14475541.976 6
  20105947.809    -8121978.052 5  -6222491.185 5
  17339967.684   -36836690.703 7 -28608099.421 9
  16813640.551    -4806146.963 7  -3688551.416 8
  17770881.387   -28255261.137 7 -21911375.124 9
  21127165.066    -2070239.820 3  -1558084.799 2
 94  1 20 20 42 29.9880000  0  6 18 19 29 14 22  4
  18815766.856   -18932978.873 6 -14563077.683 6
  20082180.457    -8246886.475 5  -6319822.333 5
  17327001.434   -36904839.929 7 -28661202.705 9
  16812138.285    -4814029.526 7  -3694693.687 8
  17765165.809   -28285295.605 7 -21934778.619 9
  21116850.145    -2124500.489 3  -1600365.813 2
 94  1 20 20 42 59.9880000  0  6 18 19 29 14 22  4
  18794405.316   -19045229.184 6 -14650545.415 6
  20058445.082    -8371621.356 5  -6417018.239 5
  17314066.184   -36972812.258 7 -28714168.137 9
  16810752.277    -4821324.833 7  -3700378.358 8
  17759562.113   -28314728.241 7 -21957713.151 9
  21106622.910    -2178267.531 3  -1642262.206 1
 94  1 20 20 43 29.9880000  0  6 18 19 29 14 22  4
  18773056.074   -19157413.218 6 -14737961.493 6
  20034741.793    -8496184.214 5  -6514080.107 5
  17301168.340   -37040592.156 7 -28766983.627 9
  16809471.887    -4828038.298 7  -3705609.638 8
  17754078.723   -28343565.986 7 -21980184.133 9
  21096475.691    -2231542.412 3  -1683775.095 3
 94  1 20 20 43 59.9880000  0  6 18 19 29 14 22  4
  18751720.488   -19269539.111 6 -14825332.286 6
  20011071.949    -8620565.011 5  -6611000.106 5
  17288305.691   -37108188.819 7 -28819656.333 9
  16808302.371    -4834191.845 7  -3710404.628 8
  17748699.418   -28371815.264 7 -22002196.561 9
  21086427.410    -2284332.355 3  -1724910.121 2
 94  1 20 20 44 29.9880000  0  6 18 19 29 14 22  4
  18730393.957   -19381613.463 6 -14912662.893 6
  19987440.816    -8744746.136 5  -6707764.527 5
  17275478.488   -37175594.428 7 -28872180.168 9
  16807234.410    -4839805.860 7  -3714779.190 8
  17743435.856   -28399466.372 7 -22023742.880 9
  21076482.387    -2336634.883 3  -1765665.371 1
 94  1 20 20 44 59.9880000  0  6 18 19 29 14 22  4
  18709080.715   -19493619.851 6 -14999940.556 6
  19963846.965    -8868711.764 5  -6804361.030 5
  17262692.184   -37242786.711 7 -28924537.777 9
  16806268.473    -4844876.630 7  -3718730.455 8
  17738293.168   -28426502.919 7 -22044810.317 9
  21066613.246    -2388444.301 3  -1806036.328 2
 94  1 20 20 45 29.9880000  0  6 18 19 29 14 22  4
  18687780.731   -19605539.273 6 -15087150.459 6
  19940301.418    -8992461.264 5  -6900789.137 5
  17249943.801   -37309779.014 7 -28976739.554 9
  16805405.754    -4849407.112 7  -3722260.712 8
  17733267.145   -28452931.133 7 -22065403.724 9
  21056853.942    -2439768.251 3  -1846029.013 2
 94  1 20 20 45 59.9880000  0  6 18 19 29 14 22  4
  18666507.816   -19717334.614 6 -15174263.667 6
  19916795.098    -9115989.025 5  -6997044.460 5
  17237233.598   -37376573.672 7 -29028787.321 9
  16804645.707    -4853397.434 7  -3725370.070 8
  17728353.207   -28478733.226 7 -22085509.243 9
  21047166.996    -2490599.881 3  -1885638.109 2
 94  1 20 20 46 29.9880000  0  6 18 19 29 14 22  4
  18645259.332   -19828994.873 6 -15261271.604 6
  19893329.426    -9239312.395 5  -7093140.518 5
  17224559.387   -37443183.805 7 -29080691.312 9
  16803992.301    -4856848.883 7  -3728059.521 8
  17723561.856   -28503910.249 7 -22105127.687 9
  21037593.371    -2540948.352 3  -1924870.666 3
 94  1 20 20 46 59.9880000  0  6 18 19 29 14 22  4
  18624035.996   -19940521.801 6 -15348175.655 6
  19869899.934    -9362436.571 5  -7189081.339 5
  17211912.074   -37509635.448 7 -29132471.799 9
  16803437.317    -4859758.407 7  -3730326.696 8
  17718883.332   -28528486.653 7 -22124278.124 9
  21028107.598    -2590818.623 3  -1963730.623 3
 94  1 20 20 47 29.9870000  0  6 18 19 29 14 22  4
  18602842.155   -20051910.522 6 -15434972.012 6
  19846511.116    -9485333.692 5  -7284845.238 5
  17199298.663   -37575923.387 7 -29184124.723 9
  16802991.843    -4862100.887 7  -3732152.021 8
  17714323.999   -28552456.889 7 -22142956.214 9
  21018712.351    -2640183.405 3  -2002196.718 3
 94  1 20 20 47 59.9870000  0  6 18 19 29 14 22  4
  18581663.405   -20163205.732 6 -15521695.492 6
  19823164.468    -9608011.982 5  -7380438.644 5
  17186715.390   -37642044.970 7 -29235648.018 9
  16802654.124    -4863886.410 7  -3733543.345 9
  17709873.585   -28575839.963 7 -22161176.783 9
  21009415.663    -2689069.939 3  -2040290.139 2
 94  1 20 20 48 29.9870000  0  6 18 19 29 14 22  4
  18560497.554   -20274423.150 6 -15608358.378 6
  19799868.882    -9730439.347 5  -7475836.547 4
  17174173.194   -37707963.716 7 -29287013.268 9
  16802429.148    -4865079.288 7  -3734472.886 9
  17705538.413   -28598627.864 7 -22178933.591 9
  21000197.148    -2737456.759 3  -2077994.152 2
 94  1 20 20 48 59.9870000  0  6 18 19 29 14 22  4
  18539337.538   -20385619.345 6 -15695004.718 6
  19776614.359    -9852641.919 5  -7571059.283 5
  17161662.749   -37773696.950 7 -29338233.951 9
  16802310.077    -4865695.576 7  -3734953.124 9
  17701309.069   -28620854.056 7 -22196252.691 9
  20991087.827    -2785360.145 3  -2115321.471 3
 94  1 20 20 49 29.9870000  0  6 18 19 29 14 22  4
  18518182.593   -20496794.299 6 -15781634.503 6
  19753400.124    -9974638.823 5  -7666121.727 5
  17149195.249   -37839222.556 7 -29389292.853 9
  16802300.773    -4865746.580 7
  17697185.851   -28642514.883 7 -22213131.248 9
  20982063.288    -2832785.072 3  -2152275.998 2
 94  1 20 20 49 59.9870000  0  6 18 19 29 14 22  4
  18497033.116   -20607926.112 6 -15868230.680 6
  19730221.702   -10096436.872 5  -7761029.225 5
  17136768.046   -37904523.351 7 -29440176.575 9
  16802395.366    -4865249.727 7
  17693173.476   -28663600.882 7 -22229561.892 9
  20973126.140    -2879732.351 3  -2188858.291 3
 94  1 20 20 50 29.9870000  0  6 18 19 29 14 22  4
  18475899.007   -20718988.977 6 -15954773.120 6
  19707082.312   -10218044.469 5  -7855788.316 5
  17124383.093   -37969610.392 7 -29490893.740 9
  16802590.366    -4864211.095 7  -3733796.437 8
  17689272.288   -28684102.452 7 -22245537.140 9
  20964293.101    -2926184.116 3  -2225054.468 2
 94  1 20 20 50 59.9870000  0  6 18 19 29 14 22  4
  18454786.273   -20829940.838 6 -16041229.077 6
  19683973.312   -10339478.912 5  -7950412.471 5
  17112035.640   -38034498.053 7 -29541455.543 9
  16802887.054    -4862650.974 7  -3732580.773 9
  17685482.280   -28704020.286 7 -22261057.521 9
  20955543.163    -2972145.472 3  -2260868.564 3
 94  1 20 20 51 29.9870000  0  6 18 19 29 14 22  4
  18433701.366   -20940739.302 6 -16127565.501 6
  19660896.640   -10460729.744 5  -8044893.572 4
  17099727.288   -38099168.875 7 -29591848.378 9
  16803283.593    -4860569.198 7  -3730958.631 9
  17681805.788   -28723337.556 7 -22276109.935 9
  20946891.179    -3017616.608 3  -2296300.611 2
 94  1 20 20 51 59.9870000  0  6 18 19 29 14 22  4
  18412645.874   -21051388.720 6 -16213785.793 6
  19637859.968   -10581790.967 5  -8139226.937 5
  17087457.952   -38163645.701 7 -29642090.050 9
  16803779.835    -4857968.141 7  -3728931.853 9
  17678246.054   -28742054.950 7 -22290694.914 9
  20938333.679    -3062613.079 3  -2331362.842 3
 94  1 20 20 52 29.9870000  0  6 18 19 29 14 22  4
  18391618.335   -21161888.550 6 -16299889.506 6
  19614861.819   -10702652.122 5  -8233404.407 5
  17075224.093   -38227940.008 7 -29692189.502 9
  16804375.452    -4854829.261 7  -3726485.993 8
  17674800.804   -28760165.883 7 -22304807.320 9
  20929866.069    -3107124.626 3  -2366047.158 2
 94  1 20 20 52 59.9870000  0  6 18 19 29 14 22  4
  18370617.398   -21272250.198 6 -16385885.558 6
  19591903.280   -10823308.960 5  -8327422.629 5
  17063023.468   -38292051.452 7 -29742146.471 9
  16805074.491    -4851154.418 7  -3723622.496 9
  17671467.921   -28777676.362 7 -22318451.840 9
  20921481.460    -3151153.780 3  -2400355.592 2
 94  1 20 20 53 29.9870000  0  6 18 19 29 14 22  4
  18349634.843   -21382507.456 6 -16471800.251 6
  19568979.546   -10943763.003 5  -8421282.827 5
  17050858.921   -38355981.428 7 -29791962.021 9
  16805877.038    -4846950.893 7  -3720347.027 9
  17668245.601   -28794596.747 7 -22331636.538 9
  20913186.898    -3194711.589 3  -2434296.735 2
 94  1 20 20 53 59.9870000  0  6 18 19 29 14 22  4
  18328669.780   -21492682.607 6 -16557650.988 6
  19546097.398   -11064018.219 5  -8514988.083 5
  17038724.765   -38419747.746 7 -29841650.052 9
  16806770.741    -4842238.859 7  -3716675.334 8
  17665136.780   -28810948.162 7 -22344377.882 9
  20904998.413    -3237807.831 3  -2467878.258 2
 94  1 20 20 54 29.9870000  0  6 18 19 29 14 22  4
  18307722.741   -21602764.607 6 -16643429.133 6
  19523251.241   -11184063.243 5  -8608529.567 5
  17026629.921   -38483311.796 7 -29891180.473 9
  16807768.226    -4837000.758 7  -3712593.718 9
  17662134.155   -28826724.895 7 -22356671.428 9
  20896877.937    -3280419.479 3  -2501082.137 2
 94  1 20 20 54 59.9870000  0  6 18 19 29 14 22  4
  18286793.640   -21712748.862 6 -16729131.115 6
  19500452.359   -11303880.425 5  -8701893.520 4
  17014578.718   -38546635.099 7 -29940523.293 9
  16808867.835    -4831231.193 7  -3708097.969 9
  17659240.327   -28841919.280 7 -22368511.196 9
  20888865.015    -3322548.998 3  -2533910.331 2
 94  1 20 20 55 29.9870000  0  6 18 19 29 14 22  4
  18265881.648   -21822630.588 6 -16814753.208 6
  19477697.835   -11423459.188 5  -8795071.696 4
  17002575.585   -38609708.143 7 -29989671.110 9
  16810063.085    -4824930.756 7  -3703188.561 9
  17656463.851   -28856526.024 7 -22379893.078 9
  20880936.515    -3364209.855 3  -2566373.348 1
 94  1 20 20 55 59.9870000  0  6 18 19 29 14 22  4
  18244995.609   -21932396.380 6 -16900284.969 7
  19454990.085   -11542780.914 5  -8888049.567 4
  16990620.999   -38672532.098 7 -30038624.829 9
  16811367.007    -4818096.088 7  -3697862.864 8
  17653795.390   -28870538.503 7 -22390811.886 9
  20873097.890    -3405400.398 3  -2598469.891 1
 94  1 20 20 56 29.9870000  0  6 18 19 29 14 22  4
  18224129.671   -22042049.069 6 -16985728.593 6
  19432330.179   -11661844.817 5  -8980826.551 5
  16978714.062   -38735103.769 7 -30087381.962 9
  16812769.108    -4810719.239 7  -3692114.688 9
  17651244.366   -28883951.710 7 -22401263.739 9
  20865348.663    -3446110.840 3  -2630192.307 2
 94  1 20 20 56 59.9870000  0  6 18 19 29 14 22  4
  18203282.124   -22151601.102 6 -17071093.786 7
  19409721.765   -11780662.211 5  -9073411.434 5
  16966847.718   -38797457.456 7 -30135969.233 9
  16814273.859    -4802823.466 7  -3685962.159 9
  17648800.819   -28896787.446 7 -22411265.616 9
  20857697.483    -3486353.891 3  -2661550.514 2
 94  1 20 20 57 29.9870000  0  6 18 19 29 14 22  4
  18182457.819   -22261038.026 6 -17156369.281 6
  19387159.538   -11899245.075 5  -9165813.544 5
  16955021.140   -38859614.276 7 -30184403.102 9
  16815873.960    -4794395.857 7  -3679395.210 9
  17646469.773   -28909045.012 7 -22420816.966 8
  20850131.374    -3526112.359 3  -2692531.147 4
 94  1 20 20 57 59.9870000  0  6 18 19 29 14 22  4
  18161649.007   -22370382.931 6 -17241573.071 6
  19364630.952   -12017621.003 5  -9258054.415 5
  16943225.562   -38921595.697 7 -30232700.295 9
  16817580.226    -4785445.125 7  -3672420.630 9
  17644239.109   -28920753.202 7 -22429940.246 8
  20842654.898    -3565391.563 3  -2723138.297 2
 94  1 20 20 58 29.9870000  0  6 18 19 29 14 22  4
  18140856.585   -22479649.257 6 -17326715.644 7
  19342140.390   -12135801.327 5  -9350142.892 5
  16931464.718   -38983401.645 7 -30280860.763 9
  16819383.148    -4775964.735 7  -3665033.338 9
  17642115.187   -28931922.941 7 -22438643.956 8
  20835278.319    -3604190.270 3  -2753371.074 2
 94  1 20 20 58 59.9870000  0  6 18 19 29 14 22  4
  18120079.343   -22588834.088 6 -17411794.695 6
  19319689.460   -12253784.408 5  -9442077.663 5
  16919737.921   -39045023.806 7 -30328878.015 9
  16821290.984    -4765938.327 7  -3657220.570 9
  17640093.468   -28942547.423 7 -22446922.780 9
  20827971.968    -3642513.862 3  -2783233.634 4
 94  1 20 20 59 29.9870000  0  6 18 19 29 14 22  4
  18099322.593   -22697916.258 6 -17496793.762 7
  19297277.030   -12371562.201 5  -9533852.445 5
  16908049.249   -39106447.546 7 -30376740.652 9
  16823306.812    -4755355.947 7  -3648974.579 9
  17638176.327   -28952606.234 7 -22454760.832 8
  20820777.179    -3680363.162 3  -2812726.621 4
 94  1 20 20 59 59.9870000  0  6 18 19 29 14 22  4
  18078583.062   -22806895.646 6 -17581712.732 6
  19274907.890   -12489125.780 5  -9625460.323 5
  16896400.179   -39167657.514 7 -30424436.721 9
  16825418.632    -4744238.020 7  -3640311.276 9
  17636376.140   -28962094.031 7 -22462153.925 9
  20813663.609    -3717749.265 3  -2841858.639 2
 94  1 20 21  0 29.9870000  0  6 18 19 29 14 22  4
  18057863.905   -22915772.975 6 -17666552.182 7
  19252568.937   -12606498.946 5  -9716919.821 5
  16884793.312   -39228658.198 7 -30471969.706 9
  16827634.905    -4732605.375 7  -3631246.889 9
  17634675.921   -28971011.488 7 -22469102.606 9
  20806627.694    -3754688.228 3  -2870642.241 2
 94  1 20 21  0 59.9870000  0  6 18 19 29 14 22  4
  18037172.210   -23024512.868 6 -17751284.523 7
  19230272.187   -12723680.651 5  -9808230.123 5
  16873228.827   -39289439.643 7 -30519331.858 9
  16829946.280    -4720464.103 7  -3621786.177 9
  17633090.655   -28979341.838 7 -22475593.794 9
  20799690.655    -3791178.232 3  -2899076.035 3
 94  1 20 21  1 29.9870000  0  6 18 19 29 14 22  4
  18016510.171   -23133090.377 6 -17835890.335 7
  19208010.429   -12840658.531 5  -9899381.589 5
  16861702.523   -39350004.891 7 -30566525.542 9
  16832348.132    -4707831.128 7  -3611942.318 9
  17631620.726   -28987078.943 7 -22481622.708 9
  20792824.038    -3827211.610 3  -2927153.967 3
 94  1 20 21  1 59.9870000  0  6 18 19 29 14 22  4
  17995875.937   -23241522.150 6 -17920382.590 7
  19185791.780   -12957434.529 6  -9990375.771 5
  16850220.101   -39410342.518 7 -30613541.866 9
  16834845.913    -4694700.615 7  -3601710.763 9
  17630259.679   -28994232.539 7 -22487196.935 9
  20786064.780    -3862776.184 3  -2954866.643 3
 94  1 20 21  2 29.9870000  0  6 18 19 29 14 22  4
  17975266.312   -23349823.611 6 -18004773.298 7
  19163607.554   -13074005.527 6 -10081210.210 5
  16838780.507   -39470458.533 7 -30660385.509 9
  16837441.788    -4681068.240 7  -3591088.149 9
  17629005.171   -29000821.268 7 -22492331.004 8
  20779389.444    -3897876.415 3  -2982217.476 2
 94  1 20 21  2 59.9870000  0  6 18 19 29 14 22  4
  17954687.249   -23457977.306 7 -18089048.869 7
  19141466.874   -13190335.830 5 -10171857.107 5
  16827385.288   -39530340.248 7 -30707046.577 9
  16840134.890    -4666917.848 7  -3580061.897 9
  17627859.233   -29006839.646 7 -22497020.647 8
  20772789.429    -3932497.934 3  -3009195.279 1
 94  1 20 21  3 29.9870000  0  6 18 19 29 14 22  4
  17934128.319   -23566013.480 6 -18173232.856 7
  19119378.273   -13306422.790 5 -10262314.381 6
  16816035.148   -39589980.267 7 -30753519.309 9
  16842926.132    -4652252.010 7  -3568633.976 9
  17626819.913   -29012294.298 7 -22501271.018 8
  20766294.460    -3966643.770 3  -3035802.401 3
 94  1 20 21  3 59.9870000  0  6 18 19 29 14 22  4
  17913586.991   -23673951.686 7 -18257340.525 7
  19097336.398   -13422273.040 5 -10352587.202 6
  16804736.069   -39649366.759 7 -30799794.487 9
  16845814.640    -4637072.225 7  -3556805.582 9
  17625884.523   -29017203.266 7 -22505096.182 8
  20759889.741    -4000334.161 3  -3062054.664 2
 94  1 20 21  4 29.9870000  0  6 18 19 29 14 22  4
  17893071.976   -23781758.072 7 -18341345.470 7
  19075337.780   -13537869.756 5 -10442662.464 6
  16793480.382   -39708505.499 7 -30845876.617 9
  16848803.952    -4621371.756 7  -3544571.472 9
  17625057.109   -29021557.932 7 -22508489.422 8
  20753557.827    -4033575.581 3  -3087957.077 3
 94  1 20 21  4 59.9870000  0  6 18 19 29 14 22  4
  17872585.624   -23889424.031 7 -18425240.984 7
  19053384.851   -13653230.963 5 -10532554.230 5
  16782273.663   -39767406.811 7 -30891773.738 9
  16851888.382    -4605156.161 7  -3531935.953 9
  17624333.460   -29025362.061 7 -22511453.672 8
  20747328.405    -4066374.123 3  -3113514.398 2
 94  1 20 21  5 29.9870000  0  6 18 19 29 14 22  4
  17852119.523   -23996967.077 7 -18509040.739 7
  19031473.562   -13768373.336 5 -10622275.503 5
  16771106.866   -39826082.301 7 -30937494.891 9
  16855070.976    -4588434.189 7  -3518905.863 9
  17623713.280   -29028622.789 7 -22513994.505 8
  20741159.874    -4098736.582 3  -3138731.906 1
 94  1 20 21  5 59.9870000  0  6 18 19 29 14 22  4
  17831681.710   -24104369.070 7 -18592730.585 7
  19009604.116   -13883291.716 5 -10711822.225 5
  16759981.288   -39884544.869 7 -30983050.126 9
  16858349.476    -4571200.403 7  -3505476.957 9
  17623196.804   -29031343.861 7 -22516114.814 8
  20735087.515    -4130648.182 3  -3163598.096 1
 94  1 20 21  6 29.9860000  0  6 18 19 29 14 22  4
  17811271.885   -24211628.217 6 -18676309.107 7
  18987776.377   -13997987.576 5 -10801195.551 6
  16748894.065   -39942807.381 7 -31028449.481 9
  16861723.619    -4553461.104 7  -3491654.146 9
  17622782.783   -29033514.886 7 -22517806.526 8
  20729099.807    -4162093.004 3  -3188100.543 3
 94  1 20 21  6 59.9860000  0  6 18 19 29 14 22  4
  17790881.955   -24318779.839 7 -18759803.855 7
  18965992.565   -14112476.859 6 -10890407.919 6
  16737847.174   -40000865.798 7 -31073689.801 9
  16865192.174    -4535234.916 7  -3477451.939 9
  17622474.588   -29035132.489 7 -22519066.997 8
  20723213.150    -4193066.660 3  -3212235.858 1
 94  1 20 21  7 29.9860000  0  6 18 19 29 14 22  4
  17770514.252   -24425812.337 7 -18843205.785 7
  18944252.979   -14226727.190 6 -10979434.095 5
  16726844.361   -40058686.953 7 -31118745.241 9
  16868752.955    -4516516.021 7  -3462865.805 9
  17622279.971   -29036170.916 7 -22519876.160 8
  20717411.963    -4223547.266 3  -3235986.960 2
 94  1 20 21  7 59.9860000  0  6 18 19 29 14 22  4
  17750171.315   -24532719.956 7 -18926510.393 7
  18922554.049   -14340735.050 5 -11068271.347 6
  16715886.127   -40116274.058 7 -31163618.307 9
  16872408.854    -4497314.351 7  -3447903.487 9
  17622187.174   -29036636.167 7
  20711699.955    -4253554.348 3  -3259369.120 2
 94  1 20 21  8 29.9860000  0  6 18 19 29 14 22  4
  17729847.877   -24639512.349 6 -19009725.229 7
  18900903.408   -14454516.109 5 -11156931.875 5
  16704972.455   -40173619.417 7 -31208302.988 9
  16876154.182    -4477640.892 7  -3432573.542 9
  17622207.221   -29036537.250 7
  20706079.205    -4283123.244 3  -3282409.851 4
 94  1 20 21  8 59.9860000  0  6 18 19 29 14 22  4
  17709547.760   -24746194.554 7 -19092854.201 7
  18879289.986   -14568091.328 5 -11245431.990 6
  16694105.494   -40230731.098 7 -31252805.593 9
  16879983.361    -4457503.733 7  -3416882.271 9
  17622327.041   -29035905.616 7 -22519669.426 8
  20700526.846    -4312276.933 3  -3305127.046 3
 94  1 20 21  9 29.9860000  0  6 18 19 29 14 22  4
  17689274.494   -24852727.408 7 -19175866.791 7
  18857720.385   -14681444.711 6 -11333759.250 6
  16683283.510   -40287599.766 7 -31297118.828 9
  16883910.963    -4436875.260 7  -3400808.153 9
  17622547.940   -29034744.953 7 -22518765.014 8
  20695055.869    -4341006.590 3  -3327513.801 2
 94  1 20 21  9 59.9860000  0  6 18 19 29 14 22  4
  17669033.393   -24959098.211 7 -19258753.102 7
  18836190.916   -14794579.012 6 -11421915.784 6
  16672507.174   -40344230.693 7 -31341246.814 9
  16887933.065    -4415738.861 7  -3384338.255 9
  17622867.674   -29033064.217 7 -22517455.346 8
  20689682.190    -4369310.375 4  -3349568.719 2
 94  1 20 21 10 29.9860000  0  6 18 19 29 14 22  4
  17648820.854   -25065314.899 6 -19341519.326 7
  18814703.385   -14907509.855 6 -11509913.788 6
  16661776.338   -40400624.169 7 -31385189.770 9
  16892049.143    -4394104.050 7  -3367479.978 9
  17623284.682   -29030875.087 7 -22515749.529 8
  20684369.775    -4397171.589 3  -3371278.772 1
 94  1 20 21 10 59.9860000  0  6 18 19 29 14 22  4
  17628633.385   -25171394.311 7 -19424178.577 7
  18793248.025   -15020244.386 5 -11597758.819 6
  16651086.385   -40456797.216 7 -31428960.968 9
  16896258.447    -4371992.033 7  -3350249.855 9
  17623793.697   -29028188.834 7 -22513656.338 8
  20679153.096    -4424581.770 3  -3392637.354 1
 94  1 20 21 11 29.9860000  0  6 18 19 29 14 22  4
  17608477.947   -25277316.632 7 -19506715.418 7
  18771838.236   -15132748.969 6 -11685424.674 6
  16640441.596   -40512728.100 7 -31472543.460 9
  16900559.674    -4349383.400 7  -3332632.761 9
  17624408.705   -29024969.344 7 -22511147.640 8
  20674026.361    -4451511.334 3  -3413621.435 3
 94  1 20 21 11 59.9860000  0  6 18 19 29 14 22  4
  17588345.166   -25383114.040 7 -19589154.924 7
  18750470.885   -15245044.013 6 -11772927.241 6
  16629842.291   -40568430.817 7 -31515948.165 9
  16904951.338    -4326303.967 7  -3314648.814 9
  17625122.971   -29021219.940 7 -22508226.018 8
  20668990.205    -4477989.762 3  -3434254.002 2
 94  1 20 21 12 29.9860000  0  6 18 19 29 14 22  4
  17568233.791   -25488796.180 7 -19671504.618 7
  18729141.815   -15357139.700 6 -11860274.483 6
  16619285.971   -40623909.403 7 -31559178.221 9
  16909429.479    -4302770.754 7  -3296311.266 9
  17625937.682   -29016933.554 7 -22504885.973 8
  20664035.158    -4504039.463 3  -3454552.495 2
 94  1 20 21 12 59.9860000  0  6 18 19 29 14 22  4
  17548144.190   -25594366.837 7 -19753767.435 7
  18707850.111   -15469031.747 6 -11947463.038 6
  16608771.815   -40679162.448 7 -31602232.533 9
  16913996.369    -4278771.563 7  -3277610.618 9
  17626857.815   -29012097.904 7 -22501117.928 8
  20659155.041    -4529683.953 3  -3474535.230 4
 94  1 20 21 13 29.9860000  0  6 18 19 29 14 22  4
  17528076.924   -25699812.233 7 -19835932.647 7
  18686597.572   -15580714.980 6 -12034488.864 6
  16598301.104   -40734188.627 7 -31645110.064 9
  16918652.361    -4254300.118 7  -3258541.978 9
  17627884.361   -29006712.063 7 -22496921.158 8
  20654345.330    -4554938.727 3  -3494214.295 3
 94  1 20 21 13 59.9860000  0  6 18 19 29 14 22  4
  17508036.065   -25805137.031 7 -19918003.884 7
  18665382.033   -15692200.820 6 -12121360.904 6
  16587873.479   -40788976.902 7 -31687802.219 9
  16923401.104    -4229365.323 7  -3239112.289 9
  17629007.900   -29000797.047 7 -22492312.053 8
  20649613.611    -4579825.902 3  -3513606.890 2
 94  1 20 21 14 29.9860000  0  6 18 19 29 14 22  4
  17488018.260   -25910335.394 7 -19999976.609 7
  18644204.775   -15803489.589 6 -12208079.369 6
  16577495.877   -40843519.724 7 -31730303.112 9
  16928231.588    -4203969.420 7  -3219323.285 9
  17630233.315   -28994366.352 7 -22487301.114 8
  20644949.877    -4604328.674 3  -3532699.997 2
 94  1 20 21 14 59.9860000  0  6 18 19 29 14 22  4
  17468026.549   -26015388.336 7 -20081836.015 7
  18623068.190   -15914560.263 6 -12294627.906 6
  16567163.877   -40897805.252 7 -31772603.518 9
  16933150.846    -4178107.476 7  -3199171.152 9
  17631551.869   -28987435.875 7 -22481900.741 8
  20640365.236    -4628419.085 3  -3551471.769 3
 94  1 20 21 15 29.9860000  0  6 18 19 29 14 22  4
  17448067.463   -26120269.618 6 -20163561.681 7
  18601974.846   -16025393.747 6 -12380991.602 6
  16556884.533   -40951827.570 7 -31814698.825 9
  16938162.908    -4151783.934 7  -3178659.324 9
  17632962.268   -28980016.327 7 -22476119.275 8
  20635861.447    -4652071.433 3  -3569902.152 2
 94  1 20 21 15 59.9860000  0  6 18 19 29 14 22  4
  17428139.861   -26224997.137 7 -20245167.517 7
  18580924.736   -16136009.145 6 -12467185.355 6
  16546652.752   -41005600.525 7 -31856599.822 9
  16943256.494    -4125018.040 7  -3157802.806 8
  17634462.807   -28972131.288 7 -22469975.083 8
  20631443.158    -4675289.439 3  -3587994.122 2
 94  1 20 21 16 29.9860000  0  5 18 19 29 14 22
  17408243.799   -26329560.208 7 -20326645.205 7
  18559919.619   -16246394.968 6 -12553200.247 6
  16536463.822   -41059145.479 7 -31898323.155 9
  16948431.088    -4097817.992 7  -3136607.980 9
  17636056.682   -28963763.644 7 -22463454.843 8
 94  1 20 21 16 59.9860000  0  6 18 19 29 14 22  4
  17388373.846   -26433962.522 7 -20407997.639 7
  18538961.643   -16356548.128 6 -12639033.832 6
  16526314.518   -41112477.705 7 -31939880.734 9
  16953689.447    -4070177.400 7  -3115069.876 9
  17637744.268   -28954899.421 7 -22456547.658 8
  20622856.416          -0.79112
 94  1 20 21 17 29.9860000  0  6 18 19 29 14 22  4
  17368539.104   -26538196.891 7 -20489219.202 7
  18518041.650   -16466464.607 6 -12724683.000 6
  16516208.666   -41165580.830 7 -31981259.783 9
  16959039.018    -4042072.788 7  -3093170.203 8
  17639532.627   -28945498.393 7 -22449222.176 8
  20618687.666      -21914.905 3        -0.35013
 94  1 20 21 17 59.9860000  0  6 18 19 29 14 22  4
  17348733.315   -26642284.678 7 -20570326.554 7
  18497166.541   -16576165.345 6 -12810164.034 6
  16506147.971   -41218454.136 7 -32022459.756 9
  16964474.744    -4013508.899 7  -3070912.646 8
  17641423.690   -28935551.414 7 -22441471.289 8
  20614601.846      -43411.572 3    -16751.015 3
 94  1 20 21 18 29.9860000  0  6 18 19 29 14 22  4
  17328953.908   -26746218.131 7 -20651313.627 7
  18476336.408   -16685635.572 6 -12895465.470 6
  16496133.854   -41271081.928 7 -32063468.413 9
  16969999.494    -3984479.468 7  -3048292.340 9
  17643424.150   -28925040.954 7 -22433281.319 8
  20610583.486      -64486.515 3    -33173.047 2
 94  1 20 21 18 59.9860000  0  6 18 19 29 14 22  4
  17309201.533   -26850020.189 7 -20732198.329 7
  18455542.502   -16794894.833 6 -12980602.509 6
  16486166.275   -41323458.303 7 -32104281.169 9
  16975608.752    -3954990.561 7  -3025313.987 9
  17645524.400   -28914009.758 7 -22424685.587 8
  20606657.002      -85138.081 3    -49265.224 4
 94  1 20 21 19 29.9860000  0  6 18 19 29 14 22  4
  17289476.533   -26953673.509 7 -20812967.131 7
  18434795.674   -16903934.121 6 -13065568.141 6
  16476253.322   -41375552.679 7 -32144874.186 9
  16981306.299    -3925055.389 7  -3001987.899 8
  17647717.760   -28902481.008 7 -22415702.148 8
  20602809.197     -105363.327 3    -65025.188 2
 94  1 20 21 19 59.9860000  0  6 18 19 29 14 22  4
  17269780.041   -27057187.283 7 -20893627.191 7
  18414083.924   -17012758.896 6 -13150366.621 5
  16466391.900   -41427369.002 7 -32185250.535 8
  16987082.432    -3894706.809 7  -2978339.680 7
  17650000.502   -28890491.747 7 -22406359.869 7
  20599039.877     -125196.487 3    -80479.613 2
 94  1 20 21 20 29.9860000  0  6 18 19 29 14 22  4
  17250110.994   -27160537.690 7 -20974159.953 7
  18393422.111   -17121352.051 6 -13234984.627 6
  16456588.174   -41478892.549 7 -32225398.746 9
  16992935.947    -3863935.962 7  -2954362.412 8
  17652369.158   -28878042.898 7 -22396659.483 8
  20595339.033     -144622.855 3    -95617.074 2
 94  1 20 21 20 59.9860000  0  6 18 19 29 14 22  4
  17230475.307   -27263729.906 7 -21054569.450 8
  18372797.049   -17229733.265 6 -13319437.481 6
  16446837.588   -41530128.746 7 -32265323.055 9
  16998871.213    -3832748.335 7  -2930060.387 8
  17654824.650   -28865145.310 7 -22386609.418 8
  20591708.002     -163655.305 3   -110447.552 2
 94  1 20 21 21 29.9860000  0  6 18 19 29 14 22  4
  17210872.361   -27366748.425 7 -21134843.589 8
  18352212.002   -17337905.000 6 -13403727.099 6
  16437141.518   -41581087.801 7 -32305031.403 9
  17004886.775    -3801148.009 7  -2905436.776 8
  17657369.604   -28851762.483 7 -22376181.238 8
  20588164.846     -182319.826 3   -124991.356 2
 94  1 20 21 21 59.9860000  0  6 18 19 29 14 22  4
  17191300.307   -27469598.077 7 -21214986.149 7
  18331668.846   -17445869.018 6 -13487854.875 6
  16427491.635   -41631796.095 7 -32344544.352 9
  17010982.260    -3769116.702 7  -2880477.335 8
  17660011.619   -28837868.606 7 -22365354.846 8
  20584676.658     -200623.134 3   -139253.711 1
 94  1 20 21 22 29.9860000  0  6 18 19 29 14 22  4
  17171759.330   -27572283.629 7 -21295000.843 8
  18311161.174   -17553630.365 6 -13571824.722 6
  16417886.658   -41682267.687 7 -32383872.867 9
  17017161.299    -3736640.210 7  -2855171.001 8
  17662754.424   -28823467.435 7 -22354133.171 8
  20581266.838     -218550.295 3   -153222.939 1
 94  1 20 21 22 59.9860000  0  6 18 19 29 14 22  4
  17152254.877   -27674784.567 7 -21374871.679 8
  18290697.385   -17661157.891 6 -13655612.357 6
  16408330.940   -41732484.676 7 -32423002.983 9
  17023428.869    -3703699.185 7  -2829502.687 8
  17665596.541   -28808533.316 7 -22342496.210 8
  20577934.393     -236079.610 3   -166882.158 1
 94  1 20 21 23 29.9860000  0  6 18 19 29 14 22  4
  17132780.713   -27777109.445 7 -21454605.322 8
  18270283.213   -17768439.276 6 -13739208.207 6
  16398819.713   -41782461.580 7 -32461946.019 9
  17029784.666    -3670302.709 7  -2803479.478 8
  17668533.690   -28793092.779 7 -22330464.636 8
  20574673.244     -253226.345 3   -180243.259 1
 94  1 20 21 23 59.9860000  0  6 18 19 29 14 22  4
  17113341.877   -27879271.227 7 -21534211.874 8
  18249917.994   -17875472.946 6 -13822611.026 6
  16389358.408   -41832182.627 7 -32500689.695 9
  17036226.158    -3636449.795 7  -2777100.608 8
  17671561.158   -28777180.107 7 -22318065.154 8
  20571480.494     -269971.999 3   -193291.897 1
 94  1 20 21 24 29.9860000  0  5 18 19 29 14 22
  17093933.166   -27981267.195 7 -21613689.231 8
  18229595.315   -17982266.206 6 -13905826.505 6
  16379949.744   -41881629.296 7 -32539219.559 9
  17042752.549    -3602157.187 7  -2750379.115 8
  17674676.596   -28760812.095 7 -22305310.868 8
 94  1 20 21 24 59.9850000  0  5 18 19 29 14 22
  17074558.403   -28083072.696 7 -21693018.172 8
  18209325.427   -18088795.459 6 -13988836.271 6
  16370594.192   -41930791.547 7 -32577527.803 9
  17049363.364    -3567421.413 7  -2723312.298 8
  17677880.685   -28743970.780 7 -22292187.766 8
 94  1 20 21 25 29.9850000  0  5 18 19 29 14 22
  17055222.810   -28184688.096 7 -21772198.983 8
  18189099.497   -18195076.450 6 -14071652.593 6
  16361291.919   -41979674.326 7 -32615618.280 9
  17056054.833    -3532246.051 7  -2695902.951 8
  17681176.739   -28726656.988 7 -22278696.499 8
 94  1 20 21 25 59.9850000  0  5 18 19 29 14 22
  17035922.778   -28286108.327 7 -21851227.714 8
  18168916.638   -18301137.429 6 -14154297.456 6
  16352043.364   -42028278.942 7 -32653492.006 9
  17062828.528    -3496658.246 7  -2668172.210 8
  17684562.067   -28708857.046 7 -22264826.414 8
 94  1 20 21 26 29.9850000  0  5 18 19 29 14 22
  17016662.278   -28387317.367 7 -21930091.876 8
  18148779.474   -18406966.402 6 -14236761.540 6
  16342846.028   -42076608.739 7 -32691151.584 9
  17069677.380    -3460657.064 7  -2640119.371 8
  17688046.286   -28690553.514 6 -22250563.932 8
 94  1 20 21 26 59.9850000  0  6 18 27 19 29 14 22
  16997440.763   -28488328.839 7 -22008802.099 8
  20709142.083          -0.13112
  18128680.513   -18512579.991 6 -14319057.808 6
  16333698.950   -42124676.182 7 -32728606.733 9
  17076604.685    -3424267.691 6  -2611764.031 8
  17691621.177   -28671763.264 7 -22235922.180 8
 94  1 20 21 27 29.9850000  0  7 18 27 28 19 29 14 22
  16978256.888   -28589138.150 7 -22087354.797 8
  20684910.239     -127343.400 3        -0.39612
  20570064.935          -0.11113
  18108622.005   -18617991.775 6 -14401196.823 6
  16324609.427   -42172445.404 7 -32765829.504 9
  17083601.528    -3387486.745 6  -2583103.578 8
  17695292.075   -28652479.430 7 -22220895.824 8
 94  1 20 21 27 59.9850000  0  7 18 27 28 19 29 14 22
  16959107.357   -28689771.034 7 -22165770.011 8
  20660695.935     -254595.354 2    -99157.613 2
  20548866.567     -111391.779 3        -0.44412
  18088597.864   -18723222.558 6 -14483194.789 6
  16315574.732   -42219919.809 7 -32802822.546 9
  17090675.599    -3350318.943 6  -2554141.678 8
  17699051.146   -28632727.142 6 -22205504.435 8
 94  1 20 21 28 29.9850000  0  7 18 27 28 19 29 14 22
  16939988.997   -28790240.366 7 -22244057.789 8
  20636489.607     -381749.900 2   -198238.888 2
  20527680.458     -222680.312 3    -86718.652 2
  18068607.817   -18828261.898 6 -14565043.582 6
  16306595.122   -42267107.163 7 -32839591.916 9
  17097822.396    -3312768.048 6  -2524881.272 8
  17702891.263   -28612537.488 6 -22189772.247 8
 94  1 20 21 28 59.9850000  0  7 18 27 28 19 29 14 22
  16920901.161   -28890550.085 7 -22322221.191 8
  20612319.677     -508815.019 2   -297250.484 2
  20506525.950     -333860.926 3   -173352.798 2
  18048655.294   -18933111.708 6 -14646744.688 6
  16297671.974   -42314000.965 7 -32876132.535 9
  17105039.833    -3274834.970 7  -2495323.054 8
  17706816.364   -28591914.876 6 -22173702.695 8
 94  1 20 21 29 29.9850000  0  7 18 27 28 19 29 14 22
  16901845.567   -28990682.200 7 -22400246.201 8
  20588156.224     -635777.039 2   -396181.723 2
  20485386.310     -444912.510 3   -259886.361 2
  18028746.224   -19037739.755 6 -14728272.995 6
  16288806.036   -42360591.792 7 -32912437.078 9
  17112337.732    -3236480.242 6  -2465436.283 8
  17710827.857   -28570841.964 6 -22157282.268 8
 94  1 20 21 29 59.9850000  0  7 18 27 28 19 29 14 22
  16882825.552   -29090641.327 7 -22478136.424 8
  20564016.091     -762628.623 2   -495026.983 1
  20464285.646     -555840.348 3   -346323.550 2
  18008880.771   -19142117.887 6 -14809606.572 6
  16279992.185   -42406908.750 7 -32948528.217 9
  17119718.263    -3197702.339 7  -2435219.770 8
  17714919.013   -28549336.895 6 -22140525.096 7
 94  1 20 21 30 29.9850000  0  7 18 27 28 19 29 14 22
  16863842.192   -29190400.239 7 -22555870.629 8
  20539898.942     -889356.514 3   -593775.802 2
  20443201.364     -666641.355 3   -432661.884 3
  17989069.239   -19246217.631 6 -14890723.212 6
  16271231.185   -42452944.754 7 -32984400.433 9
  17127179.153    -3158493.341 6  -2404667.333 8
  17719096.903   -28527377.147 6 -22123413.618 7
 94  1 20 21 30 59.9850000  0  7 18 27 28 19 29 14 22
  16844894.638   -29289975.122 7 -22633461.425 8
  20515803.403    -1015972.137 3   -692437.197 1
  20422130.958     -777338.649 3   -518919.403 3
  17969307.442   -19350068.310 6 -14971645.764 6
  16262521.489   -42498718.212 7 -33020068.057 9
  17134721.169    -3118862.391 6  -2373786.095 8
  17723362.302   -28504962.906 6 -22105947.978 7
 94  1 20 21 31 29.9850000  0  7 18 27 28 19 29 14 22
  16825984.833   -29389338.126 7 -22710887.131 8
  20491736.122    -1142457.646 3   -790997.211 4
  20401098.302     -887911.459 3   -605079.929 3
  17949599.677   -19453650.487 6 -15052359.113 6
  16253860.864   -42544226.687 7 -33055529.203 9
  17142348.528    -3078786.890 6  -2342558.465 8
  17727719.966   -28482070.914 6 -22088110.079 8
 94  1 20 21 31 59.9850000  0  7 18 27 28 19 29 14 22
  16807117.411   -29488486.901 7 -22788145.904 8
  20467688.349    -1268828.394 3   -889467.764 3
  20380069.458     -998363.289 3   -691146.183 3
  17929935.130   -19556987.353 6 -15132881.311 6
  16245249.403   -42589478.067 7 -33090790.019 9
  17150049.872    -3038297.793 6  -2311008.554 8
  17732165.685   -28458710.613 6 -22069907.253 7
 94  1 20 21 32 29.9850000  0  7 18 27 28 19 29 14 22
  16788294.638   -29587405.103 7 -22865225.010 8
  20443663.966    -1395108.555 3   -987867.717 1
  20359074.872    -1108687.370 3   -777112.895 2
  17910308.997   -19660106.547 6 -15213233.888 6
  16236690.075   -42634463.123 7 -33125843.312 9
  17157829.747    -2997413.992 6  -2279151.080 8
  17736702.450   -28434871.688 6 -22051331.478 7
 94  1 20 21 32 59.9850000  0  7 18 27 28 19 29 14 22
  16769517.310   -29686077.126 7 -22942112.282 8
  20419646.560    -1521287.003 3  -1086188.427 2
  20338117.700    -1218856.847 3   -862959.142 2
  17890731.942   -19762987.450 6 -15293400.774 6
  16228185.130   -42679154.415 7 -33160667.693 9
  17165686.372    -2956122.743 6  -2246976.115 8
  17741328.286   -28410555.060 6 -22032383.460 7
 94  1 20 21 33 29.9850000  0  7 18 27 28 19 29 14 22
  16750784.857   -29784512.692 7 -23018815.305 8
  20395652.177    -1647385.672 3  -1184446.979 2
  20317179.599    -1328883.251 3   -948693.917 2
  17871202.278   -19865639.363 6 -15373389.243 6
  16219735.146   -42723563.237 7 -33195271.973 9
  17173616.794    -2914458.055 6  -2214510.156 7
  17746039.028   -28385805.513 6 -22013098.108 7
 94  1 20 21 33 59.9850000  0  7 18 27 28 19 29 14 22
  16732098.646   -29882711.721 7 -23095334.020 8
  20371671.997    -1773395.671 3  -1282636.475 3
  20296273.278    -1438757.963 3  -1034310.457 2
  17851708.044   -19968066.329 6 -15453202.420 6
  16211343.317   -42767661.516 7 -33229634.266 9
  17181613.372    -2872431.637 6  -2181762.329 8
  17750829.497   -28360627.178 6 -21993478.630 7
 94  1 20 21 34 29.9850000  0  7 18 27 28 19 29 14 22
  16713452.396   -29980701.512 7 -23171689.691 8
  20347710.294    -1899322.753 3  -1380761.309 3
  20275382.825    -1548494.435 3  -1119819.329 3
  17832258.739   -20070259.946 6 -15532833.773 6
  16203010.622   -42811447.534 7 -33263753.236 9
  17189680.528    -2830048.734 6  -2148736.732 8
  17755700.138   -28335028.477 6 -21973531.596 7
 94  1 20 21 34 59.9850000  0  7 18 27 28 19 29 14 22
  16694835.927   -30078524.825 7 -23247915.633 8
  20323762.278    -2025170.273 3  -1478824.183 1
  20254530.294    -1658109.047 3  -1205233.235 3
  17812859.989   -20172222.315 6 -15612284.924 6
  16194734.857   -42854936.326 7 -33297640.599 9
  17197814.575    -2787311.898 6  -2115435.337 8
  17760646.263   -28309031.132 6 -21953273.938 7
 94  1 20 21 35 29.9850000  0  7 18 27 28 19 29 14 22
  16676253.411   -30176179.593 7 -23324010.241 8
  20299827.357    -2150936.338 3  -1576823.552 2
  20233689.692    -1767602.833 3  -1290552.969 2
  17793498.989   -20273959.130 6 -15691560.314 6
  16186515.825   -42898126.600 7 -33331295.354 9
  17206014.192    -2744216.023 6  -2081854.172 8
  17765673.536   -28282612.907 6 -21932688.322 7
 94  1 20 21 35 59.9850000  0  7 18 27 28 19 29 14 22
  16657704.232   -30273665.767 7 -23399973.474 8
  20275908.817    -2276624.696 3  -1674762.374 2
  20212881.950    -1876977.332 3  -1375779.765 3
  17774180.935   -20375466.077 6 -15770656.611 6
  16178357.091   -42941009.050 7 -33364710.245 9
  17214286.255    -2700750.409 6  -2047984.899 8
  17770787.075   -28255750.790 6 -21911756.815 7
 94  1 20 21 36 29.9850000  0  7 18 27 28 19 29 14 22
  16639187.021   -30370968.694 7 -23475793.919 9
  20252014.153    -2402216.001 3  -1772625.545 3
  20192095.857    -1986217.287 3  -1460901.729 3
  17754916.872   -20476724.508 6 -15849559.234 7
  16170255.888   -42983577.917 7 -33397880.789 9
  17222628.841    -2656892.889 6  -2013810.247 7
  17775983.310   -28228447.964 6 -21890481.901 7
 94  1 20 21 36 59.9850000  0  7 18 27 28 19 29 14 22
  16620709.825   -30468075.917 7 -23551461.863 9
  20228130.903    -2527709.415 3  -1870412.478 3
  20171333.458    -2095313.959 4  -1545912.028 4
  17735683.536   -20577764.558 6 -15928291.706 7
  16162213.263   -43025839.289 7 -33430811.718 9
  17231048.544    -2612655.501 6  -1979339.596 8
  17781258.630   -28200723.291 6 -21868878.283 7
 94  1 20 21 37 29.9850000  0  7 18 27 28 19 29 14 22
  16602272.669   -30564943.909 7 -23626943.399 9
  20204274.341    -2653087.402 3  -1968109.469 3
  20150606.872    -2204236.354 3  -1630786.505 3
  17716502.247   -20678586.251 6 -16006854.027 6
  16154234.052   -43067769.485 7 -33463484.600 9
  17239537.997    -2568044.239 6  -1944577.607 7
  17786616.435   -28172561.896 6 -21846934.368 7
 94  1 20 21 37 59.9850000  0  7 18 27 28 19 29 14 22
  16583885.849   -30661577.818 7 -23702242.527 9
  20180429.232    -2778363.406 3  -2065727.033 4
  20129908.060    -2312982.814 3  -1715523.907 3
  17697350.544   -20779211.348 6 -16085263.156 7
  16146314.036   -43109387.161 7 -33495913.956 9
  17248093.896    -2523074.987 6  -1909536.677 7
  17792055.528   -28143992.427 6 -21824672.471 7
 94  1 20 21 38 29.9850000  0  7 18 27 28 19 29 14 22
  16565543.630   -30757966.452 7 -23777350.534 9
  20156617.482    -2903516.886 3  -2163249.114 2
  20109258.052    -2421531.044 3  -1800106.819 3
  17678239.083   -20879634.109 6 -16163514.623 7
  16138453.958   -43150693.939 7 -33528101.050 9
  17256723.380    -2477746.286 6  -1874215.644 7
  17797568.403   -28115015.091 6 -21802092.749 7
 94  1 20 21 38 59.9850000  0  7 18 27 28 19 29 14 22
  16547245.935   -30854116.266 7 -23852272.451 9
  20132822.630    -3028572.381 3  -2260694.873 2
  20088631.482    -2529890.761 3  -1884542.851 3
  17659171.278   -20979867.034 6 -16241618.161 7
  16130649.513   -43191709.342 7 -33560061.099 9
  17265409.247    -2432083.220 6  -1838634.078 7
  17803160.700   -28085621.597 6 -21779188.754 7
 94  1 20 21 39 29.9850000  0  7 18 27 28 19 29 14 22
  16528994.591   -30950033.801 7 -23927013.365 9
  20109044.841    -3153525.457 3  -2358060.817 2
  20068043.982    -2638080.674 4  -1968846.541 4
  17640131.919   -21079894.273 6 -16319561.435 7
  16122898.528   -43232444.539 7 -33591802.805 9
  17274164.060    -2386085.430 6  -1802791.688 7
  17808834.833   -28055806.051 6 -21755955.896 7
 94  1 20 21 39 59.9850000  0  7 18 27 28 19 29 14 22
  16510784.841   -31045728.385 7 -24001580.550 9
  20085288.052    -3278362.522 4  -2455336.377 2
  20047487.794    -2746096.598 3  -2053014.691 4
  17621143.778   -21179687.362 6 -16397322.250 7
  16115200.317   -43272894.557 7 -33623322.291 9
  17282985.388    -2339724.196 6  -1766666.091 7
  17814589.317   -28025566.706 6 -21732392.812 7
 94  1 20 21 40 29.9850000  0  7 18 27 28 19 29 14 22
  16492612.294   -31141212.510 7 -24075983.740 9
  20061552.560    -3403077.048 3  -2552516.468 4
  20026970.724    -2853949.278 3  -2137055.624 3
  17602202.372   -21279235.208 6 -16474891.956 7
  16107557.075   -43313059.276 7 -33654619.472 9
  17291874.927    -2293016.655 6  -1730270.643 7
  17820424.333   -27994900.507 6 -21708497.098 7
 94  1 20 21 40 59.9850000  0  7 18 27 28 19 29 14 22
  16474489.192   -31236466.965 7 -24150207.960 9
  20037844.903    -3527656.016 3  -2649590.958 4
  20006472.247    -2961636.618 4  -2220967.720 3
  17583303.661   -21378526.147 6 -16552261.498 7
  16099974.208   -43352907.248 7 -33685669.837 9
  17300830.200    -2245946.051 6  -1693592.299 7
  17826346.724   -27963785.142 6 -21684251.374 7
 94  1 20 21 41 29.9850000  0  7 18 27 28 19 29 14 22
  16456401.521   -31331503.898 7 -24224262.696 9
  20014169.138    -3652102.125 3  -2746561.917 3
  19986016.989    -3069156.954 4  -2304749.669 3
  17564461.341   -21477566.024 6 -16629435.397 7
  16092453.091   -43392431.737 7 -33716468.137 9
  17309858.060    -2198514.771 6  -1656632.899 7
  17832347.677   -27932239.495 6 -21659670.375 7
 94  1 20 21 41 59.9850000  0  7 18 27 28 19 29 14 22
  16438358.489   -31426327.431 7 -24298151.139 9
  19990507.505    -3776447.241 3  -2843454.140 4
  19965589.146    -3176501.806 4  -2388394.888 3
  17545660.060   -21576355.245 6 -16706413.976 7
  16084992.099   -43431637.490 7 -33747018.068 9
  17318949.864    -2150732.371 6  -1619399.898 7
  17838429.896   -27900278.077 6 -21634765.396 7
 94  1 20 21 42 29.9850000  0  7 18 27 28 19 29 14 22
  16420359.357   -31520918.010 7 -24371858.064 9
  19966857.466    -3900704.257 3  -2940277.748 3
  19945195.489    -3283676.006 3  -2471907.144 4
  17526906.005   -21674898.412 6 -16783200.829 7
  16077594.052   -43470522.494 7 -33777318.061 9
  17328105.403    -2102610.396 6  -1581902.304 7
  17844590.232   -27867913.270 6 -21609546.093 7
 94  1 20 21 42 59.9850000  0  7 18 27 28 19 29 14 22
  16402401.864   -31615278.209 7 -24445385.467 9
  19943223.982    -4024893.162 3  -3037048.277 4
  19924836.286    -3390680.770 4  -2555287.369 3
  17508201.614   -21773215.285 6 -16859811.357 7
  16070252.099   -43509093.797 7 -33807373.622 9
  17337328.419    -2054155.373 6  -1544145.184 7
  17850820.349   -27835181.276 6 -21584040.658 7
 94  1 20 21 43 29.9840000  0  7 18 27 28 19 29 14 22
  16384493.149   -31709391.892 7 -24518720.786 9
  19919606.602    -4149006.858 3  -3133760.208 3
  19904507.727    -3497478.008 4  -2638505.875 2
  17489532.680   -21871288.310 6 -16936231.872 7
  16062972.680   -43547353.391 7 -33837186.285 9
  17346614.984    -2005361.960 6  -1506124.390 7
  17857116.399   -27802087.984 6 -21558253.684 7
 94  1 20 21 43 59.9840000  0  7 18 27 28 19 29 14 22
  16366629.797   -31803259.314 7 -24591864.216 9
  19896008.649    -4273032.613 4  -3230403.593 3
  19884221.977    -3604077.849 3  -2721570.604 4
  17470921.289   -21969124.987 6 -17012468.202 7
  16055749.813   -43585309.029 7 -33866762.109 9
  17355964.883    -1956223.017 6  -1467834.348 7
  17863481.430   -27768630.138 6 -21532182.644 7
 94  1 20 21 44 29.9840000  0  7 18 27 28 19 29 14 22
  16348818.766   -31896867.856 7 -24664805.923 9
  19872433.289    -4396925.692 3  -3326943.588 2
  19863977.039    -3710465.842 4  -2804470.252 4
  17452340.922   -22066740.213 6 -17088531.991 7
  16048589.734   -43622938.893 7 -33896084.074 9
  17365380.383    -1906736.224 6  -1429273.260 7
  17869921.914   -27734790.602 6 -21505814.184 7
 94  1 20 21 44 59.9840000  0  7 18 27 28 19 29 14 22
  16331049.461   -31990244.183 7 -24737566.679 9
  19848873.961    -4520687.883 3  -3423381.587 3
  19843768.391    -3816644.794 4  -2887207.010 5
  17433803.524   -22164161.439 6 -17164444.617 7
  16041486.070   -43660263.575 7 -33925168.240 9
  17374860.781    -1856927.216 6  -1390461.086 7
  17876436.328   -27700558.638 6 -21479139.940 7
 94  1 20 21 45 29.9840000  0  7 18 27 28 19 29 14 22
  16313327.609   -32083358.260 7 -24810123.087 9
  19825360.852    -4644288.336 3  -3519693.557 4
  19823607.055    -3922599.785 4  -2969769.238 4
  17415313.586   -22261345.511 6 -17240172.431 7
  16034444.805   -43697267.559 7 -33954002.508 9
  17384405.227    -1806764.631 6  -1351373.400 7
  17883034.477   -27665885.347 6 -21452121.804 7
 94  1 20 21 45 59.9840000  0  7 18 27 28 19 29 14 22
  16295659.055   -32176220.723 7 -24882483.436 9
  19801870.328    -4767737.087 5  -3615887.282 3
  19803486.149    -4028366.254 4  -3052184.603 3
  17396858.484   -22358302.574 6 -17315723.363 7
  16027465.000   -43733946.696 7 -33982583.654 9
  17394013.789    -1756265.123 6  -1312023.179 7
  17889713.961   -27630789.015 6 -21424774.032 7
 94  1 20 21 46 29.9840000  0  7 18 27 28 19 29 14 22
  16278036.320   -32268822.719 7 -24954640.822 9
  19778400.797    -4891061.153 5  -3711983.853 4
  19783391.703    -4133939.983 4  -3134449.765 3
  17378452.078   -22455036.451 6 -17391100.386 7
  16020547.422   -43770295.748 7 -34010907.587 9
  17403684.914    -1705452.614 6  -1272429.060 7
  17896469.656   -27595283.128 6 -21397107.129 7
 94  1 20 21 46 59.9840000  0  7 18 27 28 19 29 14 22
  16260462.984   -32361168.421 7 -25026598.495 9
  19754947.383    -5014293.332 3  -3808008.845 3
  19763339.297    -4239325.198 5  -3216568.075 4
  17360091.547   -22551533.233 6 -17466292.664 7
  16013691.352   -43806325.152 7 -34038982.448 9
  17413412.383    -1654335.228 6  -1232597.374 7
  17903296.836   -27559402.228 6 -21369148.008 6
 94  1 20 21 47 29.9840000  0  7 18 27 28 19 29 14 22
  16242942.305   -32453250.517 7 -25098350.769 9
  19731512.906    -5137436.880 3  -3903964.782 2
  19743326.563    -4344519.610 5  -3298537.674 5
  17341770.914   -22647790.256 6 -17541298.108 7
  16006900.125   -43842017.174 7 -34066794.411 9
  17423199.570    -1602905.967 6  -1192522.666 7
  17910190.024   -27523175.410 6 -21340919.340 6
 94  1 20 21 47 59.9840000  0  7 18 27 28 19 29 14 22
  16225470.109   -32545067.137 7 -25169896.174 9
  19708102.320    -5260484.496 4  -3999845.960 2
  19723351.156    -4449490.347 4  -3380333.012 5
  17323493.484   -22743841.263 6 -17616143.029 7
  16000173.547   -43877360.330 7 -34094334.532 9
  17433036.570    -1551186.396 6  -1152221.740 7
  17917146.055   -27486623.029 6 -21312436.987 6
 94  1 20 21 48 29.9840000  0  7 18 27 28 19 29 14 22
  16208045.258   -32636625.425 7 -25241240.288 9
  19684704.297    -5383430.902 4  -4095648.282 2
  19703416.234    -4554207.606 4  -3461930.803 4
  17305254.625   -22839693.479 6 -17690833.041 7
  15993511.719   -43912372.284 7 -34121616.572 9
  17442937.516    -1499171.814 6  -1111690.939 7
  17924163.891   -27449746.206 6 -21283701.836 7
 94  1 20 21 48 59.9840000  0  7 18 27 28 19 29 14 22
  16190667.680   -32727939.668 7 -25312394.231 9
  19661326.133    -5506273.222 4  -4191369.525 4
  19683534.234    -4658679.811 4  -3543337.650 4
  17287055.203   -22935344.884 6 -17765366.576 7
  15986908.781   -43947065.810 7 -34148650.488 9
  17452893.391    -1446860.012 6  -1070928.543 7
  17931245.477   -27412539.232 6 -21254709.424 7
 94  1 20 21 49 29.9840000  0  7 18 27 28 19 29 14 22
  16173342.031   -32818996.093 7 -25383347.278 9
  19637975.234    -5628989.489 4  -4286992.552 5
  19663710.539    -4762887.680 4  -3624538.521 5
  17268893.680   -23030775.902 6 -17839728.385 7
  15980370.274   -43981428.972 7 -34175426.983 9
  17462905.633    -1394249.767 6  -1029933.593 7
  17938391.172   -27374977.349 6 -21225440.474 7
 94  1 20 21 49 59.9840000  0  8 18 27 28 19 29 14 22 31
  16156062.484   -32909807.379 7 -25454109.310 9
  19614648.703    -5751592.240 4  -4382527.092 4
  19643926.289    -4866837.101 4  -3705538.003 4
  17250775.758   -23125973.002 6 -17913907.915 7
  15973891.149   -44015480.604 7 -34201960.725 9
  17472969.047    -1341347.899 6   -988711.404 7
  17945607.602   -27337057.477 6 -21195892.562 6
  20008205.602          -0.83413
 94  1 20 21 50 29.9840000  0  8 18 27 28 19 29 14 22 31
  16138825.438   -33000385.132 7 -25524689.369 9
  19591330.524    -5874109.160 4  -4477994.758 4
  19624197.438    -4970563.849 5  -3786363.958 4
  17232709.742   -23220910.542 6 -17987885.193 7
  15967469.578   -44049221.316 7 -34228252.189 9
  17483093.633    -1288154.939 6   -947262.394 6
  17952893.492   -27298776.656 6 -21166063.385 6
  19984032.859     -127009.951 3
 94  1 20 21 50 59.9840000  0  8 18 27 28 19 29 14 22 31
  16121637.508   -33090703.896 7 -25595067.614 9
  19568034.844    -5996527.973 3  -4573386.003 4
  19604491.734    -5074063.450 5  -3867012.893 5
  17214696.211   -23315575.561 6 -18061650.117 7
  15961113.024   -44082625.632 7 -34254281.526 9
  17493272.813    -1234656.904 6   -905575.656 6
  17960249.906   -27260119.836 6 -21135941.228 6
  19959864.422     -254050.264 3        -0.38511
 94  1 20 21 51 29.9840000  0  8 18 27 28 19 29 14 22 31
  16104496.609   -33180774.036 7 -25665252.135 9
  19544756.727    -6118859.504 4  -4668709.258 4
  19584842.399    -5177337.449 4  -3947486.059 4
  17196728.313   -23410003.968 6 -18135230.668 7
  15954819.203   -44115702.820 7 -34280055.955 9
  17503511.609    -1180856.908 6   -863653.623 6
  17967670.070   -27221120.406 6 -21105552.096 6
  19935671.289     -381146.527 3    -99036.245 2
 94  1 20 21 51 59.9840000  0  8 18 27 28 19 29 14 22 31
  16087409.109   -33270568.210 7 -25735221.604 9
  19521499.024    -6241085.818 4  -4763950.524 4
  19565237.781    -5280366.269 5  -4027768.177 4
  17178804.758   -23504201.170 6 -18208631.055 7
  15948591.242   -44148427.415 7 -34305555.644 9
  17513811.328    -1126728.461 6   -821475.654 6
  17975160.180   -27181759.475 6 -21074881.279 6
  19911475.000     -508288.269 3   -198107.560 1
 94  1 20 21 52 29.9840000  0  8 18 27 28 19 29 14 22 31
  16070376.211   -33360081.702 7 -25804972.371 9
  19498257.492    -6363216.776 4  -4859117.470 4
  19545674.484    -5383162.221 5  -4107868.825 5
  17160916.688   -23598203.391 6 -18281879.506 7
  15942427.836   -44180813.728 7 -34330791.733 9
  17524170.625    -1072298.979 6   -779063.118 6
  17982713.352   -27142051.651 6 -21043940.155 6
  19887265.930     -635496.507 3   -297230.623 1
 94  1 20 21 52 59.9840000  0  8 18 27 28 19 29 14 22 31
  16053396.555   -33449308.965 7 -25874500.100 9
  19475035.992    -6485233.243 4  -4954195.198 4
  19526155.188    -5485706.538 5  -4187773.404 4
  17143062.367   -23692026.606 6 -18354988.477 7
  15936328.109   -44212870.208 7 -34355770.809 9
  17534582.859    -1017576.266 6   -736422.096 6
  17990337.234   -27102004.936 6 -21012734.967 6
  19863049.750     -762765.587 3   -396401.181 1
 94  1 20 21 53 29.9840000  0  8 18 27 28 19 29 14 22 31
  16036467.695   -33538268.620 7 -25943819.299 9
  19451837.695    -6607147.525 4  -5049193.302 5
  19506692.000    -5588012.938 5  -4267492.583 5
  17125242.805   -23785669.712 6 -18427957.109 7
  15930289.000   -44244607.956 7 -34380501.525 9
  17545045.774     -962604.055 6   -693586.640 6
  17998019.625   -27061630.207 6 -20981274.176 6
  19838817.672     -890093.523 3   -495617.586 1
 94  1 20 21 53 59.9840000  0  8 18 27 28 19 29 14 22 31
  16019590.906   -33626949.672 7 -26012921.400 9
  19428658.453    -6728953.123 4  -5144106.704 4
  19487268.289    -5690080.031 5  -4347025.310 4
  17107463.305   -23879096.991 6 -18500757.550 7
  15924311.672   -44276016.695 7 -34404975.871 9
  17555546.570     -907397.477 6   -650568.573 6
  18005769.383   -27020913.181 6 -20949546.654 6
  19814580.359    -1017452.027 3   -594857.791 1
 94  1 20 21 54 29.9840000  0  8 18 27 28 19 29 14 22 31
  16002768.016   -33715361.429 7 -26081813.673 9
  19405506.391    -6850635.864 5  -5238924.384 5
  19467898.281    -5791892.637 5  -4426359.728 4
  17089730.156   -23972279.662 6 -18573367.408 7
  15918399.953   -44307086.384 7 -34429186.019 9
  17566102.703     -851944.962 6   -607358.863 6
  18013580.484   -26979858.977 6 -20917556.390 6
  19790351.070    -1144823.162 4   -694107.837 1
 94  1 20 21 54 59.9840000  0  8 18 27 28 19 29 14 22 31
  15985995.039   -33803509.819 7 -26150500.717 9
  19382373.359    -6972192.175 5  -5333643.537 4
  19448570.188    -5893441.322 5  -4505488.511 5
  17072048.086   -24065199.415 6 -18645772.386 7
  15912553.836   -44337805.256 7 -34453122.799 9
  17576703.875     -796230.581 6   -563945.110 6
  18021456.719   -26938466.161 6 -20885302.278 6
  19766114.047    -1272202.358 3   -793364.196 2
 94  1 20 21 55 29.9840000  0  8 18 27 28 19 29 14 22 31
  15969271.180   -33891399.217 7 -26218985.942 9
  19359261.047    -7093636.812 4  -5428275.683 4
  19429295.008    -5994731.340 5  -4584415.715 4
  17054413.578   -24157858.419 6 -18717974.184 7
  15906773.961   -44368178.705 7 -34476790.425 9
  17587357.352     -740253.597 6   -520326.721 6
  18029398.547   -26896743.413 6 -20852791.081 6
  19741864.227    -1399590.403 3   -892627.469 1
 94  1 20 21 55 59.9840000  0  8 18 27 28 19 29 14 22 31
  15952597.328   -33979025.953 7 -26287266.500 9
  19336171.274    -7214975.967 4  -5522825.643 4
  19410071.094    -6095759.148 5  -4663138.621 5
  17036828.234   -24250272.465 6 -18789985.105 7
  15901056.899   -44398218.657 7 -34500198.182 9
  17598061.680     -683999.094 6   -476492.103 6
  18037398.594   -26854702.310 6 -20820031.819 6
  19717620.258    -1527000.137 3   -991907.570 1
 94  1 20 21 56 29.9840000  0  8 18 27 28 19 29 14 22 31
  15935975.320   -34066368.352 7 -26355325.495 9
  19313105.375    -7336197.125 5  -5617283.606 5
  19390899.000    -6196502.746 5  -4741640.048 5
  17019289.563   -24342443.344 6 -18861806.548 7
  15895404.594   -44427924.375 7 -34523345.493 9
  17608821.430     -627449.602 6   -432427.601 6
  18045462.211   -26812323.227 6 -20787009.196 6
  19693369.961    -1654430.850 3  -1091204.047 2
 94  1 20 21 56 59.9840000  0  8 18 27 28 19 29 14 22 31
  15919413.125   -34153405.045 7 -26423146.276 9
  19290058.117    -7457308.049 5  -5711655.705 5
  19371782.602    -6296961.109 5  -4819919.222 4
  17001795.797   -24434380.898 6 -18933446.171 7
  15889814.984   -44457299.124 7 -34546234.916 9
  17619640.024     -570613.521 6   -388139.792 6
  18053593.781   -26769592.762 6 -20753712.764 6
  19669120.094    -1781874.342 3  -1190510.472 2
 94  1 20 21 57 29.9840000  0  8 18 27 28 19 29 14 22 31
  15902905.781   -34240139.191 7 -26490731.309 9
  19267033.008    -7578313.076 5  -5805945.285 5
  19352719.820    -6397143.298 5  -4897983.192 5
  16984341.906   -24526111.335 6 -19004924.414 7
  15884285.703   -44486352.008 7 -34568873.531 9
  17630503.359     -513513.506 6   -343646.316 6
  18061787.555   -26726525.306 6 -20720153.734 6
  19644870.070    -1909322.810 3  -1289820.752 2
 94  1 20 21 57 59.9840000  0  8 18 27 28 19 29 14 22 31
  15886461.211   -34326564.049 7 -26558075.333 9
  19244031.547    -7699203.263 5  -5900145.363 4
  19333709.000    -6497044.749 5  -4975828.415 5
  16966922.438   -24617633.969 6 -19076240.724 7
  15878821.445   -44515070.028 7 -34591251.211 9
  17641419.219     -456152.459 6   -298949.440 6
  18070048.391   -26683116.294 6 -20686328.555 6
  19620616.024    -2036767.239 3  -1389127.863 1
 94  1 20 21 58 29.9840000  0  8 18 27 28 19 29 14 22 31
  15870073.734   -34412686.773 7 -26625183.935 9
  19221041.086    -7819984.330 5  -5994260.414 4
  19314752.367    -6596661.598 5  -5053451.860 5
  16949546.344   -24708950.076 6 -19147396.100 7
  15873424.508   -44543435.259 7 -34613353.992 9
  17652384.492     -398527.025 6   -254046.551 6
  18078374.078   -26639368.770 6 -20652239.611 6
  19596364.875    -2164189.152 3  -1488417.481 2
 94  1 20 21 58 59.9840000  0  8 18 27 28 19 29 14 22 31
  15853737.828   -34498524.996 7 -26692070.844 9
  19198079.281    -7940653.870 5  -6088288.597 4
  19295847.688    -6696001.712 5  -5130859.657 5
  16932206.906   -24800071.455 6 -19218399.743 7
  15868095.961   -44571435.813 7 -34635172.610 9
  17663399.797     -340649.927 6   -208947.556 6
  18086760.539   -26595301.493 6 -20617901.507 6
  19572128.641    -2291579.355 3  -1587682.376 2
 94  1 20 21 59 29.9840000  0  8 18 27 28 19 29 14 22 31
  15837455.328   -34584093.758 7 -26758747.789 9
  19175139.930    -8061216.079 5  -6182233.127 5
  19276992.359    -6795078.891 5  -5208062.570 5
  16914900.984   -24891004.260 6 -19289256.456 7
  15862834.555   -44599080.391 7 -34656713.842 9
  17674454.570     -282549.668 6   -163674.664 6
  18095202.539   -26550941.586 6 -20583335.387 6
  19547888.766    -2418951.182 3  -1686932.971 1
 94  1 20 21 59 59.9840000  0  8 18 27 28 19 29 14 22 31
  15821222.797   -34669387.373 7 -26825210.325 9
  19152215.781    -8181672.438 5  -6276095.146 5
  19258198.211    -6893878.325 5  -5285049.051 5
  16897639.453   -24981725.425 6 -19359948.232 7
  15857642.156   -44626367.491 7 -34677976.520 9
  17685556.656     -224218.818 6   -118222.093 6
  18103698.305   -26506288.439 6 -20548540.757 6
  19523650.219    -2546302.265 3  -1786167.402 2
 94  1 20 22  0 29.9840000  0  8 18 27 28 19 29 14 22 31
  15805045.922   -34754407.594 7 -26891459.827 9
  19129312.234    -8302034.297 5  -6369883.518 5
  19239442.969    -6992401.571 5  -5361820.337 5
  16880417.109   -25072229.922 6 -19430471.190 7
  15852517.117   -44653302.000 7 -34698964.451 9
  17696698.117     -165657.321 6    -72589.801 6
  18112250.039   -26461349.701 6 -20513523.594 6
  19499429.008    -2673622.358 4  -1885377.692 1
 94  1 20 22  0 59.9840000  0  8 18 27 28 19 29 14 22 31
  15788924.586   -34839121.766 7 -26957470.855 9
  19106428.563    -8422277.170 5  -6463579.176 5
  19220748.016    -7090642.175 5  -5438371.361 5
  16863239.563   -25162493.262 6 -19500806.227 7
  15847457.156   -44679892.207 7 -34719684.097 9
  17707886.953     -106860.511 6    -26774.149 6
  18120859.516   -26416120.160 6 -20478279.834 6
  19475200.594    -2800903.988 3  -1984558.071 2
 94  1 20 22  1 29.9830000  0  8 18 27 28 19 29 14 22 31
  15772863.706   -34923512.911 7 -27023230.165 9
  19083571.800    -8542397.754 5  -6557179.550 3
  19202107.191    -7188585.264 5  -5514690.566 4
  16846115.909   -25252491.365 6 -19570934.587 7
  15842461.472   -44706141.493 7 -34740138.088 9
  17719123.034      -47813.444 6     19236.507 6
  18129519.612   -26370599.501 6 -20442809.222 6
  19450993.394    -2928137.691 4  -2083701.080 1
 94  1 20 22  1 59.9830000  0  8 18 27 28 19 29 14 22 31
  15756865.503   -35007600.330 7 -27088752.814 9
  19060732.526    -8662417.683 5  -6650701.508 4
  19183529.159    -7286235.795 5  -5590781.781 5
  16829031.198   -25342252.386 7 -19640878.210 7
  15837530.136   -44732060.771 7 -34760334.930 9
  17730409.534       11498.838 6     65453.821 6
  18138236.995   -26324793.779 6 -20407116.500 6
  19426785.698    -3055333.465 3  -2182814.502 2
 94  1 20 22  2 29.9830000  0  8 18 27 28 19 29 14 22 31
  15740921.456   -35091381.697 7 -27154036.976 9
  19037913.495    -8782327.494 5  -6744137.633 5
  19165004.034    -7383592.710 5  -5666644.239 5
  16811992.816   -25431789.986 6 -19710647.747 7
  15832660.839   -44757650.393 7 -34780274.894 9
  17741746.792       71067.391 6    111870.840 6
  18147005.323   -26278712.685 6 -20371209.200 6
  19402585.339    -3182503.230 3  -2281907.723 2
 94  1 20 22  2 59.9830000  0  8 18 27 28 19 29 14 22 31
  15725036.237   -35174852.861 7 -27219079.430 9
  19015118.855    -8902110.040 5  -6837474.575 5
  19146540.948    -7480639.156 5  -5742264.749 5
  16794997.401   -25521119.188 7 -19780254.887 7
  15827853.894   -44782908.110 7 -34799956.234 9
  17753125.347      130878.335 6    158476.712 6
  18155829.300   -26232345.791 6 -20335079.211 6
  19378392.292    -3309661.331 4  -2380991.826 2
 94  1 20 22  3 29.9830000  0  8 18 27 28 19 29 14 22 31
  15709206.534   -35258032.670 7 -27283894.850 9
  18992350.222    -9021775.980 5  -6930720.672 5
  19128128.831    -7577360.957 5  -5817632.313 5
  16778034.237   -25610263.616 6 -19849718.055 7
  15823114.034   -44807811.295 7 -34819361.320 9
  17764551.105      190907.286 6    205252.475 6
  18164707.495   -26185691.914 6 -20298725.587 6
  19354191.659    -3436809.900 4  -2480068.482 2
 94  1 20 22  3 59.9830000  0  8 18 27 28 19 29 14 22 31
  15693434.230   -35340918.398 7 -27348481.112 9
  18969601.659    -9141323.478 5  -7023874.479 5
  19109786.222    -7673748.829 5  -5892739.668 5
  16761105.019   -25699227.303 7 -19919040.384 8
  15818444.839   -44832349.111 7 -34838481.700 9
  17776012.800      251136.807 6    252184.517 6
  18173641.714   -26138740.250 6 -20262139.923 6
  19329998.730    -3563952.329 3  -2579140.383 2
 94  1 20 22  4 29.9830000  0  8 18 27 28 19 29 14 22 31
  15677718.980   -35423500.344 7 -27412830.669 9
  18946876.495    -9260739.857 5  -7116926.128 5
  19091513.386    -7769786.262 5  -5967573.970 5
  16744214.667   -25787982.706 6 -19988200.404 8
  15813847.323   -44856508.065 7 -34857306.870 9
  17787509.808      311557.531 6    299265.549 6
  18182635.526   -26091478.802 6 -20225312.875 6
  19305810.175    -3691079.939 4  -2678200.705 1
 94  1 20 22  4 59.9830000  0  8 18 27 28 19 29 14 22 31
  15662060.136   -35505786.563 7 -27476949.787 9
  18924171.401    -9380030.897 5  -7209880.110 5
  19073303.698    -7865479.824 5  -6042140.295 5
  16727364.589   -25876531.050 7 -20057199.091 8
  15809323.644   -44880285.117 7 -34875834.447 9
  17799043.417      372154.195 6    346483.682 6
  18191686.745   -26043910.900 6 -20188247.016 6
  19281629.066    -3818173.453 4  -2777234.486 3
 94  1 20 22  5 29.9830000  0  8 18 27 28 19 29 14 22 31
  15646458.870   -35587779.395 7 -27540840.291 9
  18901496.472    -9499207.202 5  -7302744.690 5
  19055154.112    -7960840.917 5  -6116447.590 5
  16710554.980   -25964859.316 7 -20126026.278 8
  15804869.566   -44903687.769 7 -34894070.283 9
  17810607.120      432937.345 6    393847.132 6
  18200793.331   -25996061.617 6 -20150961.909 6
  19257443.542    -3945225.760 3  -2876236.122 2
 94  1 20 22  5 59.9830000  0  8 18 27 28 19 29 14 22 31
  15630909.026   -35669493.087 7 -27604513.280 9
  18878839.448    -9618283.728 5  -7395531.535 5
  19037067.081    -8055893.809 5  -6190514.742 5
  16693786.073   -26052970.992 7 -20194684.699 8
  15800481.417   -44926749.680 7 -34912040.611 9
  17822210.042      493913.189 6    441360.727 6
  18209945.917   -25947956.613 6 -20113477.549 6
  19233270.737    -4072242.213 3  -2975209.876 2
 94  1 20 22  6 29.9830000  0  8 18 27 28 19 29 14 22 31
  15615420.175   -35750899.928 7 -27667947.173 9
  18856197.628    -9737248.562 5  -7488231.347 5
  19019041.972    -8150641.785 5  -6264344.289 5
  16677062.058   -26140853.246 7 -20263164.345 8
  15796161.112   -44949453.793 7 -34929732.131 9
  17833855.737      555099.817 6    489038.570 6
  18219148.175   -25899601.091 6 -20075797.981 6
  19209121.167    -4199192.048 4  -3074131.699 2
 94  1 20 22  6 59.9830000  0  8 18 27 28 19 29 14 22 31
  15599987.136   -35831992.382 7 -27731136.091 9
  18833576.339    -9856116.284 5  -7580855.528 5
  19001062.050    -8245111.787 5  -6337957.237 5
  16660382.651   -26228523.143 7 -20331478.519 8
  15791904.964   -44971817.123 7 -34947158.107 9
  17845536.034      616486.346 6    536872.182 6
  18228393.667   -25851016.011 6 -20037939.540 6
  19184969.855    -4326089.868 4  -3173013.009 2
 94  1 20 22  7 29.9830000  0  8 18 27 28 19 29 14 22 31
  15584617.675   -35912751.387 7 -27794065.173 9
  18810978.925    -9974889.046 5  -7673405.699 5
  18983135.448    -8339288.332 5  -6411341.533 5
  16643742.526   -26315965.186 7 -20399615.145 8
  15787715.339   -44993838.238 7 -34964317.424 9
  17857256.394      678087.088 6    584872.706 6
  18237685.558   -25802189.965 6 -19999893.315 6
  19160831.948    -4452932.756 3  -3271851.556 1
 94  1 20 22  7 59.9830000  0  8 18 27 28 19 29 14 22 31
  15569316.667   -35993176.482 7 -27856734.064 9
  18788388.026   -10093585.181 5  -7765896.149 5
  18965272.081    -8433177.313 5  -6484501.763 5
  16627139.722   -26403199.537 7 -20467589.925 8
  15783588.800   -45015520.234 7 -34981212.489 9
  17869017.206      739873.764 6    633018.122 6
  18247023.159   -25753117.421 6 -19961655.026 6
  19136709.605    -4579719.250 4  -3370646.121 1
 94  1 20 22  8 29.9830000  0  8 18 27 28 19 29 14 22 31
  15554075.972   -36073252.775 7 -27919131.162 9
  18765818.378   -10212196.531 5  -7858320.531 5
  18947465.980    -8526769.538 5  -6557430.736 5
  16610583.816   -26490216.545 7 -20535395.344 8
  15779529.144   -45036853.938 7 -34997836.165 9
  17880806.276      801846.547 6    681308.538 6
  18256412.003   -25703782.889 6 -19923212.577 6
  19112591.839    -4706444.995 4  -3469393.366 3
 94  1 20 22  8 59.9830000  0  8 18 27 28 19 29 14 22 31
  15538902.464   -36153002.385 7 -27981273.706 9
  18743265.323   -10330718.293 5  -7950675.112 5
  18929710.972    -8620043.806 5  -6630111.949 5
  16594064.355   -26577012.562 7 -20603028.576 8
  15775533.737   -45057855.596 7 -35014201.103 9
  17892638.862      864008.349 6    729746.259 6
  18265849.503   -25654182.095 6 -19884562.650 5
  19088489.347    -4833113.443 4  -3568095.989 2
 94  1 20 22  9 29.9830000  0  8 18 27 28 19 29 14 22 31
  15523785.987   -36232437.675 7 -28043171.324 9
  18720731.823   -10449140.432 5  -8042952.073 5
  18912027.667    -8712976.895 5  -6702527.315 5
  16577589.464   -26663586.949 7 -20670489.102 8
  15771601.995   -45078513.572 7 -35030298.233 9
  17904503.526      926366.198 6    778336.735 5
  18275342.409   -25604307.712 6 -19845699.545 6
  19064400.003    -4959704.062 5  -3666737.962 2
 94  1 20 22  9 59.9830000  0  8 18 27 28 19 29 14 22 31
  15508722.214   -36311583.435 7 -28104843.337 9
  18698215.034   -10567456.964 5  -8135146.743 5
  18894407.019    -8805576.238 5  -6774682.609 5
  16561158.847   -26749950.048 7 -20737784.984 8
  15767736.042   -45098829.566 7 -35046128.883 9
  17916403.933      988909.380 6    827071.632 6
  18284879.761   -25554177.880 6 -19806637.381 5
  19040322.316    -5086227.681 5  -3765327.748 3
 94  1 20 22 10 29.9830000  0  8 18 27 28 19 29 14 22 31
  15493720.222   -36390433.677 7 -28166285.077 9
  18675727.831   -10685635.616 5  -8227233.957 5
  18876853.753    -8897826.583 5  -6846565.955 5
  16544767.480   -26836077.568 7 -20804897.311 8
  15763935.894   -45118797.094 7 -35061687.998 9
  17928341.105     1051650.803 5    875960.992 5
  18294469.526   -25503789.861 6 -19767374.050 5
  19016255.651    -5212679.971 4  -3863861.921 3
 94  1 20 22 10 59.9830000  0  8 18 27 28 19 29 14 22 31
  15478774.276   -36468979.454 7 -28227489.569 9
  18653263.847   -10803671.297 5  -8319209.746 5
  18859368.417    -8989705.811 5  -6918160.107 5
  16528419.503   -26921974.944 7 -20871830.289 8
  15760203.675   -45138407.151 7 -35076968.563 9
  17940318.323     1114579.203 6    924996.060 6
  18304107.362   -25453145.238 6 -19727910.757 6
  18992207.995    -5339058.081 4  -3962338.331 2
 94  1 20 22 11 29.9830000  0  8 18 27 28 19 29 14 22 31
  15463886.144   -36547207.525 7 -28288446.497 9
  18630829.191   -10921575.130 5  -8411082.812 5
  18841961.292    -9081207.836 5  -6989460.344 5
  16512113.495   -27007659.734 7 -20938597.635 8
  15756544.823   -45157637.807 7 -35091953.494 9
  17952330.980     1177682.795 6    974167.637 5
  18313792.206   -25402240.734 6 -19688244.969 6
  18968173.620    -5465361.289 4  -4060756.363 2
 94  1 20 22 11 59.9830000  0  8 18 27 28 19 29 14 22 31
  15449066.237   -36625083.456 7 -28349129.031 9
  18608420.245   -11039329.028 5  -8502839.045 4
  18824613.144    -9172333.756 5  -7060467.494 5
  16495853.550   -27093117.923 7 -21005188.394 8
  15752961.925   -45176468.394 7 -35106626.684 9
  17964373.628     1240979.826 5   1023489.941 5
  18323529.683   -25351072.391 6 -19648373.592 6
  18944153.972    -5591570.943 4  -4159101.493 2
 94  1 20 22 12 29.9830000  0  8 18 27 28 19 29 14 22 31
  15434314.401   -36702602.887 7 -28409533.780 9
  18586034.925   -11156956.147 5  -8594496.500 5
  18807343.761    -9263097.685 5  -7131192.580 5
  16479628.323   -27178379.281 7 -21071625.792 8
  15749449.800   -45194922.460 7 -35121006.480 9
  17976447.245     1304446.490 5   1072944.424 5
  18333311.003   -25299671.161 6 -19608320.742 5
  18920155.566    -5717693.552 4  -4257378.790 3
 94  1 20 22 12 59.9830000  0  8 18 27 28 19 29 14 22 31
  15419634.097   -36779758.334 7 -28469654.884 9
  18563674.386   -11274474.381 5  -8686069.068 5
  18790147.237    -9353496.112 5  -7201632.844 5
  16463437.956   -27263456.171 7 -21137919.447 8
  15746012.605   -45212987.001 7 -35135082.750 9
  17988561.831     1368085.341 5   1122533.085 5
  18343133.019   -25248056.626 6 -19568101.690 5
  18896175.089    -5843717.724 4  -4355579.377 2
 94  1 20 22 13 29.9830000  0  8 18 27 28 19 29 14 22 31
  15405021.245   -36856553.117 7 -28529494.967 9
  18541332.706   -11391875.754 5  -8777550.575 5
  18773009.542    -9443533.402 5  -7271791.723 5
  16447284.933   -27348338.390 7 -21204061.417 8
  15742651.003   -45230656.034 7 -35148850.833 9
  18000702.175     1431903.532 5   1172261.479 5
  18352994.870   -25196231.875 6 -19527718.833 6
  18872216.355    -5969625.111 5  -4453688.922 3
 94  1 20 22 13 59.9830000  0  8 18 27 28 19 29 14 22 31
  15390472.464   -36932988.738 7 -28589055.182 9
  18519016.480   -11509148.739 5  -8868932.062 5
  18755946.964    -9533210.776 5  -7341670.134 5
  16431178.964   -27433000.692 7 -21270032.030 8
  15739360.362   -45247945.639 7 -35162323.257 9
  18012883.722     1495896.252 5   1222125.885 5
  18362894.980   -25144206.279 6 -19487179.462 5
  18848280.120    -6095410.625 5  -4551703.505 4
 94  1 20 22 14 29.9830000  0  8 18 27 28 19 29 14 22 31
  15375993.331   -37009098.109 7 -28648361.176 9
  18496717.448   -11626327.684 5  -8960240.292 5
  18738944.636    -9622521.302 5  -7411262.682 5
  16415103.636   -27517455.152 7 -21335840.668 8
  15736135.042   -45264888.192 7 -35175525.253 9
  18025085.659     1560022.448 5   1272094.293 5
  18372832.972   -25091986.406 6 -19446488.716 5
  18824364.284    -6221092.600 5  -4649637.410 4
 94  1 20 22 14 59.9830000  0  8 18 27 28 19 29 14 22 31
  15361569.058   -37084882.086 7 -28707413.613 9
  18474438.378   -11743415.654 5  -9051477.606 5
  18722023.808    -9711447.335 5  -7480555.637 5
  16399079.089   -27601679.332 7 -21401469.893 8
  15732979.495   -45281472.262 7 -35188447.909 9
  18037317.487     1624288.763 5   1322171.887 5
  18382812.378   -25039540.291 6 -19405621.678 6
  18800466.034    -6346662.853 5  -4747484.248 3
 94  1 20 22 15 29.9830000  0  8 18 27 28 19 29 14 22 31
  15347212.769   -37160341.798 7 -28766213.380 9
  18452175.058   -11860401.937 5  -9142635.664 5
  18705173.776    -9799992.838 5  -7549552.079 5
  16383093.651   -27685664.071 7 -21466912.514 8
  15729892.011   -45297702.867 7 -35201095.142 9
  18049571.339     1688693.397 5   1372357.250 5
  18392840.901   -24986841.729 6 -19364557.926 5
  18776592.183    -6472114.885 5  -4845238.974 1
 94  1 20 22 15 59.9830000  0  8 18 27 28 19 29 14 22 31
  15332915.948   -37235451.124 7 -28824740.120 9
  18429930.128   -11977293.757 5  -9233720.133 5
  18688400.730    -9888162.206 5  -7618255.433 5
  16367162.956   -27769401.536 7 -21532162.463 8
  15726871.714   -45313570.425 7 -35213459.476 9
  18061854.066     1753234.190 5   1422648.717 5
  18402917.159   -24933894.215 6 -19323300.197 5
  18752744.050    -6597448.667 5  -4942901.550 4
 94  1 20 22 16 29.9830000  0  8 18 27 28 19 29 14 22 31
  15318691.691   -37310214.161 7 -28882997.021 9
  18407701.386   -12094106.915 5  -9324743.322 5
  18671687.206    -9975969.655 5  -7686676.792 5
  16351267.151   -27852927.594 7 -21597247.684 8
  15723920.058   -45329076.722 7 -35225542.317 9
  18074160.683     1817898.824 5   1473036.674 5
  18413035.183   -24880717.442 6 -19281863.817 6
  18728914.151    -6722680.412 5  -5040484.620 4
 94  1 20 22 16 59.9830000  0  8 18 27 28 19 29 14 22 31
  15304532.644   -37384626.303 7 -28940980.492 9
  18385492.495   -12210823.466 5  -9415691.211 5
  18655048.089   -10063433.179 5  -7754830.154 5
  16335406.394   -27936259.712 7 -21662181.774 8
  15721041.394   -45344210.224 7 -35237334.657 9
  18086489.347     1882701.124 5   1523531.913 5
  18423195.800   -24827325.129 5 -19240259.487 5
  18705100.597    -6847810.492 5  -5137988.448 4
 94  1 20 22 17 29.9830000  0  8 18 27 28 19 29 14 22 31
  15290440.753   -37458684.217 7 -28998687.952 9
  18363301.003   -12327435.059 5  -9506557.341 5
  18638463.831   -10150558.118 5  -7822719.682 5
  16319585.230   -28019404.575 7 -21726969.952 8
  15718234.323   -45358967.922 7 -35248834.178 9
  18098845.612     1947634.513 5   1574129.288 5
  18433392.894   -24773739.080 5 -19198504.197 5
  18681308.050    -6972843.091 5  -5235416.339 5
 94  1 20 22 17 59.9830000  0  8 18 27 28 19 29 14 22 31
  15276414.980   -37532384.188 7 -29056116.492 9
  18341130.206   -12443937.484 5  -9597338.395 5
  18621960.675   -10237321.541 5  -7890327.523 5
  16303797.698   -28102364.343 7 -21791613.893 8
  15715497.362   -45373346.806 7 -35260038.503 9
  18111226.714     2012699.762 5   1624829.416 5
  18443623.316   -24719972.544 5 -19156608.267 5
  18657527.308    -7097776.713 5  -5332767.100 3
 94  1 20 22 18 29.9830000  0  8 18 27 28 19 29 14 22 31
  15262456.667   -37605737.090 7 -29113274.592 9
  18318987.784   -12560310.293 5  -9688018.446 5
  18605514.894   -10323697.155 5  -7957633.170 5
  16288045.651   -28185144.509 7 -21856117.887 8
  15712833.589   -45387341.583 7 -35270943.532 9
  18123638.816     2077907.491 5   1675640.561 5
  18453894.198   -24666006.722 6 -19114557.043 5
  18633782.972    -7222596.258 5  -5430028.940 3
 94  1 20 22 18 59.9830000  0  8 18 27 28 19 29 14 22 31
  15248564.331   -37678733.481 7 -29170154.886 9
  18296868.300   -12676550.842 5  -9778595.439 5
  18589155.698   -10409674.777 5  -8024628.684 5
  16272334.808   -28267717.873 7 -21920460.740 8
  15710245.511   -45400948.061 7 -35281545.989 9
  18136076.894     2143260.945 5   1726565.265 5
  18464205.917   -24611818.584 6 -19072332.584 5
  18610058.026    -7347275.026 5  -5527181.064 3
 94  1 20 22 19 29.9820000  0  8 18 27 28 19 29 14 22 31
  15234740.084   -37751373.353 7 -29226757.370 9
  18274768.186   -12792671.891 5  -9869079.340 5
  18572868.147   -10495247.611 5  -8091308.769 5
  16256664.740   -28350073.361 7 -21984633.817 8
  15707723.873   -45414193.420 7 -35291867.054 9
  18148530.592     2208731.991 5   1777581.603 5
  18474556.412   -24557426.352 6 -19029949.084 5
  18586357.553    -7471809.683 5  -5624220.930 3
 94  1 20 22 19 59.9820000  0  8 18 27 28 19 29 14 22 31
  15220988.623   -37823651.875 7 -29283078.289 9
  18252699.022   -12908665.331 5  -9959463.807 5
  18556667.897   -10580405.875 5  -8157665.812 5
  16241030.186   -28432210.837 7 -22048637.015 8
  15705273.123   -45427071.698 7 -35301902.088 9
  18161012.826     2274336.072 5   1828701.594 5
  18484949.193   -24502809.022 5 -18987390.187 5
  18562690.592    -7596189.252 5  -5721139.930 3
 94  1 20 22 20 29.9820000  0  8 18 27 28 19 29 14 22 31
  15207297.990   -37895578.677 7 -29339125.136 9
  18230647.131   -13024540.604 5 -10049756.156 5
  18540539.037   -10665167.228 5  -8223713.582 5
  16225445.287   -28514134.991 7 -22112473.997 8
  15702889.350   -45439602.780 7 -35311666.575 9
  18173521.787     2340055.098 5   1879911.163 5
  18495382.053   -24447982.795 5 -18944668.511 5
  18539045.264    -7720420.497 5  -5817943.389 4
 94  1 20 22 20 59.9820000  0  8 18 27 28 19 29 14 22 31
  15193684.943   -37967129.755 7 -29394879.212 9
  18208620.842   -13140288.529 5 -10139949.279 5
  18524488.748   -10749519.981 5  -8289442.944 5
  16209896.592   -28595815.988 7 -22176121.505 8
  15700570.678   -45451783.537 7 -35321158.087 9
  18186051.811     2405900.263 5   1931219.019 5
  18505855.639   -24392951.273 5 -18901786.887 5
  18515441.100    -7844502.172 5  -5914630.284 3
 94  1 20 22 21 29.9820000  0  8 18 27 28 19 29 14 22 31
  15180137.217   -38038316.550 7 -29450349.428 9
  18186621.748   -13255901.959 5 -10230037.601 5
  18508508.225   -10833470.714 5  -8354859.053 5
  16194397.725   -28677280.651 7 -22239600.436 8
  15698317.904   -45463619.349 7 -35330380.807 9
  18198605.045     2471865.809 5   1982620.683 5
  18516361.990   -24337742.658 5 -18858767.262 5
  18491844.881    -7968464.737 5  -6011224.379 4
 94  1 20 22 21 59.9820000  0  8 18 27 28 19 29 14 22 31
  15166657.295   -38109141.440 7 -29505537.644 9
  18164643.873   -13371380.183 5 -10320020.595 5
  18492617.443   -10917017.030 5  -8419960.027 5
  16178934.443   -28758540.342 7 -22302919.655 8
  15696137.233   -45475086.657 7 -35339316.385 9
  18211182.975     2537962.634 5   2034124.630 5
  18526901.342   -24282354.938 5 -18815608.079 5
  18468279.889    -8092307.894 5  -6107725.431 4
 94  1 20 22 22 29.9820000  0  8 18 27 28 19 29 14 22 31
  15153252.764   -38179590.861 7 -29560433.291 9
  18142695.998   -13486713.444 5 -10409890.632 5
  18476797.029   -11000149.397 5  -8484738.455 5
  16163514.600   -28839582.126 7 -22366069.086 8
  15694028.787   -45486164.353 7 -35347948.366 9
  18223787.834     2604199.818 5   2085737.948 5
  18537477.162   -24226784.843 6 -18772306.786 5
  18444741.545    -8216012.603 5  -6204118.617 5
 94  1 20 22 22 59.9820000  0  8 18 27 28 19 29 14 22 31
  15139917.006   -38249674.352 7 -29615043.783 9
  18120776.475   -13601919.831 5 -10499661.795 5
  18461049.490   -11082883.485 5  -8549206.539 5
  16148129.608   -28920425.752 7 -22429064.083 8
  15691995.139   -45496848.545 7 -35356273.724 9
  18236412.779     2670565.459 5   2137451.383 5
  18548083.326   -24171040.638 6 -18728869.814 5
  18421228.756    -8339567.358 5  -6300394.939 5
 94  1 20 22 23 29.9820000  0  8 18 27 28 19 29 14 22 31
  15126649.029   -38319393.637 7 -29669370.493 9
  18098873.506   -13717011.629 5 -10589343.660 5
  18445380.975   -11165225.555 5  -8613369.153 5
  16132782.108   -29001081.933 7 -22491913.048 8
  15690038.600   -45507130.165 7 -35364285.390 9
  18249067.834     2737059.566 5   2189264.910 5
  18558726.693   -24115117.294 5 -18685293.245 5
  18397749.662    -8462943.340 5  -6396531.978 4
 94  1 20 22 23 59.9820000  0  8 18 27 28 19 29 14 22 31
  15113451.326   -38388749.571 7 -29723414.069 9
  18076988.381   -13832013.420 5 -10678955.405 5
  18429785.006   -11247180.130 5  -8677229.829 5
  16117471.608   -29081530.379 7 -22554600.127 8
  15688159.115   -45517009.448 7 -35371983.543 9
  18261740.725     2803667.984 5   2241167.504 5
  18569399.623   -24059021.707 5 -18641582.460 5
  18374309.443    -8586121.757 5  -6492515.075 4
 94  1 20 22 24 29.9820000  0  8 18 27 28 19 29 14 22 31
  15100328.826   -38457724.783 7 -29777160.985 9
  18055120.858   -13946929.426 5 -10768500.331 5
  18414262.748   -11328742.874 5  -8740785.189 6
  16102202.084   -29161760.758 7 -22617117.287 8
  15686353.623   -45526498.575 7 -35379377.681 9
  18274441.029     2870385.054 5   2293154.760 5
  18580110.170   -24002748.624 5 -18597733.379 5
  18350908.373    -8709094.143 5  -6588337.640 5
 94  1 20 22 24 59.9820000  0  8 18 27 28 19 29 14 22 31
  15087272.108   -38526321.062 7 -29830612.626 9
  18033264.076   -14061782.908 5 -10857996.505 5
  18398814.983   -11409920.421 5  -8804040.399 5
  16086978.342   -29241784.076 7 -22679473.107 8
  15684615.795   -45535628.716 7 -35386492.094 9
  18287153.139     2937184.713 5   2345206.371 5
  18590849.022   -23946314.360 5 -18553758.711 5
  18327544.162    -8831880.857 5  -6684015.536 4
 94  1 20 22 25 29.9820000  0  8 18 27 28 19 29 14 22 31
  15074294.459   -38594534.953 7 -29883766.296 9
  18011423.537   -14176555.912 5 -10947429.966 6
  18383450.475   -11490685.035 5  -8866973.842 6
  16071785.326   -29321596.740 7 -22741664.778 8
  15682944.764   -45544405.786 7 -35393331.380 9
  18299876.873     3004062.616 5   2397318.951 5
  18601613.553   -23889730.993 5 -18509667.860 5
  18304210.639    -8954504.351 5  -6779566.244 4
 94  1 20 22 25 59.9820000  0  8 18 27 28 19 29 14 22 31
  15061384.826   -38662359.807 7 -29936616.830 9
  17989605.061   -14291225.878 5 -11036783.114 5
  18368155.936   -11571017.594 5  -8929570.645 5
  16056639.076   -29401208.911 7 -22803700.222 8
  15681343.170   -45552826.530 7 -35399893.015 9
  18312615.295     3071005.954 5   2449482.514 5
  18612411.748   -23832994.540 5 -18465457.718 5
  18280907.889    -9076973.691 5  -6874996.825 3
 94  1 20 22 26 29.9820000  0  8 18 27 28 19 29 14 22 31
  15048554.459   -38729785.657 7 -29989156.453 8
  17967810.068   -14405756.946 5 -11126028.072 5
  18352958.873   -11650893.835 5  -8991811.862 6
  16041526.373   -29480628.543 7 -22865585.642 8
  15679811.826   -45560874.074 7 -35406163.845 9
  18325371.240     3138028.844 5   2501708.068 5
  18623244.467   -23776073.491 5 -18421103.745 5
  18257634.045    -9199264.492 5  -6970288.308 5
 94  1 20 22 26 59.9820000  0  8 18 27 28 19 29 14 22 31
  15035797.428   -38796828.331 7 -30041397.492 8
  17946043.475   -14520138.359 5 -11215156.410 5
  18337846.693   -11730316.342 5
  16026449.381   -29559853.089 7
  15678353.240   -45568535.329 7 -35412133.671 9
  18338143.756     3205136.893 5   2553999.990 5
  18634107.170   -23718975.738 5 -18376612.066 5
  18234396.264    -9321372.047 5  -7065436.995 5
 94  1 20 22 27 29.9820000  0  8 18 27 28 19 29 14 22 31
  15023109.475   -38863507.763 7 -30093355.500 8
  17924304.248   -14634373.789 5 -11304170.964 5
  18322814.154   -11809309.530 5
  16011408.615   -29638895.646 7
  15676971.412   -45575801.246 7 -35417795.453 9
  18350924.623     3272323.927 5   2606353.443 5
  18645004.967   -23661719.434 5 -18331996.852 5
  18211190.420    -9443304.123 5  -7160448.963 5
 94  1 20 22 27 59.9820000  0  8 18 27 28 19 29 14 22 31
  15010489.029   -38929817.445 7 -30145025.373 9
  17902590.615   -14748477.918 5 -11393083.215 5
  18307860.983   -11887884.442 5  -9176479.835 5
  15996406.764   -29717736.709 7 -23050345.210 8
  15675664.865   -45582665.885 7 -35423144.531 9
  18363728.279     3339584.688 5   2658764.349 4
  18655933.881   -23604289.149 5 -18287246.047 5
  18188027.365    -9565044.368 5  -7255311.463 5
 94  1 20 22 28 29.9820000  0  8 18 27 28 19 29 14 22 31
  14997941.248   -38995761.247 7 -30196410.153 9
  17880897.451   -14862476.674 5 -11481913.359 5
  18292984.693   -11966055.980 5  -9237392.729 5
  15981442.600   -29796368.059 7 -23111616.373 8
  15674432.561   -45589144.251 7 -35428192.629 9
  18376540.795     3406929.385 5   2711240.651 5
  18666889.443   -23546704.664 5 -18242375.099 5
  18164895.131    -9686600.318 5  -7350030.340 4
 94  1 20 22 28 59.9820000  0  8 18 27 28 19 29 14 22 31
  14985467.209   -39061323.637 7 -30247497.724 8
  17859222.639   -14976382.131 5 -11570670.785 5
  18278190.865   -12043813.557 5  -9297983.034 5
  15966520.233   -29874768.485 7 -23172707.612 8
  15673271.100   -45595238.125 7 -35432941.121 9
  18389368.897     3474357.745 5   2763782.153 5
  18677877.467   -23488973.612 5 -18197389.947 5
  18141796.381    -9807985.253 5  -7444615.974 4
 94  1 20 22 29 29.9820000  0  8 18 27 28 19 29 14 22 31
  14973061.764   -39126496.019 7 -30298281.394 8
  17837562.358   -15090203.453 5 -11659362.654 5
  18263472.029   -12121146.061 5  -9358242.114 6
  15951649.701   -29952937.670 7 -23233618.659 8
  15672183.561   -45600961.038 7 -35437400.551 9
  18402210.358     3541851.825 5   2816374.867 4
  18688892.850   -23431090.805 5 -18152286.537 5
  18118733.201    -9929192.830 5  -7539063.404 4
 94  1 20 22 29 59.9820000  0  8 18 27 28 19 29 14 22 31
  14960738.365   -39191275.057 7 -30348758.562 8
  17815920.842   -15203942.064 5 -11747990.099 6
  18248846.779   -12198030.162 5  -9418151.787 5
  15936812.420   -30030878.698 7 -23294351.920 8
  15671161.670   -45606329.901 7 -35441584.099 9
  18415070.139     3609417.051 5   2869023.015 4
  18699939.162   -23373048.792 5 -18107059.072 5
  18095704.045   -10050208.942 5  -7633361.634 5
 94  1 20 22 30 29.9820000  0  8 18 27 28 19 29 14 22 31
  14948484.256   -39255656.621 7 -30398926.007 8
  17794292.795   -15317587.223 5 -11836544.687 5
  18234302.139   -12274455.610 5  -9477704.071 5
  15922025.326   -30108603.897 7 -23354916.993 8
  15670210.303   -45611333.138 7 -35445482.745 9
  18427945.279     3677059.044 5   2921730.973 4
  18711011.858   -23314853.869 5 -18061712.460 5
  18072712.920   -10171020.020 5  -7727500.111 5
 94  1 20 22 30 59.9820000  0  8 18 27 28 19 29 14 22 31
  14936310.701   -39319630.668 7 -30448775.921 8
  17772689.358   -15431115.985 5 -11925008.604 6
  18219846.928   -12350410.308 5  -9536889.542 5
  15907278.436   -30186105.496 7 -23415307.854 8
  15669332.858   -45615947.583 7 -35449078.449 9
  18440828.373     3744767.443 5   2974490.672 5
  18722116.256   -23256500.738 5 -18016242.589 5
  18049769.631   -10291597.916 5  -7821456.899 5
 94  1 20 22 31 29.9820000  0  8 18 27 28 19 29 14 22 31
  14924211.459   -39383216.969 7 -30498323.665 8
  17751107.108   -15544525.167 5 -12013379.311 6
  18205480.545   -12425911.759 5  -9595721.800 5
  15892567.287   -30263415.104 7 -23475549.082 8
  15668526.733   -45620177.897 7 -35452374.802 9
  18453723.342     3812534.150 5   3027295.829 4
  18733243.537   -23198023.154 5 -17970675.718 5
  18026870.092   -10411935.876 5  -7915226.682 5
 94  1 20 22 31 59.9820000  0  8 18 27 28 19 29 14 22 31
  14912186.209   -39446400.969 7 -30547557.949 8
  17729553.108   -15657797.172 5 -12101643.169 5
  18191200.217   -12500952.307 5  -9654194.939 5
  15877892.654   -30340536.558 7 -23535643.709 9
  15667799.608   -45624004.963 7 -35455356.951 9
  18466639.779     3880374.900 5   3080158.665 4
  18744394.779   -23139425.871 5 -17925015.602 5
  18004017.943   -10532026.210 5  -8008803.528 5
 94  1 20 22 32 29.9820000  0  8 18 27 28 19 29 14 22 31
  14900239.264   -39509179.934 7 -30596476.623 8
  17708023.131   -15770930.908 5 -12189799.269 6
  18177007.639   -12575552.107 5  -9712324.630 5
  15863249.740   -30417472.255 7 -23595593.581 8
  15667150.279   -45627418.371 7 -35458016.764 9
  18479554.295     3948275.770 5   3133068.344 4
  18755563.998   -23080722.640 5 -17879272.913 5
  17981209.639   -10651875.483 5  -8102192.528 5
 94  1 20 22 32 59.9820000  0  8 18 27 28 19 29 14 22 31
  14888377.483   -39571535.660 7 -30645065.495 8
  17686526.123   -15883915.052 5 -12277838.788 6
  18162889.748   -12649709.008 5  -9770109.220 5
  15848643.975   -30494206.293 7 -23655386.340 8
  15666577.592   -45630424.522 7 -35460359.241 9
  18492492.865     4016245.617 5   3186031.785 4
  18766759.584   -23021893.408 5 -17833432.042 5
  17958451.725   -10771471.568 5  -8195384.239 5
 94  1 20 22 33 29.9820000  0  8 18 27 28 19 29 14 22 31
  14876582.483   -39633495.126 7 -30693345.589 8
  17665045.951   -15996787.365 5 -12365791.165 5
  18148858.733   -12723451.007 5  -9827570.504 6
  15834079.076   -30570773.243 7 -23715048.876 8
  15666073.303   -45633071.277 7 -35462421.662 9
  18505430.568     4084248.982 5   3239021.337 4
  18777975.928   -22962951.721 5 -17787503.555 5
  17935731.475   -10890862.108 5  -8288415.758 5
 94  1 20 22 33 59.9820000  0  8 18 27 28 19 29 14 22 31
  14864876.240   -39695032.317 7 -30741296.647 8
  17643590.865   -16109542.284 5 -12453652.111 5
  18134908.084   -12796765.483 5  -9884698.673 6
  15819540.998   -30647152.464 7 -23774565.145 9
  15665642.233   -45635354.346 7 -35464200.702 9
  18518379.022     4152289.497 5   3292039.835 4
  18789218.428   -22903860.575 5 -17741458.616 5
  17913052.678   -11010035.565 5  -8381278.144 4
 94  1 20 22 34 29.9820000  0  8 18 27 28 19 29 14 22 31
  14853243.928   -39756159.239 7 -30788928.007 8
  17622152.654   -16222186.646 5 -12541426.876 6
  18121036.436   -12869646.429 5  -9941489.009 6
  15805046.272   -30723328.360 7 -23833922.973 8
  15665275.639   -45637275.505 7 -35465697.724 9
  18531335.451     4220357.604 5   3345079.827 4
  18800497.084   -22844615.674 5 -17695293.850 5
  17890419.131   -11128990.466 5  -8473970.205 5
 94  1 20 22 34 59.9820000  0  8 18 27 28 19 29 14 22 31
  14841688.123   -39816876.119 7 -30836239.861 8
  17600738.451   -16334714.856 6 -12629111.136 6
  18107264.397   -12942069.118 5  -9997922.276 6
  15790591.287   -30799292.400 7 -23893115.727 8
  15664977.436   -45638837.692 7 -35466915.034 9
  18544291.240     4288448.844 5   3398137.837 4
  18811801.467   -22785212.556 5 -17649005.795 4
  17867827.139   -11247716.927 5  -8566484.271 5
 94  1 20 22 35 29.9820000  0  8 18 27 28 19 29 14 22 31
  14830211.967   -39877190.716 7 -30883238.237 8
  17579352.537   -16447111.673 5 -12716693.033 6
  18093565.803   -13014008.289 5 -10053978.766 6
  15776174.514   -30875045.849 7 -23952144.380 9
  15664752.553   -45640021.083 7 -35467837.177 9
  18557254.186     4356575.786 5   3451223.670 4
  18823129.490   -22725674.885 5 -17602612.913 5
  17845275.912   -11366208.867 5  -8658815.590 5
 94  1 20 22 35 59.9820000  0  8 18 27 28 19 29 14 22 31
  14818808.225   -39937116.477 7 -30929933.638 8
  17557988.967   -16559383.123 6 -12804177.217 6
  18079974.686   -13085462.574 5 -10109657.434 6
  15761798.811   -30950591.043 7 -24011010.754 9
  15664598.334   -45640813.883 7 -35468454.959 9
  18570230.928     4424747.138 5   3504344.117 4
  18834478.733   -22666032.916 5 -17556138.742 3
  17822771.678   -11484464.038 5  -8750962.411 4
 94  1 20 22 36 29.9820000  0  8 18 27 28 19 29 14 22 31
  14807480.897   -39996645.910 7 -30976320.204 8
  17536647.889   -16671526.928 6 -12891561.961 6
  18066469.654   -13156421.337 5 -10164949.971 6
  15747464.811   -31025920.191 7 -24069708.779 9
  15664525.990   -45641199.586 7
  18583209.990     4492974.927 5   3557508.545 3
  18845849.975   -22606286.168 5 -17509582.912 4
  17800318.318   -11602467.636 5  -8842913.202 5
 94  1 20 22 36 59.9820000  0  8 18 27 28 19 29 14 22 31
  14796228.670   -40055764.936 7 -31022386.972 8
  17515333.022   -16783541.873 6 -12978846.297 6
  18053060.795   -13226891.686 5 -10219861.921 6
  15733169.686   -31101050.911 7 -24128252.198 9
  15664527.998   -45641192.401 7
  18596202.162     4561271.502 5   3610726.544 2
  18857237.147   -22546445.317 5 -17462953.764 4
  17777911.201   -11720214.886 5  -8934664.235 5
 94  1 20 22 37 29.9810000  0  8 18 27 28 19 29 14 22 31
  14785058.298   -40114475.825 7 -31068135.729 8
  17494037.087   -16895438.350 6 -13066038.325 6
  18039743.204   -13296883.877 5 -10274401.281 6
  15718906.595   -31175993.812 7 -24186649.250 9
  15664605.423   -45640791.860 7
  18609218.298     4629653.336 4   3664011.008 3
  18868640.196   -22486512.803 5 -17416253.164 4
  17755550.360   -11837715.836 5  -9026223.348 5
 94  1 20 22 37 59.9810000  0  8 18 27 28 19 29 14 22 31
  14773966.204   -40172764.610 7 -31113555.572 8
  17472763.829   -17007240.195 6 -13153156.615 6
  18026504.493   -13366422.127 5 -10328586.926 6
  15704681.743   -31250739.970 7 -24244893.008 9
  15664754.868   -45640003.947 7 -35467823.932 9
  18622245.517     4698104.374 5   3717349.375 3
  18880070.267   -22426461.422 5 -17369459.996 5
  17733240.673   -11954970.814 5  -9117590.795 5
 94  1 20 22 38 29.9810000  0  8 18 27 28 19 29 14 22 31
  14762954.548   -40230626.143 7 -31158642.485 8
  17451507.845   -17118946.226 6 -13240200.220 6
  18013357.525   -13435521.165 5 -10382430.319 5
  15690497.790   -31325289.218 7 -24302983.319 8
  15664977.103   -45638845.694 7 -35466921.415 8
  18635275.189     4766588.667 4   3770713.675 2
  18891517.806   -22366289.845 5 -17322573.126 4
  17710975.939   -12071969.371 5  -9208758.443 5
 94  1 20 22 38 59.9810000  0  8 18 27 28 19 29 14 22 31
  14752022.603   -40288063.505 7 -31203398.858 8
  17430269.189   -17230539.052 6 -13327155.648 6
  18000297.064   -13504174.215 5 -10435926.170 6
  15676351.665   -31399629.771 7 -24360911.006 9
  15665266.751   -45637312.224 7 -35465726.513 8
  18648313.071     4835094.566 4   3824094.782 4
  18902990.735   -22305993.771 5 -17275589.259 5
  17688760.462   -12188706.499 5  -9299722.350 5
 94  1 20 22 39 29.9810000  0  8 18 27 28 19 29 14 22 31
  14741173.157   -40345089.698 7 -31247834.856 8
  17409054.079   -17342021.469 6 -13414025.028 6
  17987315.392   -13572383.028 5 -10489075.865 6
  15662244.728   -31473754.221 7 -24418670.309 9
  15665630.204   -45635401.050 7 -35464237.315 8
  18661347.220     4903584.795 4   3877463.709 1
  18914488.970   -22245582.004 5 -17228515.251 5
  17666591.634   -12305192.078 5  -9390490.276 5
 94  1 20 22 39 59.9810000  0  8 18 27 28 19 29 14 22 31
  14730404.275   -40401690.629 7 -31291939.489 8
  17387867.306   -17453373.405 6 -13500792.731 6
  17974419.493   -13640127.023 5 -10541863.367 6
  15648181.853   -31547649.500 7 -24476251.046 9
  15666065.165   -45633109.483 7 -35462451.706 8
  18674371.837     4972029.178 4   3930796.880 2
  18926003.423   -22185068.281 5 -17181361.802 4
  17644481.407   -12421390.151 5  -9481034.156 5
 94  1 20 22 40 29.9810000  0  8 18 27 28 19 29 14 22 31
  14719710.235   -40457875.313 7 -31335719.760 8
  17366702.462   -17564589.123 6 -13587454.299 6
  17961625.915   -13707379.574 5 -10594267.904 6
  15634163.431   -31621329.019 7 -24533663.642 9
  15666575.759   -45630426.310 7 -35460360.937 8
  18687388.267     5040438.073 4   3984102.415 3
  18937539.228   -22124462.142 5 -17134136.336 5
  17622422.493   -12537308.658 5  -9571360.193 5
 94  1 20 22 40 59.9810000  0  8 18 27 28 19 29 14 22 31
  14709094.571   -40513661.937 7 -31379189.860 8
  17345560.939   -17675686.525 6 -13674023.673 6
  17948920.032   -13774143.797 5 -10646291.934 6
  15620176.931   -31694822.993 7 -24590931.662 9
  15667157.587   -45627370.211 7 -35457979.584 8
  18700397.884     5108815.753 3   4037383.593 3
  18949081.056   -22063799.379 5 -17086866.739 5
  17600415.157   -12652982.140 5  -9661495.308 5
 94  1 20 22 41 29.9810000  0  8 18 27 28 19 29 14 22 31
  14698557.462   -40569025.615 7 -31422330.391 8
  17324444.118   -17786670.355 6 -13760504.546 6
  17936313.689   -13840403.472 5 -10697922.818 6
  15606229.556   -31768133.257 7 -24648056.534 9
  15667811.142   -45623937.884 7 -35455305.066 8
  18713411.782     5177183.183 3   4090656.818 3
  18960633.298   -22003087.852 5 -17039559.152 4
  17578446.728   -12768392.595 5  -9751425.448 5
 94  1 20 22 41 59.9810000  0  8 18 27 28 19 29 14 22 31
  14688104.821   -40623964.914 7 -31465140.231 8
  17303340.001   -17897557.259 6 -13846909.877 6
  17923796.548   -13906171.076 5 -10749170.274 6
  15592310.009   -31841272.982 7 -24705048.514 9
  15668537.759   -45620129.059 7 -35452337.169 8
  18726418.790     5245552.939 3   4143931.834 1
  18972196.939   -21942319.665 5 -16992207.397 4
  17556542.345   -12883532.069 5  -9841144.455 5
 94  1 20 22 42 29.9810000  0  8 18 27 28 19 29 14 22 31
  14677730.673   -40678480.349 7 -31507619.792 8
  17282256.954   -18008353.595 6 -13933244.643 6
  17911372.923   -13971460.872 5 -10800045.415 6
  15578424.743   -31914235.402 7 -24761902.333 9
  15669332.423   -45615947.216 7 -35449078.605 8
  18739434.837     5313950.497 3   4197228.510 1
  18983778.454   -21881471.510 5 -16944793.329 4
  17534680.353   -12998409.655 5  -9930659.390 5
 94  1 20 22 42 59.9810000  0  8 18 27 28 19 29 14 22 31
  14667437.314   -40732566.895 7 -31549765.145 8
  17261192.103   -18119053.277 6 -14019504.085 6
  17899036.376   -14036286.759 5 -10850559.046 6
  15564577.657   -31987007.272 7 -24818607.660 9
  15670197.400   -45611400.335 7 -35445535.589 8
  18752459.775     5382370.360 3   4250542.604 2
  18995370.103   -21820547.605 5 -16897320.212 4
  17512872.618   -13113001.599 5 -10019951.743 5
 94  1 20 22 43 29.9810000  0  8 18 27 28 19 29 14 22 31
  14657226.423   -40786221.819 7 -31591574.184 8
  17240142.095   -18229660.317 6 -14105691.346 6
  17886791.478   -14100646.758 5 -10900709.690 6
  15550767.025   -32059573.840 7 -24875153.024 9
  15671134.454   -45606484.465 7 -35441705.066 9
  18765477.892     5450799.066 3   4303863.551 1
  19006984.314   -21759524.747 5 -16849770.009 4
  17491127.228   -13227285.081 5 -10109003.759 5
 94  1 20 22 43 59.9810000  0  8 18 27 28 19 29 14 22 31
  14647101.134   -40839444.754 7 -31633046.598 8
  17219117.853   -18340152.324 6 -14191788.975 6
  17874632.079   -14164532.846 5 -10950491.043 6
  15536999.696   -32131917.487 7 -24931524.678 9
  15672142.642   -45601180.075 7 -35437571.799 8
  18778503.150     5519235.968 3   4357190.898 1
  19018617.439   -21698380.438 5 -16802125.169 4
  17469437.970   -13341250.025 5 -10197807.571 5
 94  1 20 22 44 29.9810000  0  8 18 27 28 19 29 14 22 31
  14637055.228   -40892226.402 7 -31674175.158 8
  17198116.618   -18450513.870 6 -14277784.932 6
  17862567.525   -14227928.187 5 -10999889.996 6
  15523277.439   -32204034.271 7 -24987719.564 9
  15673229.306   -45595478.043 7 -35433128.677 9
  18791521.392     5587672.444 3   4410517.940 1
  19030271.696   -21637127.971 5 -16754396.033 4
  17447809.782   -13454898.870 5 -10286365.068 5
 94  1 20 22 44 59.9810000  0  8 18 27 28 19 29 14 22 31
  14627095.939   -40944566.026 7 -31714959.278 8
  17177140.689   -18560746.723 6 -14363680.615 6
  17850599.509   -14290819.130 5 -11048895.921 6
  15509595.970   -32275939.089 7 -25043749.276 9
  15674389.376   -45589373.371 7 -35428371.817 8
  18804538.939     5656088.061 3   4463828.673 2
  19041944.696   -21575790.181 5 -16706600.416 4
  17426246.173   -13568229.191 5 -10374674.358 5
 94  1 20 22 45 29.9810000  0  8 18 27 28 19 29 14 22 31
  14617218.009   -40996477.592 7 -31755409.842 8
  17156186.126   -18670862.778 6 -14449485.292 6
  17838724.243   -14353215.779 5 -11097516.685 6
  15495944.321   -32347668.817 7 -25099642.556 9
  15675623.228   -45582881.086 7 -35423312.911 8
  18817550.939     5724458.756 3   4517104.397 1
  19053630.759   -21514386.981 5 -16658753.834 4
  17404734.907   -13681259.100 5 -10462749.576 5
 94  1 20 22 45 59.9810000  0  8 18 27 28 19 29 14 22 31
  14607422.673   -41047954.317 7 -31795521.575 8
  17135254.446   -18780842.636 6 -14535183.859 6
  17826947.032   -14415110.417 5 -11145746.262 5
  15482329.946   -32419221.653 7 -25155398.015 9
  15676936.860   -45575986.778 7 -35417940.748 8
  18830554.196     5792780.856 3   4570342.270 2
  19065324.298   -21452929.236 5 -16610864.750 3
  17383281.564   -13793992.755 5 -10550593.961 5
 94  1 20 22 46 29.9810000  0  8 18 27 28 19 29 14 22 31
  14597706.939   -41098994.990 7 -31835293.524 8
  17114355.423   -18890688.357 6 -14620777.894 6
  17815269.759   -14476488.991 5 -11193573.720 6
  15468746.509   -32490602.892 7 -25211019.753 9
  15678323.853   -45568695.909 7 -35412259.581 8
  18843547.923     5861062.701 3   4623548.766 1
  19077029.564   -21391424.543 4 -16562939.085 4
  17361889.884   -13906430.286 5 -10638207.585 5
 94  1 20 22 46 59.9810000  0  8 18 27 28 19 29 14 22 31
  14588078.868   -41149612.032 7 -31874735.368 8
  17093475.696   -19000404.291 6 -14706270.764 6
  17803684.095   -14537357.133 5 -11241003.427 6
  15455192.321   -32561815.891 7 -25266510.377 9
  15679783.915   -45561024.648 7 -35406281.986 8
  18856531.860     5929315.042 3   4676732.307 2
  19088739.564   -21329875.934 4 -16514979.202 4
  17340549.540   -14018576.426 6 -10725594.149 5
 94  1 20 22 47 29.9810000  0  8 18 27 28 19 29 14 22 31
  14578523.470   -41199815.129 7 -31913854.658 8
  17072619.650   -19110004.915 6 -14791673.830 6
  17792197.853   -14597736.690 5 -11288052.431 6
  15441675.290   -32632865.521 7 -25321873.727 9
  15681314.001   -45552984.472 7 -35400016.942 8
  18869517.493     5997529.309 3   4729886.156 1
  19100466.353   -21268284.300 4 -16466985.791 4
  17319258.290   -14130450.807 6 -10812768.967 5
 94  1 20 22 47 59.9810000  0  8 18 27 28 19 29 14 22 31
  14569051.642   -41249602.012 7 -31952649.636 8
  17051781.314   -19219511.787 6 -14877003.829 6
  17780794.868   -14657632.669 5 -11334724.620 6
  15428183.814   -32703744.898 7 -25377104.403 9
  15682911.657   -45544590.437 7 -35393476.163 8
  18882493.751     6065709.342 3   4783013.315 1
  19112189.610   -21206652.410 4 -16418961.014 4
  17298017.548   -14242067.314 6 -10899742.837 5
 94  1 20 22 48 29.9810000  0  8 18 27 28 19 29 14 22 31
  14559658.478   -41298965.591 7 -31991114.754 8
  17030956.923   -19328936.602 6 -14962269.881 6
  17769493.610   -14717050.344 5 -11381024.111 6
  15414726.462   -32774458.055 7 -25432205.556 9
  15684573.064   -45535859.987 7 -35386673.242 8
  18895461.931     6133877.670 3   4836131.364 1
  19123930.001   -21144963.102 4 -16370891.490 4
  17276828.556   -14353406.246 6 -10986500.419 6
 94  1 20 22 48 59.9810000  0  8 18 27 28 19 29 14 22 31
  14550348.884   -41347886.019 7 -32029234.570 8
  17010150.071   -19438281.732 6 -15047473.837 6
  17758268.181   -14776004.185 5 -11426962.156 6
  15401304.626   -32844996.555 7 -25487170.619 9
  15686297.962   -45526794.005 7 -35379608.871 8
  18908431.532     6202023.388 3   4889231.770 2
  19135680.501   -21083208.818 4 -16322771.340 4
  17255700.025   -14464444.608 6 -11073023.801 5
 94  1 20 22 49 29.9810000  0  8 18 27 28 19 29 14 22 31
  14541126.368   -41396347.609 7 -32066996.854 8
  16989358.657   -19547537.579 6 -15132608.235 6
  17747142.462   -14834483.021 5 -11472530.070 5
  15387919.251   -32915345.870 7 -25541988.263 9
  15688088.243   -45517378.984 7 -35372272.520 8
  18921392.767     6270137.426 3   4942307.509 2
  19147447.782   -21021375.789 4 -16274589.823 5
  17234633.915   -14575150.499 6 -11159288.099 5
 94  1 20 22 49 59.9810000  0  8 18 27 28 19 29 14 22 31
  14531986.681   -41444365.487 7 -32104413.388 8
  16968587.134   -19656696.943 6 -15217667.443 6
  17736107.970   -14892481.394 5 -11517723.606 6
  15374568.025   -32985514.514 7 -25596665.126 9
  15689946.134   -45507619.241 7 -35364667.550 8
  18934346.751     6338216.288 3   4995355.822 2
  19159226.243   -20959482.066 4 -16226361.009 3
  17213634.275   -14685504.312 6 -11245278.050 5
 94  1 20 22 50 29.9810000  0  8 18 27 28 19 29 14 22 31
  14522938.610   -41491922.936 7 -32141471.139 8
  16947842.392   -19765708.899 6 -15302611.791 6
  17725169.368   -14949966.286 5 -11562517.021 6
  15361255.525   -33055460.113 7 -25651168.185 9
  15691881.314   -45497462.294 7 -35356753.073 8
  18947300.189     6406278.919 3   5048391.471 1
  19171018.540   -20897511.725 4 -16178072.500 4
  17192709.001   -14795460.920 6 -11330958.505 5
 94  1 20 22 50 59.9810000  0  8 18 27 28 19 29 14 22 31
  14513971.485   -41539041.365 7 -32178186.806 8
  16927123.095   -19874580.309 6 -15387446.637 6
  17714319.814   -15006948.148 5 -11606918.476 6
  15347988.579   -33125186.389 7 -25705500.349 9
  15693888.525   -45486894.622 7 -35348518.564 8
  18960240.860     6474282.452 3   5101381.071 1
  19182814.767   -20835515.163 4 -16129763.546 4
  17171860.212   -14905039.369 6 -11416344.293 6
 94  1 20 22 51 29.9810000  0  8 18 27 28 19 29 14 22 31
  14505064.571   -41585837.547 7 -32214651.352 8
  16906414.634   -19983406.824 6 -15472246.485 6
  17703564.946   -15063507.190 5 -11650990.450 6
  15334742.720   -33194794.795 7 -25759740.655 9
  15695960.923   -45476007.566 7 -35340035.169 8
  18973160.431     6542130.690 3   5154249.673 1
  19194596.189   -20773607.129 4 -16081523.551 3
  17151055.743   -15014354.349 6 -11501524.753 5
 94  1 20 22 51 59.9810000  0  8 18 27 28 19 29 14 22 31
  14496223.485   -41632292.388 7 -32250849.942 8
  16885716.673   -20092183.524 6
  17692883.337   -15119630.713 5 -11694723.072 6
  15321521.915   -33264273.415 7 -25813879.839 9
  15698095.431   -45464793.221 7 -35331296.744 8
  18986039.485     6609835.732 3   5207006.683 2
  19206362.806   -20711778.370 4 -16033345.377 2
  17130302.439   -15123414.180 6
 94  1 20 22 52 29.9810000  0  7 18 27 28 19 29 14 31
  14487483.173   -41678233.700 7 -32286648.337 8
  16865052.212   -20200781.764 6
  17682308.618   -15175175.309 5 -11738004.545 6
  15308355.032   -33333464.184 7 -25867794.688 9
  15700319.751   -45453108.305 7 -35322191.625 8
  18998919.751     6677532.278 3   5259757.086 3
  17109625.056   -15232075.280 6
 94  1 20 22 52 59.9810000  0  7 18 27 28 19 29 14 31
  14478857.103   -41723576.596 7 -32321980.476 8
  16844432.931   -20309139.906 6 -15726064.390 6
  17671864.157   -15230068.611 5 -11780778.540 5
  15295250.407   -33402312.495 7 -25921442.719 9
  15702640.618   -45440908.551 7 -35312685.348 8
  19011813.712     6745299.988 3   5312562.898 1
  17089036.446   -15340262.080 6 -11755478.691 6
 94  1 20 22 53 29.9810000  0  7 18 27 28 19 29 14 31
  14470335.345   -41768345.403 7 -32356865.258 8
  16823851.243   -20417280.992 6 -15810330.139 6
  17661542.689   -15284325.010 5 -11823056.259 5
  15282209.681   -33470850.516 7 -25974848.961 9
  15705051.681   -45428242.455 7 -35302815.692 8
  19024724.267     6813137.164 3   5365422.838 2
  17068536.610   -15447993.952 6 -11839425.568 5
 94  1 20 22 53 59.9810000  0  6 18 27 28 19 29 31
  14461916.712   -41812598.109 7 -32391347.902 8
  16803302.282   -20525268.272 6 -15894476.062 6
  17651326.001   -15338022.116 5 -11864898.178 6
  15269210.407   -33539151.872 7 -26028070.798 9
  15707536.337   -45415187.995 7 -35292643.419 8
  17048111.446   -15555328.215 6 -11923062.624 5
 94  1 20 22 54 29.9810000  0  6 18 27 28 19 29 31
  14453581.978   -41856386.232 7 -32425468.506 8
  16782777.806   -20633132.421 6 -15978526.010 6
  17641208.454   -15391200.739 5 -11906336.039 6
  15256251.329   -33607261.660 7 -26081143.341 9
  15710089.181   -45401772.559 7 -35282189.841 8
  17027758.071   -15662294.925 6 -12006413.248 6
 94  1 20 22 54 59.9810000  0  6 18 27 28 19 29 31
  14445333.243   -41899730.350 7 -32459243.155 8
  16762279.509   -20740856.643 6 -16062466.924 6
  17631189.532   -15443850.775 5 -11947362.041 6
  15243323.392   -33675195.765 7 -26134079.000 9
  15712714.868   -45387977.570 7 -35271440.527 8
  17007472.025   -15768900.567 6 -12089482.540 6
 94  1 20 22 55 29.9800000  0  6 18 27 28 19 29 31
  14437171.785   -41942630.288 7 -32492671.678 8
  16741804.863   -20848452.603 6 -16146307.901 6
  17621270.348   -15495979.969 5 -11987982.190 6
  15230427.129   -33742959.749 7 -26186882.099 9
  15715412.910   -45373794.057 7 -35260388.461 8
  16987252.051   -15875159.170 6 -12172281.416 6
 94  1 20 22 55 59.9800000  0  6 18 27 28 19 29 31
  14429095.160   -41985066.528 7 -32525738.882 8
  16721350.512   -20955932.633 6 -16230058.547 6
  17611442.340   -15547602.394 5 -12028207.445 6
  15217565.762   -33810554.546 7 -26239553.361 9
  15718190.754   -45359195.044 7 -35249012.632 8
  16967093.692   -15981082.223 6 -12254818.825 6
 94  1 20 22 56 29.9800000  0  6 18 27 28 19 29 31
  14421106.715   -42027042.403 7 -32558447.353 8
  16700918.418   -21063306.585 6 -16313726.541 6
  17601717.567   -15598716.554 5 -12068036.639 5
  15204734.465   -33877982.920 7 -26292094.949 9
  15721048.215   -45344182.609 7 -35237314.663 8
  16947002.457   -16086665.117 6 -12337091.176 6
 94  1 20 22 56 59.9800000  0  6 18 27 28 19 29 31
  14413206.348   -42068554.023 7 -32590794.078 8
  16680503.496   -21170585.546 6 -16397320.520 6
  17592084.879   -15649330.502 5 -12107476.064 6
  15191936.090   -33945254.619 7 -26344514.445 9
  15723976.059   -45328792.776 6 -35225322.610 8
  16926976.238   -16191903.918 6 -12419095.397 6
 94  1 20 22 57 29.9800000  0  7 18 27 28 19 29  2 31
  14405398.973   -42109585.337 7 -32622766.527 8
  16660109.106   -21277765.866 6 -16480837.619 6
  17582545.871   -15699444.898 5 -12146526.234 6
  15179169.504   -34012340.817 7 -26396789.394 9
  15726972.887   -45313043.730 6 -35213050.657 8
  19039980.817     -141396.177 3
  16907018.793   -16296783.098 6 -12500819.401 6
 94  1 20 22 57 59.9800000  0  7 18 27 28 19 29  2 31
  14397675.590   -42150169.675 7 -32654390.690 8
  16639729.395   -21384854.175 6 -16564283.032 6
  17573104.254   -15749060.152 5 -12185187.456 5
  15166437.488   -34079251.391 7 -26448927.508 9
  15730032.512   -45296961.229 6 -35200518.867 8
  19013095.801     -282683.223 3        -0.32111
  16887129.082   -16401306.997 6 -12582266.548 6
 94  1 20 22 58 29.9800000  0  7 18 27 28 19 29  2 31
  14390038.793   -42190313.723 7 -32685671.769 8
  16619372.098   -21491826.776 6 -16647638.290 6
  17563759.856   -15798151.494 5 -12223440.440 6
  15153739.496   -34145966.102 7 -26500912.994 9
  15733155.793   -45280550.812 6 -35187731.558 8
  18986233.074     -423837.211 3   -109990.389 2
  16867312.887   -16505442.826 6 -12663411.315 6
 94  1 20 22 58 59.9800000  0  7 18 27 28 19 29  2 31
  14382479.613   -42230037.105 7 -32716625.060 8
  16599037.660   -21598686.850 6 -16730905.867 6
  17554516.926   -15846742.249 5 -12261303.366 5
  15141078.848   -34212495.117 7 -26552753.783 9
  15736339.824   -45263822.844 6 -35174696.814 8
  18959397.262     -564870.125 3   -219886.127 2
  16847564.973   -16609203.083 6 -12744263.426 6
 94  1 20 22 59 29.9800000  0  7 18 27 28 19 29  2 31
  14375002.129   -42269328.182 7 -32747241.487 8
  16578725.410   -21705427.635 6 -16814080.464 6
  17545371.238   -15894815.296 5 -12298762.874 6
  15128459.473   -34278821.810 7 -26604436.916 9
  15739591.660   -45246736.739 6 -35161382.999 8
  18932584.434     -705765.651 3   -329674.779 1
  16827893.887   -16712578.062 6 -12824815.326 6
 94  1 20 22 59 59.9800000  0  7 18 27 28 19 29  2 31
  14367607.488   -42308184.510 7 -32777519.145 8
  16558436.231   -21812051.985 6 -16897164.349 6
  17536317.129   -15942374.716 5 -12335822.166 6
  15115871.973   -34344972.768 7 -26655983.114 9
  15742913.809   -45229278.998 6 -35147779.591 8
  18905798.473     -846531.178 3   -439362.163 2
  16808298.692   -16815555.291 6 -12905057.277 6
 94  1 20 23  0 29.9800000  0  7 18 27 28 19 29  2 31
  14360299.988   -42346581.002 7 -32807438.494 8
  16538169.504   -21918552.599 6 -16980151.811 7
  17527365.785   -15989432.134 5 -12372490.282 6
  15103318.496   -34410939.206 7 -26707385.537 9
  15746306.317   -45211443.327 6 -35133881.684 8
  18879032.582     -987190.084 3   -548966.414 2
  16788780.879   -16918124.900 6 -12984981.602 6
 94  1 20 23  0 59.9800000  0  7 18 27 28 19 29  2 31
  14353083.199   -42384511.768 7 -32836994.937 8
  16517924.152   -22024942.211 6 -17063052.775 7
  17518504.949   -16035990.956 5 -12408769.894 6
  15090799.457   -34476725.431 7 -26758647.524 9
  15749774.918   -45193224.611 6 -35119685.313 8
  18852281.262    -1127745.091 3   -658489.715 1
  16769336.067   -17020302.320 6 -13064600.331 6
 94  1 20 23  1 29.9800000  0  7 18 27 28 19 29  2 31
  14345953.168   -42421974.975 7 -32866187.053 7
  16497698.879   -22131234.661 6 -17145878.026 7
  17509739.207   -16082040.045 5 -12444652.286 6
  15078315.637   -34542330.967 7 -26809768.725 9
  15753312.277   -45174630.096 6 -35105196.108 8
  18825561.043    -1268188.009 4   -767925.598 1
  16749967.957   -17122098.216 6 -13143921.777 6
 94  1 20 23  1 59.9800000  0  7 18 27 28 19 29  2 31
  14338916.731   -42458963.571 7 -32895009.347 8
  16477492.692   -22237416.091 6 -17228616.778 6
  17501076.199   -16127567.669 5 -12480128.351 6
  15065863.934   -34607755.338 7 -26860748.753 9
  15756920.277   -45155672.924 6 -35090424.309 8
  18798855.387    -1408517.427 3   -877273.014 1
  16730666.246   -17223502.478 6 -13222938.042 6
 94  1 20 23  2 29.9800000  0  7 18 27 28 19 29  2 31
  14331966.192   -42495484.059 7 -32923466.867 8
  16457307.848   -22343481.293 6 -17311264.958 7
  17492514.067   -16172555.339 5 -12515183.677 6
  15053451.223   -34672982.720 7 -26911575.282 9
  15760595.199   -45136360.130 6 -35075375.403 8
  18772173.582    -1548726.766 3   -986526.881 2
  16711444.027   -17324522.856 6 -13301655.166 6
 94  1 20 23  2 59.9800000  0  7 18 27 28 19 29  2 31
  14325099.809   -42531567.068 7 -32951583.505 8
  16437143.152   -22449453.713 6 -17393840.843 6
  17484059.074   -16217005.052 5 -12549819.814 6
  15041072.949   -34738039.974 7 -26962269.240 9
  15764335.020   -45116708.262 6 -35060062.280 8
  18745511.785    -1688817.890 3  -1095688.591 1
  16692290.856   -17425171.658 6 -13380082.765 6
 94  1 20 23  3 29.9800000  0  7 18 27 28 19 29  2 31
  14318318.395   -42567196.290 7 -32979346.541 8
  16416996.012   -22555320.491 6 -17476334.407 7
  17475704.488   -16260906.038 5 -12584028.357 6
  15028724.426   -34802928.355 7 -27012831.603 9
  15768139.801   -45096712.235 6 -35044480.982 7
  18718879.231    -1828782.081 3  -1204751.381 2
  16673217.793   -17525420.620 6 -13458198.792 6
 94  1 20 23  3 59.9800000  0  7 18 27 28 19 29  2 31
  14311628.559   -42602359.309 7 -33006746.304 8
  16396874.512   -22661060.382 6 -17558729.100 6
  17467451.590   -16304250.324 5 -12617803.126 6
  15016411.043   -34867638.821 7 -27063255.338 9
  15772010.621   -45076370.491 6 -35028630.292 7
  18692271.465    -1968630.078 3  -1313723.671 1
  16654221.442   -17625246.478 6 -13535985.128 6
 94  1 20 23  4 29.9800000  0  7 18 27 28 19 29  2 31
  14305026.957   -42637060.885 7 -33033786.506 8
  16376775.621   -22766681.013 6 -17641030.865 7
  17459310.324   -16347057.597 5 -12651159.430 6
  15004128.027   -34932167.398 7 -27113537.337 9
  15775948.965   -45055674.270 6 -35012503.390 7
  18665679.340    -2108359.323 3  -1422603.403 1
  16635305.324   -17724657.937 6 -13613448.566 6
 94  1 20 23  4 59.9800000  0  7 18 27 28 19 29  2 31
  14298511.590   -42671291.932 7 -33060460.069 8
  16356698.613   -22872186.670 6 -17723243.033 7
  17451267.707   -16389341.519 5 -12684107.940 5
  14991887.090   -34996509.947 7 -27163674.374 9
  15779957.988   -45034612.380 6 -34996091.550 7
  18639113.309    -2247955.932 3  -1531379.814 2
  16616466.113   -17823647.327 6 -13690583.117 6
 94  1 20 23  5 29.9800000  0  7 18 27 28 19 29  2 31
  14292086.043   -42705047.221 7 -33086762.885 8
  16336646.231   -22977570.031 6 -17805359.926 7
  17443316.824   -16431109.574 5 -12716654.457 6
  14979679.121   -35060664.984 7 -27213665.306 9
  15784033.731   -45013186.401 6 -34979396.005 7
  18612568.309    -2387433.874 3  -1640063.725 3
  16597707.660   -17922227.116 6 -13767398.494 6
 94  1 20 23  5 59.9800000  0  7 18 27 28 19 29  2 31
  14285752.574   -42738336.233 7 -33112702.378 8
  16316614.684   -23082828.574 6 -17887379.550 7
  17435463.262   -16472363.572 5 -12748800.435 5
  14967508.606   -35124623.382 7 -27263503.015 9
  15788180.637   -44991389.280 6 -34962411.261 7
  18586048.543    -2526792.550 3  -1748654.761 2
  16579025.996   -18020391.750 6 -13843890.383 6
 94  1 20 23  6 29.9800000  0  7 18 27 28 19 29  2 31
  14279503.254   -42771175.165 7 -33138291.158 8
  16296600.559   -23187992.054 6 -17969325.093 7
  17427710.129   -16513110.825 5 -12780551.534 5
  14955374.317   -35188395.851 7 -27313195.845 9
  15792402.567   -44969213.392 6 -34945131.373 7
  18559557.488    -2666014.971 3  -1857139.637 3
  16560425.848   -18118148.757 6 -13920064.641 6
 94  1 20 23  6 59.9800000  0  7 18 27 28 19 29  2 31
  14273338.770   -42803574.623 7 -33163537.499 8
  16276606.606   -23293068.825 6 -18051203.087 7
  17420050.863   -16553340.038 5 -12811898.969 6
  14943269.793   -35251999.013 7 -27362756.745 9
  15796690.527   -44946678.594 6 -34927571.816 7
  18533090.371    -2805110.489 3  -1965525.630 3
  16541901.395   -18215494.796 6 -13995918.664 6
 94  1 20 23  7 29.9800000  0  7 18 27 28 19 29  2 31
  14267259.598   -42835526.133 7 -33188434.780 8
  16256630.809   -23398047.610 6 -18133004.713 7
  17412498.449   -16593045.478 5 -12842838.274 6
  14931197.121   -35315433.356 7 -27412186.096 9
  15801045.176   -44923795.053 6 -34909740.509 7
  18506644.934    -2944085.319 3  -2073817.616 2
  16523454.723   -18312423.131 6 -14071447.205 6
 94  1 20 23  7 59.9800000  0  7 18 27 28 19 29  2 31
  14261266.520   -42867018.230 7 -33212974.081 8
  16236670.965   -23502935.257 6 -18214735.340 7
  17405040.629   -16632235.222 6 -12873375.734 6
  14919159.988   -35378694.677 7 -27461480.631 9
  15805464.621   -44900567.504 6 -34891641.157 7
  18480228.496    -3082908.997 3  -2181991.811 3
  16505088.770   -18408926.848 6 -14146644.878 6
 94  1 20 23  8 29.9800000  0  7 18 27 28 19 29  2 31
  14255363.551   -42898032.662 7 -33237141.169 8
  16216730.567   -23607726.119 6 -18296390.540 7
  17397681.410   -16670906.585 6 -12903509.258 6
  14907154.340   -35441787.423 7 -27510643.807 9
  15809950.098   -44877001.099 6 -34873277.755 7
  18453838.231    -3221575.733 4  -2290043.739 2
  16486803.785   -18505014.796 6 -14221518.570 6
 94  1 20 23  8 59.9800000  0  7 18 27 28 19 29  2 31
  14249555.848   -42928552.731 7 -33260923.052 8
  16196812.113   -23712398.330 6 -18377953.282 7
  17390420.449   -16709070.425 6 -12933247.320 6
  14895179.332   -35504715.540 7 -27559678.699 9
  15814496.113   -44853111.795 6 -34854662.742 7
  18427479.887    -3360098.850 4  -2397983.784 2
  16468600.457   -18600693.490 6 -14296073.351 6
 94  1 20 23  9 29.9800000  0  7 18 27 28 19 29  2 31
  14243847.629   -42958560.696 7 -33284305.896 8
  16176917.238   -23816944.294 6 -18459417.644 7
  17383254.113   -16746719.557 5 -12962584.302 5
  14883235.606   -35567462.731 7 -27608572.615 9
  15819107.035   -44828881.497 6 -34835782.024 7
  18401146.340    -3498455.863 4  -2505794.392 3
  16450473.543   -18695950.230 6 -14370299.349 6
 94  1 20 23  9 59.9800000  0  7 18 27 28 19 29  2 31
  14238228.551   -42988075.164 7 -33307304.187 8
  16157046.668   -23921371.456 6 -18540789.455 7
  17376193.387   -16783832.157 5 -12991503.213 5
  14871333.457   -35630030.165 7 -27657326.456 9
  15823785.418   -44804295.593 6 -34816624.216 7
  18374854.949    -3636639.963 4  -2613470.257 4
  16432423.488   -18790782.695 6 -14444194.743 6
 94  1 20 23 10 29.9800000  0  7 18 27 28 19 29  2 31
  14232701.871   -43017127.113 7 -33329942.080 8
  16137192.762   -24025696.863 6 -18622081.954 7
  17369236.746   -16820403.096 5 -13020000.043 6
  14859453.731   -35692439.087 7 -27705956.781 9
  15828530.957   -44779364.134 6 -34797197.141 7
  18348585.652    -3774684.832 4  -2721037.618 5
  16414458.817   -18885201.616 6 -14517767.902 6
 94  1 20 23 10 59.9800000  0  7 18 27 28 19 29  2 31
  14227259.246   -43045725.489 7 -33352226.534 8
  16117363.512   -24129900.864 6 -18703279.852 7
  17362386.020   -16856418.797 5 -13048064.222 5
  14847613.363   -35754669.303 7 -27754447.862 9
  15833341.942   -44754075.237 6 -34777491.533 7
  18322346.098    -3912573.275 4  -2828483.091 3
  16396572.527   -18979187.205 6 -14591003.402 6
 94  1 20 23 11 29.9800000  0  7 18 27 28 19 29  2 31
  14221900.035   -43073892.449 7 -33374174.817 8
  16097557.356   -24233984.978 6 -18784384.340 7
  17355635.426   -16891867.916 5 -13075686.905 5
  14835804.863   -35816717.402 7 -27802797.028 9
  15838224.926   -44728409.847 6 -34757492.564 7
  18296135.817    -4050297.313 4  -2935800.453 4
  16378772.770   -19072724.961 6 -14663889.934 6
 94  1 20 23 11 59.9800000  0  7 18 27 28 19 29  2 31
  14216624.152   -43101617.118 7 -33395778.464 8
  16077776.535   -24337936.567 6 -18865385.554 7
  17348995.465   -16926747.824 5 -13102866.039 6
  14824031.746   -35878582.413 7 -27851003.529 9
  15843181.676   -44702370.333 6 -34737202.072 7
  18269962.856    -4187861.182 4  -3042992.990 5
  16361061.106   -19165797.340 6 -14736413.847 6
 94  1 20 23 12 29.9800000  0  7 18 27 28 19 29  2 31
  14211434.473   -43128875.776 7 -33417018.983 8
  16058019.520   -24441746.058 6 -18946276.043 7
  17342465.277   -16961086.165 5 -13129623.184 5
  14812297.840   -35940263.889 7 -27899067.015 9
  15848207.324   -44675970.372 6 -34716630.710 7
  18243814.613    -4325265.680 4  -3150061.318 4
  16343440.777   -19258394.106 6 -14808567.136 6
 94  1 20 23 12 59.9800000  0  7 18 27 28 19 29  2 31
  14206341.520   -43155657.414 7 -33437887.795 8
  16038293.652   -24545412.047 6 -19027054.713 7
  17336030.668   -16994894.325 5 -13155967.208 5
  14800593.887   -36001756.538 7 -27946983.361 9
  15853296.840   -44649203.776 6 -34695773.657 7
  18217698.012    -4462505.223 4  -3257001.123 4
  16325913.192   -19350508.103 6 -14880344.243 6
 94  1 20 23 13 29.9790000  0  7 18 27 28 19 29  2 31
  14201337.444   -43181939.958 7 -33458367.709 8
  16018590.046   -24648953.115 6 -19107736.033 7
  17329701.179   -17028162.044 5 -13181890.089 5
  14788927.187   -36063065.320 7 -27994756.432 9
  15858459.663   -44622080.158 6 -34674638.400 7
  18191612.515    -4599579.815 4  -3363812.368 4
  16308478.968   -19442129.430 6 -14951737.448 6
 94  1 20 23 13 59.9790000  0  7 18 27 28 19 29  2 31
  14196430.984   -43207721.410 7 -33478457.161 8
  15998905.171   -24752399.365 6 -19188343.477 7
  17323467.116   -17060917.872 5 -13207414.113 5
  14777296.749   -36124200.365 7 -28042394.125 9
  15863678.530   -44594642.739 6 -34653258.629 7
  18165555.866    -4736516.140 4  -3470515.874 3
  16291130.929   -19533292.734 6 -15022773.757 6
 94  1 20 23 14 29.9790000  0  7 18 27 28 19 29  2 31
  14191623.952   -43232987.417 7 -33498144.974 8
  15979242.460   -24855735.221 6 -19268864.906 7
  17317335.030   -17093147.339 5 -13232527.966 5
  14765696.866   -36185134.574 7 -28089875.322 9
  15868965.468   -44566874.335 6 -34631620.948 7
  18139525.405    -4873295.602 4  -3577097.156 4
  16273869.030   -19623995.581 6 -15093451.265 6
 94  1 20 23 14 59.9790000  0  7 18 27 28 19 29  2 31
  14186911.030   -43257762.692 7 -33517450.393 8
  15959597.374   -24958974.279 6 -19349310.897 7
  17311300.601   -17124843.951 5 -13257226.617 5
  14754141.062   -36245868.563 7 -28137200.511 9
  15874309.046   -44538786.072 6 -34609734.029 7
  18113525.312    -5009932.884 4  -3683567.625 4
  16256695.390   -19714248.136 6 -15163777.900 6
 94  1 20 23 15 29.9790000  0  7 18 27 28 19 29  2 31
  14182288.132   -43282042.003 7 -33536369.349 8
  15939970.218   -25062103.589 6 -19429671.398 7
  17305372.116   -17156006.655 5 -13281509.233 6
  14742624.452   -36306390.828 7 -28184360.719 9
  15879713.171   -44510389.174 6 -34587606.628 7
  18087551.124    -5146430.014 4  -3789928.919 3
  16239606.999   -19804045.931 6 -15233750.185 6
 94  1 20 23 15 59.9790000  0  7 18 27 28 19 29  2 31
  14177763.726   -43305826.913 7 -33554903.052 8
  15920371.366   -25165099.796 6 -19509928.153 7
  17299539.351   -17186653.359 5 -13305389.763 6
  14731149.007   -36366696.233 7 -28231351.934 9
  15885178.905   -44481670.499 6 -34565228.473 7
  18061601.226    -5282799.980 4  -3896191.101 3
  16222610.280   -19893386.130 6 -15303365.891 6
 94  1 20 23 16 29.9790000  0  7 18 27 28 19 29  2 31
  14173326.616   -43329140.397 7 -33573069.408 8
  15900797.624   -25267961.989 6 -19590080.484 7
  17293808.679   -17216779.353 5 -13328864.552 5
  14719709.523   -36426808.802 7 -28278192.880 9
  15890709.507   -44452615.082 6 -34542587.923 7
  18035672.859    -5419050.086 4  -4002359.904 2
  16205692.444   -19982261.580 6 -15372619.465 6
 94  1 20 23 16 59.9790000  0  7 18 27 28 19 29  2 31
  14168977.523   -43351995.633 7 -33590878.690 8
  15881250.343   -25370686.454 6 -19670125.516 7
  17288172.765   -17246376.590 5 -13351927.312 6
  14708306.444   -36486736.556 7 -28324889.826 9
  15896302.874   -44423215.928 6 -34519679.528 7
  18009769.694    -5555166.029 5  -4108424.175 4
  16188872.343   -20070660.467 6 -15441501.697 6
 94  1 20 23 17 29.9790000  0  7 18 27 28 19 29  2 31
  14164717.968   -43374378.398 7 -33608319.816 8
  15861726.452   -25473272.062 6 -19750062.328 7
  17282643.499   -17275448.348 5 -13374580.624 5
  14696935.382   -36546491.720 7 -28371452.277 9
  15901962.671   -44393466.649 6 -34496498.312 7
  17983899.405    -5691132.467 5  -4214371.956 2
  16172138.999   -20158578.811 6 -15510009.472 6
 94  1 20 23 17 59.9790000  0  7 18 27 28 19 29  2 31
  14160548.124   -43396296.698 7 -33625399.016 8
  15842232.077   -25575716.578 6 -19829889.206 7
  17277215.491   -17303981.528 5 -13396814.265 5
  14685595.773   -36606079.843 7 -28417884.574 9
  15907694.335   -44363355.632 6 -34473035.221 7
  17958060.288    -5826910.353 5  -4320172.817 2
  16155506.257   -20246001.949 6 -15578131.370 6
 94  1 20 23 18 29.9790000  0  7 18 27 28 19 29  2 31
  14156463.132   -43417758.211 7 -33642122.287 8
  15822762.944   -25678035.213 6 -19909618.002 7
  17271891.609   -17331945.510 5 -13418604.357 5
  14674289.210   -36665497.442 7 -28464183.993 9
  15913494.569   -44332872.210 6 -34449281.949 7
  17932265.124    -5962461.955 5  -4425797.385 3
  16138962.679   -20332926.781 6 -15645864.984 6
 94  1 20 23 18 59.9790000  0  7 18 27 28 19 29  2 31
  14152465.827   -43438763.434 7 -33658490.006 8
  15803309.335   -25780254.745 6 -19989269.555 7
  17266671.288   -17359356.568 5 -13439963.623 5
  14663012.054   -36724757.326 7 -28510360.519 9
  15919361.241   -44302040.311 6 -34425257.141 7
  17906508.616    -6097803.316 5  -4531258.111 4
  16122517.780   -20419376.158 6 -15713228.124 6
 94  1 20 23 19 29.9790000  0  7 18 27 28 19 29  2 31
  14148561.280   -43459283.077 7 -33674479.344 8
  15783880.569   -25882362.791 6 -20068834.264 7
  17261564.585   -17386206.628 5 -13460885.744 6
  14651766.343   -36783854.816 7 -28556410.507 9
  15925296.366   -44270852.786 6 -34400955.213 7
  17880793.280    -6232927.802 5  -4636549.831 4
  16106157.218   -20505331.831 6 -15780206.553 6
 94  1 20 23 19 59.9790000  0  7 18 27 28 19 29  2 31
  14144750.241   -43479317.087 7 -33690090.271 8
  15764471.280   -25984356.468 6 -20148309.821 7
  17256561.999   -17412484.864 5 -13481362.298 5
  14640552.507   -36842776.639 7 -28602323.603 9
  15931301.554   -44239299.031 6 -34376367.915 7
  17855121.632    -6367844.125 5  -4741679.387 2
  16089894.866   -20590794.085 6 -15846800.492 6
 94  1 20 23 20 29.9790000  0  7 18 27 28 19 29  2 31
  14141032.343   -43498849.019 7 -33705309.970 8
  15745084.530   -26086236.526 6 -20227696.863 7
  17251670.405   -17438206.217 5 -13501404.901 5
  14629375.210   -36901524.011 7 -28648100.766 9
  15937371.929   -44207389.865 6 -34351503.669 7
  17829479.101    -6502591.521 5  -4846677.290 4
  16073721.577   -20675776.940 6 -15913020.868 6
 94  1 20 23 20 59.9790000  0  7 18 27 28 19 29  2 31
  14137412.312   -43517875.829 7 -33720136.064 8
  15725723.171   -26187991.660 6 -20306986.561 7
  17246872.835   -17463409.018 5 -13521043.453 5
  14618225.601   -36960108.930 7 -28693751.345 9
  15943506.952   -44175152.898 6 -34326384.016 6
  17803867.546    -6637193.072 5  -4951561.571 3
  16057642.593   -20760266.078 6 -15978856.536 6
 94  1 20 23 21 29.9790000  0  7 18 27 28 19 29  2 31
  14133886.468   -43536406.171 7 -33734575.299 8
  15706382.593   -26289611.165 6 -20386170.568 7
  17242172.859   -17488100.177 5 -13540283.321 5
  14607110.546   -37018509.643 7 -28739258.390 9
  15949704.124   -44142591.941 6 -34301011.877 6
  17778282.749    -6771640.621 5  -5056325.824 5
  16041665.015   -20844246.763 6 -16044295.999 6
 94  1 20 23 21 59.9790000  0  7 18 27 28 19 29  2 31
  14130451.859   -43554455.796 7 -33748639.956 8
  15687074.280   -26391093.861 6 -20465247.968 7
  17237571.202   -17512281.105 5 -13559125.614 6
  14596036.718   -37076705.468 7 -28784605.775 9
  15955958.757   -44109716.833 6 -34275394.951 6
  17752729.390    -6905925.282 5  -5160963.154 4
  16025777.304   -20927715.004 6 -16109336.162 6
 94  1 20 23 22 29.9790000  0  7 18 27 28 19 29  2 31
  14127106.429   -43572037.547 7 -33762340.033 8
  15667786.663   -26492439.518 6 -20544218.582 7
  17233067.007   -17535958.152 5 -13577575.263 6
  14585001.601   -37134700.649 7 -28829796.825 9
  15962275.632   -44076542.546 6 -34249544.903 6
  17727208.874    -7040028.940 5  -5265459.446 5
  16009995.827   -21010659.665 6 -16173968.334 6
 94  1 20 23 22 59.9790000  0  7 18 27 28 19 29  2 31
  14123845.921   -43589167.793 7 -33775688.287 8
  15648523.515   -26593670.881 6 -20623100.139 7
  17228657.773   -17559118.570 5 -13595622.351 6
  14574006.913   -37192493.307 7 -28874830.057 9
  15968641.030   -44043072.182 6 -34223464.135 6
  17701726.444    -7173945.550 5  -5369809.983 4
  15994311.210   -21093079.265 6 -16238191.366 6
 94  1 20 23 23 29.9790000  0  7 18 27 28 19 29  2 31
  14120672.444   -43605845.389 7 -33788683.833 8
  15629280.757   -26694790.198 6 -20701894.387 7
  17224356.921   -17581739.719 5 -13613249.224 6
  14563048.859   -37250072.976 7 -28919697.322 9
  15975068.077   -44009298.021 6 -34197146.653 6
  17676282.640    -7307652.051 5  -5473996.789 4
  15978722.296   -21174991.281 6 -16302018.878 6
 94  1 20 23 23 59.9790000  0  8 18 27 28 19 29  2 16 31
  14117588.077   -43622049.578 7 -33801310.482 8
  15610061.124   -26795789.544 6 -20780595.153 8
  17220159.882   -17603809.244 5 -13630446.249 6
  14552128.788   -37307442.109 7 -28964400.538 9
  15981557.593   -43975205.482 6 -34170581.072 6
  17650882.007    -7441133.035 5  -5578007.869 4
  18525144.304          -0.50013
  15963235.241   -21256394.004 6 -16365449.547 6
 94  1 20 23 24 29.9790000  0  8 18 27 28 19 29  2 16 31
  14114597.523   -43637766.096 7 -33813557.126 8
  15590860.210   -26896686.675 6 -20859216.271 7
  17216064.327   -17625337.575 5 -13647221.576 6
  14541249.319   -37364623.186 7 -29008957.219 9
  15988105.226   -43940793.640 6 -34143766.691 6
  17625522.671    -7574406.631 5  -5681857.364 3
  18503993.109     -111098.182 3        -0.36712
  15947836.734   -21337306.976 6 -16428498.591 6
 94  1 20 23 24 59.9790000  0  8 18 27 28 19 29  2 16 31
  14111706.241   -43652969.924 7 -33825404.277 8
  15571683.999   -26997460.974 6 -20937741.679 7
  17212066.202   -17646324.291 5 -13663574.859 5
  14530404.679   -37421609.352 7 -29053362.021 9
  15994719.726   -43906040.250 6 -34116686.168 6
  17600200.632    -7707465.554 5  -5785539.555 4
  18482920.507     -221790.233 3    -86253.857 2
  15932533.507   -21417727.227 6 -16491163.693 6
 94  1 20 23 25 29.9790000  0  8 18 27 28 19 29  2 16 31
  14108907.562   -43667670.840 7 -33836859.548 8
  15552534.991   -27098088.343 6 -21016152.600 7
  17208172.484   -17666786.580 5 -13679519.494 5
  14519598.069   -37478410.669 7 -29097622.783 9
  16001394.413   -43870946.886 6 -34089340.724 6
  17574922.577    -7840308.224 5  -5889053.247 4
  18461953.179     -332070.869 3   -172186.748 2
  15917322.476   -21497655.429 6 -16553445.374 6
 94  1 20 23 25 59.9790000  0  8 18 27 28 19 29  2 16 31
  14106206.132   -43681865.383 7 -33847920.235 8
  15533413.655   -27198574.692 6 -21094453.633 8
  17204380.890   -17686721.940 5 -13695053.534 5
  14508819.851   -37535037.182 7 -29141747.329 9
  16008142.476   -43835503.491 6 -34061722.537 6
  17549678.991    -7972960.954 5  -5992418.939 5
  18441046.859     -441932.793 3   -257793.400 2
  15902208.530   -21577077.401 6 -16615332.614 6
 94  1 20 23 26 29.9790000  0  8 18 27 28 19 29  2 16 31
  14103598.062   -43695562.434 7 -33858593.279 8
  15514317.929   -27298921.661 6 -21172646.047 7
  17200689.991   -17706129.070 5 -13710175.964 5
  14498076.765   -37591499.985 7 -29185744.308 9
  16014951.062   -43799717.330 6 -34033837.259 6
  17524472.726    -8105435.995 5  -6095646.180 4
  18420204.679     -551382.301 3   -343078.647 1
  15887195.405   -21655983.231 6 -16676817.666 6
 94  1 20 23 26 59.9790000  0  8 18 27 28 19 29  2 16 31
  14101081.874   -43708790.188 7 -33868900.625 8
  15495251.062   -27399126.925 6 -21250728.063 8
  17197092.257   -17725009.966 5 -13724888.363 5
  14487363.812   -37647799.152 7 -29229613.784 9
  16021822.413   -43763604.494 6 -34005697.434 6
  17499289.366    -8237743.181 5  -6198742.594 4
  18399455.421     -660399.310 3   -428026.916 2
  15872276.234   -21734374.771 6 -16737901.963 6
 94  1 20 23 27 29.9790000  0  8 18 27 28 19 29  2 16 31
  14098653.765   -43721545.389 7 -33878839.750 8
  15476206.694   -27499200.421 6 -21328707.394 8
  17193606.265   -17743341.431 5 -13739172.590 5
  14476684.718   -37703915.819 7 -29273341.048 9
  16028759.351   -43727165.675 6 -33977303.591 6
  17474144.562    -8369889.230 5  -6301713.467 3
  18378803.718     -768961.647 3   -512620.855 2
  15857459.484   -21812230.888 6 -16798569.034 6
 94  1 20 23 27 59.9790000  0  8 18 27 28 19 29  2 16 31
  14096319.515   -43733821.308 7 -33888405.408 8
  15457184.507   -27599167.084 6 -21406603.470 8
  17190220.359   -17761131.387 5 -13753034.883 5
  14466039.038   -37759858.854 7 -29316933.020 9
  16035752.421   -43690409.540 6 -33948662.485 6
  17449028.679    -8501881.042 5  -6404564.164 4
  18358226.171     -877093.388 3   -596879.308 2
  15842741.741   -21889565.908 6 -16858830.068 6
 94  1 20 23 28 29.9790000  0  8 18 27 28 19 29  2 16 31
  14094070.632   -43745628.639 7 -33897605.936 8
  15438183.312   -27699019.955 6 -21484410.880 8
  17186933.624   -17778395.378 5 -13766487.339 5
  14455429.148   -37815615.934 7 -29360380.086 9
  16042803.616   -43653352.557 6 -33919786.967 6
  17423942.937    -8633703.177 5  -6507282.641 5
  18337731.077     -984804.519 3   -680810.007 1
  15828123.921   -21966397.943 6 -16918699.153 6
 94  1 20 23 28 59.9790000  0  8 18 27 28 19 29  2 16 31
  14091917.327   -43756949.304 7 -33906427.244 8
  15419205.234   -27798739.579 6 -21562114.468 8
  17183752.741   -17795120.681 5 -13779520.035 5
  14444860.640   -37871155.988 7 -29403658.039 9
  16049917.788   -43615971.483 6 -33890658.896 6
  17398896.507    -8765324.259 5  -6609844.451 5
  18317322.304    -1092071.445 3   -764394.581 1
  15813599.905   -22042713.337 6 -16978165.673 6
 94  1 20 23 29 29.9790000  0  8 18 27 28 19 29  2 16 31
  14089857.655   -43767771.937 7 -33914860.475 8
  15400253.609   -27898330.106 6 -21639717.453 8
  17180671.296   -17811306.455 5 -13792132.315 5
  14434331.507   -37926477.513 7 -29446765.714 9
  16057092.827   -43578261.683 6 -33861274.678 6
  17373891.859    -8896723.614 5  -6712233.519 5
  18296988.991    -1198909.229 3   -847644.726 2
  15799183.655   -22118500.902 6 -17037220.891 6
 94  1 20 23 29 59.9790000  0  8 18 27 28 19 29  2 16 31
  14087890.843   -43778103.524 7 -33922911.077 8
  15381330.593   -27997784.372 6 -21717214.261 8
  17177694.491   -17826961.813 5 -13804331.280 5
  14423841.796   -37981596.579 7 -29489715.626 9
  16064330.796   -43540229.849 6 -33831639.518 6
  17348933.452    -9027882.431 5  -6814435.158 5
  18276739.788    -1305324.150 3   -930565.400 2
  15784859.788   -22193770.573 6 -17095872.564 6
 94  1 20 23 30 29.9790000  0  8 18 27 28 19 29  2 16 31
  14086016.780   -43787950.157 7 -33930583.782 8
  15362430.148   -28097100.872 6 -21794603.717 8
  17174814.038   -17842089.151 5 -13816118.809 5
  14413392.468   -38036516.502 7 -29532510.360 9
  16071629.468   -43501875.928 6 -33801753.386 6
  17324019.093    -9158801.710 5  -6916450.135 5
  18256570.374    -1411307.731 4  -1013149.975 2
  15770636.804   -22268503.530 6 -17154106.005 7
 94  1 20 23 30 59.9780000  0  8 18 27 28 19 29  2 16 31
  14084238.315   -43797314.629 7 -33937880.787 8
  15343553.690   -28196290.294 6 -21871894.149 8
  17172036.354   -17856679.974 5 -13827488.270 5
  14402974.830   -38091264.791 7 -29575171.361 9
  16078988.401   -43463202.364 6 -33771618.191 6
  17299150.424    -9289486.487 5  -7018282.376 5
  18236483.033    -1516864.619 3  -1095402.041 2
  15756519.502   -22342679.247 6 -17211905.232 6
 94  1 20 23 31 29.9780000  0  8 18 27 28 19 29  2 16 31
  14082545.072   -43806196.594 7 -33944801.811 8
  15324701.924   -28295366.743 6 -21949096.551 8
  17169367.346   -17870730.322 5 -13838436.592 5
  14392582.690   -38145869.809 7 -29617720.718 9
  16086403.916   -43424229.537 6 -33741249.793 6
  17274322.127    -9419957.516 5  -7119948.081 5
  18216467.463    -1622016.413 3  -1177338.478 2
  15742509.971   -22416301.678 6 -17269273.331 6
 94  1 20 23 31 59.9780000  0  8 18 27 28 19 29  2 16 31
  14080948.533   -43814585.972 7 -33951338.995 8
  15305872.018   -28394311.878 6 -22026196.630 8
  17166793.205   -17884241.635 5 -13848964.878 5
  14382217.901   -38200338.789 7 -29660164.068 9
  16093875.557   -43384952.617 6 -33710644.438 6
  17249535.315    -9550219.770 5  -7221451.109 5
  18196543.658    -1726739.419 3  -1258940.772 2
  15728609.721   -22489359.939 6 -17326201.826 6
 94  1 20 23 32 29.9780000  0  8 18 27 28 19 29  2 16 31
  14079448.713   -43822477.761 7 -33957488.451 8
  15287072.119   -28493117.820 6 -22103188.239 8
  17164323.776   -17897203.277 5 -13859064.845 6
  14371881.596   -38254652.923 7 -29702486.767 9
  16101409.565   -43345367.562 6 -33679798.977 6
  17224787.424    -9680281.965 5  -7322798.240 5
  18176692.182    -1831029.172 3  -1340205.465 2
  15714812.166   -22561846.090 6 -17382684.518 7
 94  1 20 23 32 59.9780000  0  8 18 27 28 19 29  2 16 31
  14078040.799   -43829874.090 7 -33963251.835 8
  15268294.947   -28591779.911 6 -22180067.770 8
  17161967.151   -17909615.302 5 -13868736.545 5
  14361578.447   -38308800.660 7 -29744679.800 9
  16108998.643   -43305496.011 6 -33648730.279 6
  17200073.440    -9810150.402 5  -7423994.392 5
  18156936.783    -1934880.938 3  -1421128.870 2
  15701124.276   -22633785.557 6 -17438741.216 7
 94  1 20 23 33 29.9780000  0  8 18 27 28 19 29  2 16 31
  14076726.080   -43836780.271 7 -33968633.284 8
  15249551.611   -28690281.055 6 -22256821.888 8
  17159706.072   -17921497.436 5 -13877995.351 5
  14351312.736   -38362750.189 7 -29786718.388 9
  16116638.752   -43265343.097 6 -33617442.337 6
  17175393.643    -9939831.293 5  -7525044.414 5
  18137260.846    -2038273.812 3  -1501694.674 3
  15687535.463   -22705192.522 6 -17494382.988 7
 94  1 20 23 33 59.9780000  0  8 18 27 28 19 29  2 16 31
  14075503.697   -43843203.329 7 -33973638.278 8
  15230840.971   -28788603.127 6 -22333436.459 8
  17157540.604   -17932861.248 5 -13886850.263 5
  14341090.651   -38416469.731 7 -29828577.765 9
  16124342.322   -43224877.538 6 -33585910.779 6
  17150756.354   -10069318.786 5  -7625943.749 5
  18117666.455    -2141180.078 3  -1581881.338 2
  15674049.846   -22776074.206 6 -17549615.434 7
 94  1 20 23 34 29.9780000  0  8 18 27 28 19 29  2 16 31
  14074373.260   -43849148.519 7 -33978270.897 8
  15212163.127   -28886757.396 6 -22409920.282 8
  17155474.783   -17943703.425 5 -13895298.703 5
  14330915.026   -38469939.386 7 -29870242.425 9
  16132098.526   -43184103.432 6 -33554138.800 6
  17126150.533   -10198605.312 5  -7726686.468 5
  18098196.158    -2243616.264 4  -1661701.716 3
  15660657.838   -22846441.827 6 -17604447.322 7
 94  1 20 23 34 59.9780000  0  8 18 27 28 19 29  2 16 31
  14073332.049   -43854614.934 7 -33982530.455 9
  15193517.322   -28984750.137 6 -22486278.236 8
  17153505.986   -17954040.483 5 -13903353.538 5
  14320784.135   -38523176.084 7 -29911725.562 9
  16139915.393   -43143016.633 6 -33522123.151 6
  17101588.338   -10327685.492 5  -7827268.405 5
  18078782.955    -2345582.272 3  -1741155.696 1
  15647364.572   -22916287.104 6 -17658872.180 7
 94  1 20 23 35 29.9780000  0  8 18 27 28 19 29  2 16 31
  14072382.940   -43859608.037 7 -33986421.196 9
  15174892.658   -29082602.862 6 -22562527.076 8
  17151640.104   -17963875.838 5 -13911017.453 5
  14310693.049   -38576199.783 7 -29953042.717 9
  16147801.018   -43101598.347 6 -33489849.207 6
  17077067.471   -10456550.295 5  -7927682.499 5
  18059472.518    -2447080.495 3  -1820245.174 4
  15634181.799   -22985580.190 6 -17712866.772 7
 94  1 20 23 35 59.9780000  0  8 18 27 28 19 29  2 16 31
  14071521.361   -43864127.129 7 -33989942.581 9
  15156293.065   -29180350.734 6 -22638694.220 8
  17149866.651   -17973200.288 5 -13918283.244 5
  14300638.361   -38629044.884 7 -29994220.709 9
  16155741.494   -43059853.540 6 -33457320.829 6
  17052585.518   -10585199.947 5  -8027928.955 5
  18040234.307    -2548140.597 3  -1898993.270 2
  15621099.971   -23054314.856 6 -17766426.231 7
 94  1 20 23 36 29.9780000  0  8 18 27 28 19 29  2 16 31
  14070755.440   -43868148.742 7 -33993076.319 9
  15137712.080   -29277993.632 6 -22714779.567 8
  17148195.705   -17981991.998 5 -13925133.923 5
  14290615.510   -38681717.020 7 -30035263.920 9
  16163746.783   -43017790.646 6 -33424544.591 6
  17028148.807   -10713609.353 5  -8127988.203 5
  18021088.393    -2648761.540 3  -1977399.148 2
  15608133.354   -23122453.508 6 -17819521.260 6
 94  1 20 23 36 59.9780000  0  8 18 27 28 19 29  2 16 31
  14070083.330   -43871685.592 7 -33995832.313 8
  15119153.596   -29375528.033 7 -22790780.375 8
  17146617.463   -17990263.976 5 -13931579.615 5
  14280621.401   -38734229.112 7 -30076182.423 9
  16171811.354   -42975413.768 6 -33391523.683 6
  17003761.377   -10841779.994 5  -8227861.399 5
  18002022.799    -2748929.363 4  -2055451.932 2
  15595280.807   -23189990.075 6 -17872147.137 7
 94  1 20 23 37 29.9780000  0  8 18 27 28 19 29  2 16 31
  14069500.697   -43874749.663 7 -33998219.915 8
  15100612.971   -29472961.531 7 -22866702.547 8
  17145144.213   -17998020.674 5 -13937623.785 5
  14270663.080   -38786568.423 7 -30116966.294 9
  16179932.979   -42932732.898 6 -33358265.906 6
  16979413.182   -10969723.156 5  -8327557.329 5
  17983045.424    -2848649.329 3  -2133155.763 2
  15582541.190   -23256939.920 6 -17924315.834 7
 94  1 20 23 37 59.9780000  0  8 18 27 28 19 29  2 16 31
  14069004.635   -43877344.829 7 -34000242.129 8
  15082093.572   -29570276.077 7 -22942532.038 8
  17143762.026   -18005267.188 5 -13943270.410 5
  14260736.494   -38838726.337 7 -30157608.813 9
  16188111.291   -42889772.152 6 -33324790.051 6
  16955108.143   -11097446.583 5  -8427082.042 5
  17964159.197    -2947923.161 3  -2210511.943 2
  15569907.565   -23323338.419 6 -17976054.897 7
 94  1 20 23 38 29.9780000  0  8 18 27 28 19 29  2 16 31
  14068603.690   -43879463.366 7 -34001892.947 8
  15063603.658   -29667442.258 7 -23018245.923 8
  17142483.666   -18012001.382 5 -13948517.828 5
  14250848.940   -38890678.532 7 -30198091.030 9
  16196334.901   -42846535.686 6 -33291099.336 6
  16930848.080   -11224929.226 5  -8526419.122 5
  17945363.151    -3046725.424 4  -2287500.661 3
  15557377.955   -23389184.322 6 -18027363.371 6
 94  1 20 23 38 59.9780000  0  8 18 27 28 19 29  2 16 31
  14068290.447   -43881118.859 7 -34003182.950 8
  15045141.283   -29764460.829 7 -23093844.786 8
  17141296.799   -18018229.557 5 -13953370.944 5
  14241005.018   -38942421.623 7 -30238410.308 9
  16204614.072   -42803034.876 6 -33257202.644 6
  16906630.065   -11352195.567 5  -8625587.638 5
  17926650.065    -3145056.396 4  -2364122.136 2
  15544944.229   -23454513.814 6 -18078269.450 6
 94  1 20 23 39 29.9780000  0  8 18 27 28 19 29  2 16 31
  14068067.361   -43882295.975 7 -34004100.191 8
  15026706.807   -29861326.959 7 -23169324.861 8
  17140211.963   -18023930.421 5 -13957813.162 5
  14231197.971   -38993957.265 7 -30278567.942 9
  16212943.854   -42759271.335 6 -33223101.229 6
  16882454.830   -11479243.148 5  -8724585.709 5
  17908023.072    -3242909.606 4  -2440371.347 2
  15532609.901   -23519326.792 6 -18128773.043 7
 94  1 20 23 39 59.9780000  0  8 18 27 28 19 29  2 16 31
  14067931.760   -43882995.520 7 -34004645.295 8
  15008305.440   -29958036.975 7 -23244683.302 8
  17139229.057   -18029097.223 5 -13961839.225 5
  14221425.502   -39045305.453 7 -30318579.507 9
  16221319.385   -42715247.056 6 -33188796.634 6
  16858320.486   -11606062.620 5  -8823406.021 5
  17889504.854    -3340287.953 4  -2516250.551 3
  15520378.807   -23583612.261 6 -18178865.594 7
 94  1 20 23 40 29.9780000  0  8 18 27 28 19 29  2 16 31
  14067890.916   -43883221.626 7
  14989929.401   -30054603.252 7
  17138347.611   -18033724.005 5 -13965444.500 5
  14211689.627   -39096465.134 7 -30358444.184 9
  16229749.229   -42670943.749 6 -33154274.616 6
  16834229.979   -11732654.125 5  -8922048.694 5
  17871059.557    -3437187.169 4
  15508251.901   -23647344.193 6 -18228526.802 7
 94  1 20 23 40 59.9780000  0  8 18 27 28 19 29  2 16 31
  14067934.361   -43882974.819 7
  14971577.666   -30151029.857 6
  17137569.291   -18037807.136 5 -13968626.137 5
  14201990.486   -39147434.066 7 -30398160.223 9
  16238238.697   -42626331.226 6 -33119511.649 6
  16810187.393   -11859012.789 5  -9020509.939 5
  17852709.338    -3533600.493 4
  15496235.408   -23710496.381 6 -18277736.264 7
